Multibeam Report for 2013_Amundsen


Ship Name: Amundsen
Chief Scientist: Hughes Clarke, John
University of New Brunswick
Source Organization: University of New Brunswick (UNB), Ocean Mapping Group
Start Date: 2013-07-26
End Date: 2013-10-05


View ISO Metadata

Visit the full NCEI Bathymetry Viewer


Multibeam Bathymetry

Cruise Details

Project: ArcticNet NCE
Instrument: Kongsberg EM302

Data Quality

Number of Files: 2250
Number of Records: 3505488
BATHYMETRY DATA Quantity Percentage
Number of Beams 1514368224 100%
Number of Good Beams 1424803375 94.09%
Number of Zero Beams 0 0%
Number of Flagged Beams 89564849 5.91%

Navigation Totals

Total Time: 1013.8444 hours
Total Track Length: 18143.9613 km
Average Speed: 17.896 km/hr (9.6631 knots)

Cruise Bounds

Northern Extent: 81.294266
Southern Extent: 46.82861
Western Extent: -118.08559
Eastern Extent: -55.25925

Limits

Minimum Sonar Depth 0 Maximum Sonar Depth 9.736
Minimum Altitude 6.7478 Maximum Altitude 3405.165
Minimum Depth 12.7976 Maximum Depth 3636.7087

File Information

Full Resolution Bathymetry as collected (raw): 2246

Files File Size Description
0000_20130726_191533_Amundsen.all.mb58.gz 128.47MB Kongsberg multibeam vendor format
0000_20130729_203144_Amundsen.all.mb58.gz 67.36MB Kongsberg multibeam vendor format
0000_20130803_200018_Amundsen.all.mb58.gz 188.9KB Kongsberg multibeam vendor format
0000_20130813_024029_Amundsen.all.mb58.gz 50.83MB Kongsberg multibeam vendor format
0000_20130823_013230_Amundsen.all.mb58.gz 33.48MB Kongsberg multibeam vendor format
0000_20130825_163102_Amundsen.all.mb58.gz 10.29MB Kongsberg multibeam vendor format
0000_20130906_101654_ShipName.all.mb58.gz 132.40MB Kongsberg multibeam vendor format
0000_20130906_182231_ShipName.all.mb58.gz 31.17MB Kongsberg multibeam vendor format
0000_20130906_194255_ShipName.all.mb58.gz 15.18MB Kongsberg multibeam vendor format
0000_20130906_195045_ShipName.all.mb58.gz 14.40MB Kongsberg multibeam vendor format
0000_20130906_195730_ShipName.all.mb58.gz 1.42MB Kongsberg multibeam vendor format
0000_20130906_200313_ShipName.all.mb58.gz 70.58MB Kongsberg multibeam vendor format
0000_20130906_221319_ShipName.all.mb58.gz 2.84MB Kongsberg multibeam vendor format
0000_20130907_000351_Amundsen.all.mb58.gz 0.71MB Kongsberg multibeam vendor format
0000_20130907_085753_Amundsen.all.mb58.gz 62.01MB Kongsberg multibeam vendor format
0000_20130908_023642_Amundsen.all.mb58.gz 58.26MB Kongsberg multibeam vendor format
0000_20130912_180618_Amundsen.all.mb58.gz 103.87MB Kongsberg multibeam vendor format
0000_20130921_142544_Amundsen.all.mb58.gz 26.35MB Kongsberg multibeam vendor format
0000_20130928_170522_Amundsen.all.mb58.gz 3.25MB Kongsberg multibeam vendor format
0001_20130726_194533_Amundsen.all.mb58.gz 18.93MB Kongsberg multibeam vendor format
0001_20130729_210144_Amundsen.all.mb58.gz 72.48MB Kongsberg multibeam vendor format
0001_20130803_201127_Amundsen.all.mb58.gz 29.69MB Kongsberg multibeam vendor format
0001_20130813_031031_Amundsen.all.mb58.gz 32.10MB Kongsberg multibeam vendor format
0001_20130823_020230_Amundsen.all.mb58.gz 27.71MB Kongsberg multibeam vendor format
0001_20130825_205422_Amundsen.all.mb58.gz 59.60MB Kongsberg multibeam vendor format
0001_20130906_104654_ShipName.all.mb58.gz 104.55MB Kongsberg multibeam vendor format
0001_20130906_185231_ShipName.all.mb58.gz 13.64MB Kongsberg multibeam vendor format
0001_20130906_195914_ShipName.all.mb58.gz 0.62MB Kongsberg multibeam vendor format
0001_20130906_203313_ShipName.all.mb58.gz 3.43MB Kongsberg multibeam vendor format
0001_20130906_213720_ShipName.all.mb58.gz 0.60MB Kongsberg multibeam vendor format
0001_20130907_092753_Amundsen.all.mb58.gz 62.01MB Kongsberg multibeam vendor format
0001_20130908_030643_Amundsen.all.mb58.gz 58.32MB Kongsberg multibeam vendor format
0001_20130912_183618_Amundsen.all.mb58.gz 94.02MB Kongsberg multibeam vendor format
0001_20130921_152621_Amundsen.all.mb58.gz 2.57MB Kongsberg multibeam vendor format
0001_20130928_171521_Amundsen.all.mb58.gz 1.85MB Kongsberg multibeam vendor format
0002_20130727_022450_Amundsen.all.mb58.gz 178.76MB Kongsberg multibeam vendor format
0002_20130729_213144_Amundsen.all.mb58.gz 69.72MB Kongsberg multibeam vendor format
0002_20130803_204125_Amundsen.all.mb58.gz 27.98MB Kongsberg multibeam vendor format
0002_20130813_034031_Amundsen.all.mb58.gz 29.26MB Kongsberg multibeam vendor format
0002_20130823_023231_Amundsen.all.mb58.gz 16.61MB Kongsberg multibeam vendor format
0002_20130825_212422_Amundsen.all.mb58.gz 58.22MB Kongsberg multibeam vendor format
0002_20130906_111654_ShipName.all.mb58.gz 104.99MB Kongsberg multibeam vendor format
0002_20130906_204517_ShipName.all.mb58.gz 29.21MB Kongsberg multibeam vendor format
0002_20130906_214150_ShipName.all.mb58.gz 24.09MB Kongsberg multibeam vendor format
0002_20130907_005928_Amundsen.all.mb58.gz 26.20MB Kongsberg multibeam vendor format
0002_20130907_095752_Amundsen.all.mb58.gz 61.65MB Kongsberg multibeam vendor format
0002_20130908_033645_Amundsen.all.mb58.gz 58.11MB Kongsberg multibeam vendor format
0002_20130912_190618_Amundsen.all.mb58.gz 119.69MB Kongsberg multibeam vendor format
0002_20130921_161659_Amundsen.all.mb58.gz 58.25MB Kongsberg multibeam vendor format
0002_20130928_171810_Amundsen.all.mb58.gz 2.67MB Kongsberg multibeam vendor format
0003_20130727_025450_Amundsen.all.mb58.gz 273.65MB Kongsberg multibeam vendor format
0003_20130729_220144_Amundsen.all.mb58.gz 73.30MB Kongsberg multibeam vendor format
0003_20130803_211129_Amundsen.all.mb58.gz 30.52MB Kongsberg multibeam vendor format
0003_20130813_041033_Amundsen.all.mb58.gz 29.58MB Kongsberg multibeam vendor format
0003_20130823_030235_Amundsen.all.mb58.gz 13.66MB Kongsberg multibeam vendor format
0003_20130825_215422_Amundsen.all.mb58.gz 59.79MB Kongsberg multibeam vendor format
0003_20130906_114654_ShipName.all.mb58.gz 107.05MB Kongsberg multibeam vendor format
0003_20130906_221905_ShipName.all.mb58.gz 4.93MB Kongsberg multibeam vendor format
0003_20130907_012928_Amundsen.all.mb58.gz 22.50MB Kongsberg multibeam vendor format
0003_20130907_102752_Amundsen.all.mb58.gz 61.25MB Kongsberg multibeam vendor format
0003_20130908_040642_Amundsen.all.mb58.gz 58.31MB Kongsberg multibeam vendor format
0003_20130912_193618_Amundsen.all.mb58.gz 141.89MB Kongsberg multibeam vendor format
0003_20130921_223508_Amundsen.all.mb58.gz 9.66MB Kongsberg multibeam vendor format
0003_20130928_173659_Amundsen.all.mb58.gz 366.7KB Kongsberg multibeam vendor format
0004_20130727_032450_Amundsen.all.mb58.gz 233.27MB Kongsberg multibeam vendor format
0004_20130729_223144_Amundsen.all.mb58.gz 75.99MB Kongsberg multibeam vendor format
0004_20130803_214125_Amundsen.all.mb58.gz 16.86MB Kongsberg multibeam vendor format
0004_20130813_044031_Amundsen.all.mb58.gz 38.09MB Kongsberg multibeam vendor format
0004_20130823_033235_Amundsen.all.mb58.gz 14.04MB Kongsberg multibeam vendor format
0004_20130825_222422_Amundsen.all.mb58.gz 11.65MB Kongsberg multibeam vendor format
0004_20130906_121654_ShipName.all.mb58.gz 66.63MB Kongsberg multibeam vendor format
0004_20130906_224622_ShipName.all.mb58.gz 4.13MB Kongsberg multibeam vendor format
0004_20130907_015934_Amundsen.all.mb58.gz 22.93MB Kongsberg multibeam vendor format
0004_20130907_105752_Amundsen.all.mb58.gz 60.96MB Kongsberg multibeam vendor format
0004_20130908_043644_Amundsen.all.mb58.gz 57.79MB Kongsberg multibeam vendor format
0004_20130912_200618_Amundsen.all.mb58.gz 177.25MB Kongsberg multibeam vendor format
0004_20130921_224256_Amundsen.all.mb58.gz 20.82MB Kongsberg multibeam vendor format
0004_20130928_174639_Amundsen.all.mb58.gz 8.24MB Kongsberg multibeam vendor format
0005_20130727_035450_Amundsen.all.mb58.gz 181.50MB Kongsberg multibeam vendor format
0005_20130729_230144_Amundsen.all.mb58.gz 63.73MB Kongsberg multibeam vendor format
0005_20130803_220442_Amundsen.all.mb58.gz 22.3KB Kongsberg multibeam vendor format
0005_20130813_051030_Amundsen.all.mb58.gz 42.97MB Kongsberg multibeam vendor format
0005_20130823_040233_Amundsen.all.mb58.gz 16.19MB Kongsberg multibeam vendor format
0005_20130825_223002_Amundsen.all.mb58.gz 23.12MB Kongsberg multibeam vendor format
0005_20130906_124654_ShipName.all.mb58.gz 65.86MB Kongsberg multibeam vendor format
0005_20130906_225207_ShipName.all.mb58.gz 33.69MB Kongsberg multibeam vendor format
0005_20130907_022928_Amundsen.all.mb58.gz 24.77MB Kongsberg multibeam vendor format
0005_20130907_112754_Amundsen.all.mb58.gz 60.57MB Kongsberg multibeam vendor format
0005_20130908_050643_Amundsen.all.mb58.gz 58.16MB Kongsberg multibeam vendor format
0005_20130912_203618_Amundsen.all.mb58.gz 131.96MB Kongsberg multibeam vendor format
0005_20130921_225848_Amundsen.all.mb58.gz 33.52MB Kongsberg multibeam vendor format
0005_20130928_180226_Amundsen.all.mb58.gz 1.92MB Kongsberg multibeam vendor format
0006_20130727_042450_Amundsen.all.mb58.gz 223.75MB Kongsberg multibeam vendor format
0006_20130729_233145_Amundsen.all.mb58.gz 50.57MB Kongsberg multibeam vendor format
0006_20130804_012023_Amundsen.all.mb58.gz 12.83MB Kongsberg multibeam vendor format
0006_20130813_054029_Amundsen.all.mb58.gz 39.46MB Kongsberg multibeam vendor format
0006_20130823_043233_Amundsen.all.mb58.gz 30.55MB Kongsberg multibeam vendor format
0006_20130825_224127_Amundsen.all.mb58.gz 12.55MB Kongsberg multibeam vendor format
0006_20130906_131654_ShipName.all.mb58.gz 65.85MB Kongsberg multibeam vendor format
0006_20130906_232207_ShipName.all.mb58.gz 33.97MB Kongsberg multibeam vendor format
0006_20130907_025928_Amundsen.all.mb58.gz 25.89MB Kongsberg multibeam vendor format
0006_20130907_115753_Amundsen.all.mb58.gz 60.20MB Kongsberg multibeam vendor format
0006_20130908_053642_Amundsen.all.mb58.gz 58.26MB Kongsberg multibeam vendor format
0006_20130912_210618_Amundsen.all.mb58.gz 101.70MB Kongsberg multibeam vendor format
0006_20130921_232848_Amundsen.all.mb58.gz 36.59MB Kongsberg multibeam vendor format
0006_20130928_180611_Amundsen.all.mb58.gz 3.00MB Kongsberg multibeam vendor format
0007_20130727_045450_Amundsen.all.mb58.gz 94.50MB Kongsberg multibeam vendor format
0007_20130730_000145_Amundsen.all.mb58.gz 47.94MB Kongsberg multibeam vendor format
0007_20130804_013504_Amundsen.all.mb58.gz 75.00MB Kongsberg multibeam vendor format
0007_20130813_061029_Amundsen.all.mb58.gz 40.32MB Kongsberg multibeam vendor format
0007_20130823_050233_Amundsen.all.mb58.gz 32.92MB Kongsberg multibeam vendor format
0007_20130825_224729_Amundsen.all.mb58.gz 21.97MB Kongsberg multibeam vendor format
0007_20130906_134654_ShipName.all.mb58.gz 65.29MB Kongsberg multibeam vendor format
0007_20130906_235207_ShipName.all.mb58.gz 3.86MB Kongsberg multibeam vendor format
0007_20130907_032929_Amundsen.all.mb58.gz 5.24MB Kongsberg multibeam vendor format
0007_20130907_122752_Amundsen.all.mb58.gz 61.86MB Kongsberg multibeam vendor format
0007_20130908_060642_Amundsen.all.mb58.gz 58.10MB Kongsberg multibeam vendor format
0007_20130912_213618_Amundsen.all.mb58.gz 95.48MB Kongsberg multibeam vendor format
0007_20130921_235735_Amundsen.all.mb58.gz 14.03MB Kongsberg multibeam vendor format
0007_20130928_181123_Amundsen.all.mb58.gz 0.75MB Kongsberg multibeam vendor format
0008_20130727_052451_Amundsen.all.mb58.gz 61.93MB Kongsberg multibeam vendor format
0008_20130730_003144_Amundsen.all.mb58.gz 47.93MB Kongsberg multibeam vendor format
0008_20130804_020505_Amundsen.all.mb58.gz 117.46MB Kongsberg multibeam vendor format
0008_20130813_064029_Amundsen.all.mb58.gz 39.46MB Kongsberg multibeam vendor format
0008_20130823_053234_Amundsen.all.mb58.gz 31.41MB Kongsberg multibeam vendor format
0008_20130825_225803_Amundsen.all.mb58.gz 11.51MB Kongsberg multibeam vendor format
0008_20130906_141654_ShipName.all.mb58.gz 64.97MB Kongsberg multibeam vendor format
0008_20130907_125752_Amundsen.all.mb58.gz 63.07MB Kongsberg multibeam vendor format
0008_20130908_063642_Amundsen.all.mb58.gz 58.87MB Kongsberg multibeam vendor format
0008_20130912_220618_Amundsen.all.mb58.gz 103.78MB Kongsberg multibeam vendor format
0008_20130922_001228_Amundsen.all.mb58.gz 23.68MB Kongsberg multibeam vendor format
0008_20130928_181539_Amundsen.all.mb58.gz 7.23MB Kongsberg multibeam vendor format
0009_20130727_055450_Amundsen.all.mb58.gz 60.26MB Kongsberg multibeam vendor format
0009_20130730_010144_Amundsen.all.mb58.gz 79.12MB Kongsberg multibeam vendor format
0009_20130804_024329_Amundsen.all.mb58.gz 76.10MB Kongsberg multibeam vendor format
0009_20130813_071030_Amundsen.all.mb58.gz 38.63MB Kongsberg multibeam vendor format
0009_20130823_060235_Amundsen.all.mb58.gz 32.94MB Kongsberg multibeam vendor format
0009_20130825_230342_Amundsen.all.mb58.gz 59.35MB Kongsberg multibeam vendor format
0009_20130906_144654_ShipName.all.mb58.gz 64.96MB Kongsberg multibeam vendor format
0009_20130907_132752_Amundsen.all.mb58.gz 62.10MB Kongsberg multibeam vendor format
0009_20130908_070643_Amundsen.all.mb58.gz 58.76MB Kongsberg multibeam vendor format
0009_20130912_223618_Amundsen.all.mb58.gz 102.85MB Kongsberg multibeam vendor format
0009_20130922_003231_Amundsen.all.mb58.gz 30.33MB Kongsberg multibeam vendor format
0009_20130928_183010_Amundsen.all.mb58.gz 1.17MB Kongsberg multibeam vendor format
0010_20130727_062451_Amundsen.all.mb58.gz 62.34MB Kongsberg multibeam vendor format
0010_20130730_013144_Amundsen.all.mb58.gz 69.87MB Kongsberg multibeam vendor format
0010_20130804_031328_Amundsen.all.mb58.gz 0.96MB Kongsberg multibeam vendor format
0010_20130813_074030_Amundsen.all.mb58.gz 37.19MB Kongsberg multibeam vendor format
0010_20130823_063237_Amundsen.all.mb58.gz 36.32MB Kongsberg multibeam vendor format
0010_20130825_233343_Amundsen.all.mb58.gz 55.72MB Kongsberg multibeam vendor format
0010_20130906_151654_ShipName.all.mb58.gz 64.82MB Kongsberg multibeam vendor format
0010_20130907_135754_Amundsen.all.mb58.gz 63.97MB Kongsberg multibeam vendor format
0010_20130908_073642_Amundsen.all.mb58.gz 59.80MB Kongsberg multibeam vendor format
0010_20130912_230618_Amundsen.all.mb58.gz 95.12MB Kongsberg multibeam vendor format
0010_20130922_005832_Amundsen.all.mb58.gz 35.17MB Kongsberg multibeam vendor format
0010_20130928_184504_Amundsen.all.mb58.gz 1.01MB Kongsberg multibeam vendor format
0011_20130727_065450_Amundsen.all.mb58.gz 59.70MB Kongsberg multibeam vendor format
0011_20130730_020144_Amundsen.all.mb58.gz 69.00MB Kongsberg multibeam vendor format
0011_20130804_033646_Amundsen.all.mb58.gz 53.51MB Kongsberg multibeam vendor format
0011_20130813_081030_Amundsen.all.mb58.gz 37.27MB Kongsberg multibeam vendor format
0011_20130823_070238_Amundsen.all.mb58.gz 38.49MB Kongsberg multibeam vendor format
0011_20130826_000342_Amundsen.all.mb58.gz 60.26MB Kongsberg multibeam vendor format
0011_20130906_154654_ShipName.all.mb58.gz 54.30MB Kongsberg multibeam vendor format
0011_20130907_142752_Amundsen.all.mb58.gz 62.30MB Kongsberg multibeam vendor format
0011_20130908_080642_Amundsen.all.mb58.gz 60.22MB Kongsberg multibeam vendor format
0011_20130912_233618_Amundsen.all.mb58.gz 101.72MB Kongsberg multibeam vendor format
0011_20130922_012831_Amundsen.all.mb58.gz 8.00MB Kongsberg multibeam vendor format
0011_20130928_185024_Amundsen.all.mb58.gz 2.91MB Kongsberg multibeam vendor format
0012_20130727_072451_Amundsen.all.mb58.gz 60.80MB Kongsberg multibeam vendor format
0012_20130730_023144_Amundsen.all.mb58.gz 70.28MB Kongsberg multibeam vendor format
0012_20130804_045003_Amundsen.all.mb58.gz 24.03MB Kongsberg multibeam vendor format
0012_20130813_084031_Amundsen.all.mb58.gz 34.51MB Kongsberg multibeam vendor format
0012_20130823_073238_Amundsen.all.mb58.gz 36.37MB Kongsberg multibeam vendor format
0012_20130826_003343_Amundsen.all.mb58.gz 63.98MB Kongsberg multibeam vendor format
0012_20130906_161654_ShipName.all.mb58.gz 42.01MB Kongsberg multibeam vendor format
0012_20130907_145754_Amundsen.all.mb58.gz 60.67MB Kongsberg multibeam vendor format
0012_20130908_083642_Amundsen.all.mb58.gz 61.00MB Kongsberg multibeam vendor format
0012_20130913_000618_Amundsen.all.mb58.gz 101.86MB Kongsberg multibeam vendor format
0012_20130922_013255_Amundsen.all.mb58.gz 29.91MB Kongsberg multibeam vendor format
0012_20130928_185735_Amundsen.all.mb58.gz 29.23MB Kongsberg multibeam vendor format
0013_20130727_075451_Amundsen.all.mb58.gz 39.40MB Kongsberg multibeam vendor format
0013_20130730_030144_Amundsen.all.mb58.gz 75.34MB Kongsberg multibeam vendor format
0013_20130804_050532_Amundsen.all.mb58.gz 47.38MB Kongsberg multibeam vendor format
0013_20130813_091031_Amundsen.all.mb58.gz 34.26MB Kongsberg multibeam vendor format
0013_20130823_080238_Amundsen.all.mb58.gz 36.06MB Kongsberg multibeam vendor format
0013_20130826_010342_Amundsen.all.mb58.gz 64.88MB Kongsberg multibeam vendor format
0013_20130906_164654_ShipName.all.mb58.gz 10.55MB Kongsberg multibeam vendor format
0013_20130907_152754_Amundsen.all.mb58.gz 60.86MB Kongsberg multibeam vendor format
0013_20130908_090642_Amundsen.all.mb58.gz 61.10MB Kongsberg multibeam vendor format
0013_20130913_003618_Amundsen.all.mb58.gz 101.64MB Kongsberg multibeam vendor format
0013_20130922_015125_Amundsen.all.mb58.gz 5.71MB Kongsberg multibeam vendor format
0013_20130928_192736_Amundsen.all.mb58.gz 30.93MB Kongsberg multibeam vendor format
0014_20130727_082450_Amundsen.all.mb58.gz 34.08MB Kongsberg multibeam vendor format
0014_20130730_033144_Amundsen.all.mb58.gz 73.97MB Kongsberg multibeam vendor format
0014_20130804_053531_Amundsen.all.mb58.gz 38.29MB Kongsberg multibeam vendor format
0014_20130813_094030_Amundsen.all.mb58.gz 35.94MB Kongsberg multibeam vendor format
0014_20130823_083239_Amundsen.all.mb58.gz 36.23MB Kongsberg multibeam vendor format
0014_20130826_013343_Amundsen.all.mb58.gz 64.06MB Kongsberg multibeam vendor format
0014_20130906_170313_ShipName.all.mb58.gz 31.25MB Kongsberg multibeam vendor format
0014_20130907_155753_Amundsen.all.mb58.gz 60.46MB Kongsberg multibeam vendor format
0014_20130908_093642_Amundsen.all.mb58.gz 60.36MB Kongsberg multibeam vendor format
0014_20130913_010618_Amundsen.all.mb58.gz 102.06MB Kongsberg multibeam vendor format
0014_20130922_015511_Amundsen.all.mb58.gz 38.65MB Kongsberg multibeam vendor format
0014_20130928_195735_Amundsen.all.mb58.gz 36.27MB Kongsberg multibeam vendor format
0015_20130727_085451_Amundsen.all.mb58.gz 34.66MB Kongsberg multibeam vendor format
0015_20130730_040144_Amundsen.all.mb58.gz 70.09MB Kongsberg multibeam vendor format
0015_20130804_060531_Amundsen.all.mb58.gz 19.79MB Kongsberg multibeam vendor format
0015_20130813_101030_Amundsen.all.mb58.gz 32.90MB Kongsberg multibeam vendor format
0015_20130823_090239_Amundsen.all.mb58.gz 34.93MB Kongsberg multibeam vendor format
0015_20130826_020342_Amundsen.all.mb58.gz 63.94MB Kongsberg multibeam vendor format
0015_20130906_173313_ShipName.all.mb58.gz 29.82MB Kongsberg multibeam vendor format
0015_20130907_162752_Amundsen.all.mb58.gz 59.43MB Kongsberg multibeam vendor format
0015_20130908_100644_Amundsen.all.mb58.gz 59.43MB Kongsberg multibeam vendor format
0015_20130913_013618_Amundsen.all.mb58.gz 92.20MB Kongsberg multibeam vendor format
0015_20130922_021852_Amundsen.all.mb58.gz 30.86MB Kongsberg multibeam vendor format
0015_20130928_202737_Amundsen.all.mb58.gz 35.92MB Kongsberg multibeam vendor format
0016_20130727_092450_Amundsen.all.mb58.gz 34.87MB Kongsberg multibeam vendor format
0016_20130730_043144_Amundsen.all.mb58.gz 66.14MB Kongsberg multibeam vendor format
0016_20130804_081923_Amundsen.all.mb58.gz 26.01MB Kongsberg multibeam vendor format
0016_20130813_104030_Amundsen.all.mb58.gz 34.46MB Kongsberg multibeam vendor format
0016_20130823_093238_Amundsen.all.mb58.gz 32.67MB Kongsberg multibeam vendor format
0016_20130826_023342_Amundsen.all.mb58.gz 62.88MB Kongsberg multibeam vendor format
0016_20130907_165753_Amundsen.all.mb58.gz 59.58MB Kongsberg multibeam vendor format
0016_20130908_103642_Amundsen.all.mb58.gz 59.19MB Kongsberg multibeam vendor format
0016_20130913_020618_Amundsen.all.mb58.gz 20.92MB Kongsberg multibeam vendor format
0016_20130922_023907_Amundsen.all.mb58.gz 34.80MB Kongsberg multibeam vendor format
0016_20130928_205736_Amundsen.all.mb58.gz 36.74MB Kongsberg multibeam vendor format
0017_20130727_095450_Amundsen.all.mb58.gz 47.79MB Kongsberg multibeam vendor format
0017_20130730_050144_Amundsen.all.mb58.gz 67.96MB Kongsberg multibeam vendor format
0017_20130804_084923_Amundsen.all.mb58.gz 7.74MB Kongsberg multibeam vendor format
0017_20130813_111030_Amundsen.all.mb58.gz 26.71MB Kongsberg multibeam vendor format
0017_20130823_100239_Amundsen.all.mb58.gz 23.59MB Kongsberg multibeam vendor format
0017_20130826_030342_Amundsen.all.mb58.gz 60.13MB Kongsberg multibeam vendor format
0017_20130907_172754_Amundsen.all.mb58.gz 58.61MB Kongsberg multibeam vendor format
0017_20130908_110643_Amundsen.all.mb58.gz 59.00MB Kongsberg multibeam vendor format
0017_20130913_040432_Amundsen.all.mb58.gz 38.50MB Kongsberg multibeam vendor format
0017_20130922_025911_Amundsen.all.mb58.gz 52.33MB Kongsberg multibeam vendor format
0017_20130928_212736_Amundsen.all.mb58.gz 35.60MB Kongsberg multibeam vendor format
0018_20130727_102451_Amundsen.all.mb58.gz 64.93MB Kongsberg multibeam vendor format
0018_20130730_053144_Amundsen.all.mb58.gz 66.47MB Kongsberg multibeam vendor format
0018_20130804_090256_Amundsen.all.mb58.gz 7.02MB Kongsberg multibeam vendor format
0018_20130813_131423_Amundsen.all.mb58.gz 26.76MB Kongsberg multibeam vendor format
0018_20130823_104550_Amundsen.all.mb58.gz 1.30MB Kongsberg multibeam vendor format
0018_20130826_033342_Amundsen.all.mb58.gz 59.16MB Kongsberg multibeam vendor format
0018_20130907_175752_Amundsen.all.mb58.gz 58.51MB Kongsberg multibeam vendor format
0018_20130908_113644_Amundsen.all.mb58.gz 59.11MB Kongsberg multibeam vendor format
0018_20130913_043432_Amundsen.all.mb58.gz 39.62MB Kongsberg multibeam vendor format
0018_20130922_032912_Amundsen.all.mb58.gz 52.51MB Kongsberg multibeam vendor format
0018_20130928_215736_Amundsen.all.mb58.gz 34.74MB Kongsberg multibeam vendor format
0019_20130727_105451_Amundsen.all.mb58.gz 64.47MB Kongsberg multibeam vendor format
0019_20130730_060144_Amundsen.all.mb58.gz 73.63MB Kongsberg multibeam vendor format
0019_20130804_091300_Amundsen.all.mb58.gz 23.74MB Kongsberg multibeam vendor format
0019_20130813_134422_Amundsen.all.mb58.gz 23.42MB Kongsberg multibeam vendor format
0019_20130823_115824_Amundsen.all.mb58.gz 14.09MB Kongsberg multibeam vendor format
0019_20130826_040342_Amundsen.all.mb58.gz 58.77MB Kongsberg multibeam vendor format
0019_20130907_182754_Amundsen.all.mb58.gz 46.13MB Kongsberg multibeam vendor format
0019_20130908_120645_Amundsen.all.mb58.gz 59.21MB Kongsberg multibeam vendor format
0019_20130913_050431_Amundsen.all.mb58.gz 38.64MB Kongsberg multibeam vendor format
0019_20130922_035912_Amundsen.all.mb58.gz 52.82MB Kongsberg multibeam vendor format
0019_20130928_222735_Amundsen.all.mb58.gz 33.36MB Kongsberg multibeam vendor format
0020_20130727_112451_Amundsen.all.mb58.gz 64.46MB Kongsberg multibeam vendor format
0020_20130730_063144_Amundsen.all.mb58.gz 65.22MB Kongsberg multibeam vendor format
0020_20130804_094301_Amundsen.all.mb58.gz 21.89MB Kongsberg multibeam vendor format
0020_20130813_152630_Amundsen.all.mb58.gz 24.42MB Kongsberg multibeam vendor format
0020_20130823_130400_Amundsen.all.mb58.gz 29.19MB Kongsberg multibeam vendor format
0020_20130826_043344_Amundsen.all.mb58.gz 58.12MB Kongsberg multibeam vendor format
0020_20130908_123643_Amundsen.all.mb58.gz 59.48MB Kongsberg multibeam vendor format
0020_20130913_053431_Amundsen.all.mb58.gz 38.92MB Kongsberg multibeam vendor format
0020_20130922_042911_Amundsen.all.mb58.gz 52.31MB Kongsberg multibeam vendor format
0020_20130928_225735_Amundsen.all.mb58.gz 37.17MB Kongsberg multibeam vendor format
0021_20130727_115451_Amundsen.all.mb58.gz 62.88MB Kongsberg multibeam vendor format
0021_20130730_070144_Amundsen.all.mb58.gz 53.00MB Kongsberg multibeam vendor format
0021_20130804_100253_Amundsen.all.mb58.gz 38.73MB Kongsberg multibeam vendor format
0021_20130813_155627_Amundsen.all.mb58.gz 17.90MB Kongsberg multibeam vendor format
0021_20130823_133400_Amundsen.all.mb58.gz 36.20MB Kongsberg multibeam vendor format
0021_20130826_050344_Amundsen.all.mb58.gz 58.20MB Kongsberg multibeam vendor format
0021_20130908_130645_Amundsen.all.mb58.gz 59.37MB Kongsberg multibeam vendor format
0021_20130913_060431_Amundsen.all.mb58.gz 37.32MB Kongsberg multibeam vendor format
0021_20130922_045912_Amundsen.all.mb58.gz 52.41MB Kongsberg multibeam vendor format
0021_20130928_232736_Amundsen.all.mb58.gz 36.31MB Kongsberg multibeam vendor format
0022_20130727_122451_Amundsen.all.mb58.gz 45.51MB Kongsberg multibeam vendor format
0022_20130730_073145_Amundsen.all.mb58.gz 48.05MB Kongsberg multibeam vendor format
0022_20130804_103257_Amundsen.all.mb58.gz 45.18MB Kongsberg multibeam vendor format
0022_20130814_041330_Amundsen.all.mb58.gz 21.53MB Kongsberg multibeam vendor format
0022_20130823_140400_Amundsen.all.mb58.gz 14.92MB Kongsberg multibeam vendor format
0022_20130826_053344_Amundsen.all.mb58.gz 58.06MB Kongsberg multibeam vendor format
0022_20130908_133642_Amundsen.all.mb58.gz 59.37MB Kongsberg multibeam vendor format
0022_20130913_063432_Amundsen.all.mb58.gz 37.35MB Kongsberg multibeam vendor format
0022_20130922_052911_Amundsen.all.mb58.gz 52.57MB Kongsberg multibeam vendor format
0022_20130928_235736_Amundsen.all.mb58.gz 37.37MB Kongsberg multibeam vendor format
0023_20130727_125452_Amundsen.all.mb58.gz 13.98MB Kongsberg multibeam vendor format
0023_20130730_080145_Amundsen.all.mb58.gz 49.39MB Kongsberg multibeam vendor format
0023_20130804_110255_Amundsen.all.mb58.gz 16.94MB Kongsberg multibeam vendor format
0023_20130814_105756_Amundsen.all.mb58.gz 27.88MB Kongsberg multibeam vendor format
0023_20130823_142710_Amundsen.all.mb58.gz 34.92MB Kongsberg multibeam vendor format
0023_20130826_060342_Amundsen.all.mb58.gz 58.60MB Kongsberg multibeam vendor format
0023_20130908_140643_Amundsen.all.mb58.gz 59.25MB Kongsberg multibeam vendor format
0023_20130913_070432_Amundsen.all.mb58.gz 37.68MB Kongsberg multibeam vendor format
0023_20130922_055912_Amundsen.all.mb58.gz 53.19MB Kongsberg multibeam vendor format
0023_20130929_002736_Amundsen.all.mb58.gz 48.18MB Kongsberg multibeam vendor format
0024_20130727_142859_Amundsen.all.mb58.gz 21.79MB Kongsberg multibeam vendor format
0024_20130730_083146_Amundsen.all.mb58.gz 55.53MB Kongsberg multibeam vendor format
0024_20130804_111307_Amundsen.all.mb58.gz 13.87MB Kongsberg multibeam vendor format
0024_20130814_112757_Amundsen.all.mb58.gz 22.30MB Kongsberg multibeam vendor format
0024_20130823_145711_Amundsen.all.mb58.gz 32.01MB Kongsberg multibeam vendor format
0024_20130826_063342_Amundsen.all.mb58.gz 57.62MB Kongsberg multibeam vendor format
0024_20130908_143644_Amundsen.all.mb58.gz 59.08MB Kongsberg multibeam vendor format
0024_20130913_073432_Amundsen.all.mb58.gz 32.56MB Kongsberg multibeam vendor format
0024_20130922_062911_Amundsen.all.mb58.gz 52.28MB Kongsberg multibeam vendor format
0024_20130929_005736_Amundsen.all.mb58.gz 50.03MB Kongsberg multibeam vendor format
0025_20130727_144750_Amundsen.all.mb58.gz 0.75MB Kongsberg multibeam vendor format
0025_20130730_090144_Amundsen.all.mb58.gz 65.54MB Kongsberg multibeam vendor format
0025_20130804_112246_Amundsen.all.mb58.gz 45.60MB Kongsberg multibeam vendor format
0025_20130814_133853_Amundsen.all.mb58.gz 25.20MB Kongsberg multibeam vendor format
0025_20130823_152710_Amundsen.all.mb58.gz 33.11MB Kongsberg multibeam vendor format
0025_20130826_070342_Amundsen.all.mb58.gz 59.00MB Kongsberg multibeam vendor format
0025_20130908_150643_Amundsen.all.mb58.gz 59.52MB Kongsberg multibeam vendor format
0025_20130913_080431_Amundsen.all.mb58.gz 32.10MB Kongsberg multibeam vendor format
0025_20130922_065912_Amundsen.all.mb58.gz 52.56MB Kongsberg multibeam vendor format
0025_20130929_012736_Amundsen.all.mb58.gz 49.78MB Kongsberg multibeam vendor format
0026_20130727_144828_Amundsen.all.mb58.gz 34.73MB Kongsberg multibeam vendor format
0026_20130730_093144_Amundsen.all.mb58.gz 69.39MB Kongsberg multibeam vendor format
0026_20130804_115246_Amundsen.all.mb58.gz 38.71MB Kongsberg multibeam vendor format
0026_20130814_140852_Amundsen.all.mb58.gz 25.91MB Kongsberg multibeam vendor format
0026_20130823_155712_Amundsen.all.mb58.gz 33.40MB Kongsberg multibeam vendor format
0026_20130826_073343_Amundsen.all.mb58.gz 58.08MB Kongsberg multibeam vendor format
0026_20130908_153643_Amundsen.all.mb58.gz 59.95MB Kongsberg multibeam vendor format
0026_20130913_083432_Amundsen.all.mb58.gz 30.94MB Kongsberg multibeam vendor format
0026_20130922_072911_Amundsen.all.mb58.gz 52.51MB Kongsberg multibeam vendor format
0026_20130929_015737_Amundsen.all.mb58.gz 52.94MB Kongsberg multibeam vendor format
0027_20130727_151827_Amundsen.all.mb58.gz 44.13MB Kongsberg multibeam vendor format
0027_20130730_100144_Amundsen.all.mb58.gz 66.31MB Kongsberg multibeam vendor format
0027_20130804_122245_Amundsen.all.mb58.gz 25.72MB Kongsberg multibeam vendor format
0027_20130814_143853_Amundsen.all.mb58.gz 7.97MB Kongsberg multibeam vendor format
0027_20130823_162710_Amundsen.all.mb58.gz 35.01MB Kongsberg multibeam vendor format
0027_20130826_080342_Amundsen.all.mb58.gz 57.16MB Kongsberg multibeam vendor format
0027_20130908_160643_Amundsen.all.mb58.gz 25.04MB Kongsberg multibeam vendor format
0027_20130913_090431_Amundsen.all.mb58.gz 30.10MB Kongsberg multibeam vendor format
0027_20130922_075911_Amundsen.all.mb58.gz 55.30MB Kongsberg multibeam vendor format
0027_20130929_022738_Amundsen.all.mb58.gz 52.93MB Kongsberg multibeam vendor format
0028_20130727_154828_Amundsen.all.mb58.gz 63.76MB Kongsberg multibeam vendor format
0028_20130730_103150_Amundsen.all.mb58.gz 111.25MB Kongsberg multibeam vendor format
0028_20130804_125245_Amundsen.all.mb58.gz 12.47MB Kongsberg multibeam vendor format
0028_20130814_160247_Amundsen.all.mb58.gz 25.28MB Kongsberg multibeam vendor format
0028_20130823_165712_Amundsen.all.mb58.gz 32.24MB Kongsberg multibeam vendor format
0028_20130826_083342_Amundsen.all.mb58.gz 62.82MB Kongsberg multibeam vendor format
0028_20130908_162656_Amundsen.all.mb58.gz 5.16MB Kongsberg multibeam vendor format
0028_20130913_093431_Amundsen.all.mb58.gz 34.61MB Kongsberg multibeam vendor format
0028_20130922_082911_Amundsen.all.mb58.gz 56.31MB Kongsberg multibeam vendor format
0028_20130929_025736_Amundsen.all.mb58.gz 53.04MB Kongsberg multibeam vendor format
0029_20130727_161827_Amundsen.all.mb58.gz 40.62MB Kongsberg multibeam vendor format
0029_20130730_110144_Amundsen.all.mb58.gz 128.33MB Kongsberg multibeam vendor format
0029_20130804_131245_Amundsen.all.mb58.gz 4.84MB Kongsberg multibeam vendor format
0029_20130814_163248_Amundsen.all.mb58.gz 30.07MB Kongsberg multibeam vendor format
0029_20130823_172710_Amundsen.all.mb58.gz 31.50MB Kongsberg multibeam vendor format
0029_20130826_090342_Amundsen.all.mb58.gz 63.64MB Kongsberg multibeam vendor format
0029_20130908_173201_Amundsen.all.mb58.gz 14.05MB Kongsberg multibeam vendor format
0029_20130913_100432_Amundsen.all.mb58.gz 41.26MB Kongsberg multibeam vendor format
0029_20130922_085912_Amundsen.all.mb58.gz 56.07MB Kongsberg multibeam vendor format
0029_20130929_032737_Amundsen.all.mb58.gz 53.39MB Kongsberg multibeam vendor format
0030_20130727_180657_Amundsen.all.mb58.gz 62.22MB Kongsberg multibeam vendor format
0030_20130730_113144_Amundsen.all.mb58.gz 115.77MB Kongsberg multibeam vendor format
0030_20130804_132003_Amundsen.all.mb58.gz 16.99MB Kongsberg multibeam vendor format
0030_20130814_170246_Amundsen.all.mb58.gz 31.29MB Kongsberg multibeam vendor format
0030_20130823_175710_Amundsen.all.mb58.gz 36.44MB Kongsberg multibeam vendor format
0030_20130826_093343_Amundsen.all.mb58.gz 63.45MB Kongsberg multibeam vendor format
0030_20130908_185243_Amundsen.all.mb58.gz 40.97MB Kongsberg multibeam vendor format
0030_20130913_103431_Amundsen.all.mb58.gz 35.72MB Kongsberg multibeam vendor format
0030_20130922_092911_Amundsen.all.mb58.gz 53.34MB Kongsberg multibeam vendor format
0030_20130929_035737_Amundsen.all.mb58.gz 52.68MB Kongsberg multibeam vendor format
0031_20130727_183657_Amundsen.all.mb58.gz 68.21MB Kongsberg multibeam vendor format
0031_20130730_120144_Amundsen.all.mb58.gz 23.34MB Kongsberg multibeam vendor format
0031_20130804_134640_Amundsen.all.mb58.gz 32.64MB Kongsberg multibeam vendor format
0031_20130814_173248_Amundsen.all.mb58.gz 34.49MB Kongsberg multibeam vendor format
0031_20130823_182711_Amundsen.all.mb58.gz 37.33MB Kongsberg multibeam vendor format
0031_20130826_100342_Amundsen.all.mb58.gz 63.68MB Kongsberg multibeam vendor format
0031_20130909_004658_Amundsen.all.mb58.gz 61.64MB Kongsberg multibeam vendor format
0031_20130913_110432_Amundsen.all.mb58.gz 32.83MB Kongsberg multibeam vendor format
0031_20130922_095912_Amundsen.all.mb58.gz 53.38MB Kongsberg multibeam vendor format
0031_20130929_042736_Amundsen.all.mb58.gz 52.37MB Kongsberg multibeam vendor format
0032_20130727_190658_Amundsen.all.mb58.gz 20.28MB Kongsberg multibeam vendor format
0032_20130727_201139_Amundsen.all.mb58.gz 45.81MB Kongsberg multibeam vendor format
0032_20130730_130022_Amundsen.all.mb58.gz 122.21MB Kongsberg multibeam vendor format
0032_20130804_141638_Amundsen.all.mb58.gz 23.22MB Kongsberg multibeam vendor format
0032_20130814_180247_Amundsen.all.mb58.gz 35.12MB Kongsberg multibeam vendor format
0032_20130823_185710_Amundsen.all.mb58.gz 32.00MB Kongsberg multibeam vendor format
0032_20130826_103343_Amundsen.all.mb58.gz 58.82MB Kongsberg multibeam vendor format
0032_20130909_011658_Amundsen.all.mb58.gz 62.09MB Kongsberg multibeam vendor format
0032_20130913_113431_Amundsen.all.mb58.gz 28.24MB Kongsberg multibeam vendor format
0032_20130922_102911_Amundsen.all.mb58.gz 52.40MB Kongsberg multibeam vendor format
0032_20130929_045737_Amundsen.all.mb58.gz 51.84MB Kongsberg multibeam vendor format
0033_20130727_204138_Amundsen.all.mb58.gz 53.22MB Kongsberg multibeam vendor format
0033_20130730_133022_Amundsen.all.mb58.gz 119.35MB Kongsberg multibeam vendor format
0033_20130804_191818_Amundsen.all.mb58.gz 4.47MB Kongsberg multibeam vendor format
0033_20130814_183246_Amundsen.all.mb58.gz 37.15MB Kongsberg multibeam vendor format
0033_20130824_001344_Amundsen.all.mb58.gz 18.38MB Kongsberg multibeam vendor format
0033_20130826_110343_Amundsen.all.mb58.gz 56.10MB Kongsberg multibeam vendor format
0033_20130909_014659_Amundsen.all.mb58.gz 59.93MB Kongsberg multibeam vendor format
0033_20130913_120431_Amundsen.all.mb58.gz 7.89MB Kongsberg multibeam vendor format
0033_20130922_105912_Amundsen.all.mb58.gz 38.49MB Kongsberg multibeam vendor format
0033_20130929_052737_Amundsen.all.mb58.gz 48.79MB Kongsberg multibeam vendor format
0034_20130727_211144_Amundsen.all.mb58.gz 63.39MB Kongsberg multibeam vendor format
0034_20130730_140022_Amundsen.all.mb58.gz 14.20MB Kongsberg multibeam vendor format
0034_20130804_204315_Amundsen.all.mb58.gz 42.51MB Kongsberg multibeam vendor format
0034_20130814_190246_Amundsen.all.mb58.gz 34.48MB Kongsberg multibeam vendor format
0034_20130824_003445_Amundsen.all.mb58.gz 34.87MB Kongsberg multibeam vendor format
0034_20130826_113344_Amundsen.all.mb58.gz 57.99MB Kongsberg multibeam vendor format
0034_20130909_021657_Amundsen.all.mb58.gz 59.03MB Kongsberg multibeam vendor format
0034_20130913_122545_Amundsen.all.mb58.gz 152.47MB Kongsberg multibeam vendor format
0034_20130922_112911_Amundsen.all.mb58.gz 33.06MB Kongsberg multibeam vendor format
0034_20130929_055737_Amundsen.all.mb58.gz 48.00MB Kongsberg multibeam vendor format
0035_20130727_214140_Amundsen.all.mb58.gz 64.10MB Kongsberg multibeam vendor format
0035_20130730_140607_Amundsen.all.mb58.gz 15.14MB Kongsberg multibeam vendor format
0035_20130804_211316_Amundsen.all.mb58.gz 21.78MB Kongsberg multibeam vendor format
0035_20130814_193246_Amundsen.all.mb58.gz 33.04MB Kongsberg multibeam vendor format
0035_20130824_010446_Amundsen.all.mb58.gz 34.13MB Kongsberg multibeam vendor format
0035_20130826_120344_Amundsen.all.mb58.gz 57.76MB Kongsberg multibeam vendor format
0035_20130909_024657_Amundsen.all.mb58.gz 58.09MB Kongsberg multibeam vendor format
0035_20130914_230053_Amundsen.all.mb58.gz 174.71MB Kongsberg multibeam vendor format
0035_20130922_115911_Amundsen.all.mb58.gz 34.77MB Kongsberg multibeam vendor format
0035_20130929_062737_Amundsen.all.mb58.gz 49.23MB Kongsberg multibeam vendor format
0036_20130727_221140_Amundsen.all.mb58.gz 65.78MB Kongsberg multibeam vendor format
0036_20130730_141632_Amundsen.all.mb58.gz 66.43MB Kongsberg multibeam vendor format
0036_20130804_213658_Amundsen.all.mb58.gz 24.50MB Kongsberg multibeam vendor format
0036_20130814_200250_Amundsen.all.mb58.gz 32.78MB Kongsberg multibeam vendor format
0036_20130824_013446_Amundsen.all.mb58.gz 34.07MB Kongsberg multibeam vendor format
0036_20130826_123346_Amundsen.all.mb58.gz 43.66MB Kongsberg multibeam vendor format
0036_20130909_031657_Amundsen.all.mb58.gz 59.13MB Kongsberg multibeam vendor format
0036_20130914_233053_Amundsen.all.mb58.gz 54.88MB Kongsberg multibeam vendor format
0036_20130922_122911_Amundsen.all.mb58.gz 47.36MB Kongsberg multibeam vendor format
0036_20130929_065737_Amundsen.all.mb58.gz 48.62MB Kongsberg multibeam vendor format
0037_20130727_224140_Amundsen.all.mb58.gz 21.84MB Kongsberg multibeam vendor format
0037_20130727_225328_Amundsen.all.mb58.gz 80.14MB Kongsberg multibeam vendor format
0037_20130730_144632_Amundsen.all.mb58.gz 74.69MB Kongsberg multibeam vendor format
0037_20130804_220655_Amundsen.all.mb58.gz 38.84MB Kongsberg multibeam vendor format
0037_20130814_203248_Amundsen.all.mb58.gz 15.00MB Kongsberg multibeam vendor format
0037_20130824_020445_Amundsen.all.mb58.gz 34.63MB Kongsberg multibeam vendor format
0037_20130826_130343_Amundsen.all.mb58.gz 42.74MB Kongsberg multibeam vendor format
0037_20130909_034658_Amundsen.all.mb58.gz 58.78MB Kongsberg multibeam vendor format
0037_20130914_234248_Amundsen.all.mb58.gz 21.55MB Kongsberg multibeam vendor format
0037_20130922_125912_Amundsen.all.mb58.gz 16.48MB Kongsberg multibeam vendor format
0037_20130929_072738_Amundsen.all.mb58.gz 48.65MB Kongsberg multibeam vendor format
0038_20130727_232328_Amundsen.all.mb58.gz 81.71MB Kongsberg multibeam vendor format
0038_20130730_151632_Amundsen.all.mb58.gz 72.70MB Kongsberg multibeam vendor format
0038_20130804_223655_Amundsen.all.mb58.gz 5.64MB Kongsberg multibeam vendor format
0038_20130814_210155_Amundsen.all.mb58.gz 6.94MB Kongsberg multibeam vendor format
0038_20130824_023446_Amundsen.all.mb58.gz 34.54MB Kongsberg multibeam vendor format
0038_20130826_133346_Amundsen.all.mb58.gz 46.78MB Kongsberg multibeam vendor format
0038_20130909_041657_Amundsen.all.mb58.gz 57.69MB Kongsberg multibeam vendor format
0038_20130914_234706_Amundsen.all.mb58.gz 152.04MB Kongsberg multibeam vendor format
0038_20130922_135147_Amundsen.all.mb58.gz 13.48MB Kongsberg multibeam vendor format
0038_20130929_075737_Amundsen.all.mb58.gz 47.37MB Kongsberg multibeam vendor format
0039_20130727_235328_Amundsen.all.mb58.gz 76.22MB Kongsberg multibeam vendor format
0039_20130730_154632_Amundsen.all.mb58.gz 89.71MB Kongsberg multibeam vendor format
0039_20130804_224101_Amundsen.all.mb58.gz 26.70MB Kongsberg multibeam vendor format
0039_20130814_225537_Amundsen.all.mb58.gz 32.80MB Kongsberg multibeam vendor format
0039_20130824_030445_Amundsen.all.mb58.gz 34.37MB Kongsberg multibeam vendor format
0039_20130826_140346_Amundsen.all.mb58.gz 52.98MB Kongsberg multibeam vendor format
0039_20130909_044657_Amundsen.all.mb58.gz 59.64MB Kongsberg multibeam vendor format
0039_20130915_001706_Amundsen.all.mb58.gz 156.82MB Kongsberg multibeam vendor format
0039_20130922_141505_Amundsen.all.mb58.gz 44.19MB Kongsberg multibeam vendor format
0039_20130929_082737_Amundsen.all.mb58.gz 47.30MB Kongsberg multibeam vendor format
0040_20130728_002328_Amundsen.all.mb58.gz 85.35MB Kongsberg multibeam vendor format
0040_20130730_161631_Amundsen.all.mb58.gz 67.94MB Kongsberg multibeam vendor format
0040_20130804_231017_Amundsen.all.mb58.gz 3.11MB Kongsberg multibeam vendor format
0040_20130814_232536_Amundsen.all.mb58.gz 32.54MB Kongsberg multibeam vendor format
0040_20130824_033445_Amundsen.all.mb58.gz 34.91MB Kongsberg multibeam vendor format
0040_20130826_143344_Amundsen.all.mb58.gz 55.36MB Kongsberg multibeam vendor format
0040_20130909_051658_Amundsen.all.mb58.gz 59.75MB Kongsberg multibeam vendor format
0040_20130915_004505_Amundsen.all.mb58.gz 21.13MB Kongsberg multibeam vendor format
0040_20130922_165230_Amundsen.all.mb58.gz 41.97MB Kongsberg multibeam vendor format
0040_20130929_085738_Amundsen.all.mb58.gz 48.90MB Kongsberg multibeam vendor format
0041_20130728_005328_Amundsen.all.mb58.gz 84.61MB Kongsberg multibeam vendor format
0041_20130730_164631_Amundsen.all.mb58.gz 68.08MB Kongsberg multibeam vendor format
0041_20130804_231608_Amundsen.all.mb58.gz 19.49MB Kongsberg multibeam vendor format
0041_20130814_235536_Amundsen.all.mb58.gz 32.78MB Kongsberg multibeam vendor format
0041_20130824_040447_Amundsen.all.mb58.gz 33.99MB Kongsberg multibeam vendor format
0041_20130826_150345_Amundsen.all.mb58.gz 55.42MB Kongsberg multibeam vendor format
0041_20130909_054658_Amundsen.all.mb58.gz 59.79MB Kongsberg multibeam vendor format
0041_20130915_005051_Amundsen.all.mb58.gz 154.76MB Kongsberg multibeam vendor format
0041_20130922_172226_Amundsen.all.mb58.gz 35.75MB Kongsberg multibeam vendor format
0041_20130929_092737_Amundsen.all.mb58.gz 48.78MB Kongsberg multibeam vendor format
0042_20130728_012328_Amundsen.all.mb58.gz 85.47MB Kongsberg multibeam vendor format
0042_20130730_171631_Amundsen.all.mb58.gz 71.47MB Kongsberg multibeam vendor format
0042_20130804_234610_Amundsen.all.mb58.gz 19.94MB Kongsberg multibeam vendor format
0042_20130815_002537_Amundsen.all.mb58.gz 33.10MB Kongsberg multibeam vendor format
0042_20130824_043445_Amundsen.all.mb58.gz 34.30MB Kongsberg multibeam vendor format
0042_20130826_153345_Amundsen.all.mb58.gz 54.24MB Kongsberg multibeam vendor format
0042_20130909_061657_Amundsen.all.mb58.gz 59.98MB Kongsberg multibeam vendor format
0042_20130915_012051_Amundsen.all.mb58.gz 160.28MB Kongsberg multibeam vendor format
0042_20130922_175226_Amundsen.all.mb58.gz 37.46MB Kongsberg multibeam vendor format
0042_20130929_095738_Amundsen.all.mb58.gz 47.84MB Kongsberg multibeam vendor format
0043_20130728_015328_Amundsen.all.mb58.gz 80.18MB Kongsberg multibeam vendor format
0043_20130730_174631_Amundsen.all.mb58.gz 72.77MB Kongsberg multibeam vendor format
0043_20130805_001609_Amundsen.all.mb58.gz 19.33MB Kongsberg multibeam vendor format
0043_20130815_005536_Amundsen.all.mb58.gz 33.42MB Kongsberg multibeam vendor format
0043_20130824_050446_Amundsen.all.mb58.gz 35.42MB Kongsberg multibeam vendor format
0043_20130826_160344_Amundsen.all.mb58.gz 53.32MB Kongsberg multibeam vendor format
0043_20130909_064657_Amundsen.all.mb58.gz 60.09MB Kongsberg multibeam vendor format
0043_20130915_015051_Amundsen.all.mb58.gz 24.82MB Kongsberg multibeam vendor format
0043_20130922_182226_Amundsen.all.mb58.gz 26.49MB Kongsberg multibeam vendor format
0043_20130929_102737_Amundsen.all.mb58.gz 44.95MB Kongsberg multibeam vendor format
0044_20130728_022333_Amundsen.all.mb58.gz 80.34MB Kongsberg multibeam vendor format
0044_20130730_181631_Amundsen.all.mb58.gz 73.95MB Kongsberg multibeam vendor format
0044_20130805_004609_Amundsen.all.mb58.gz 13.26MB Kongsberg multibeam vendor format
0044_20130815_012536_Amundsen.all.mb58.gz 34.71MB Kongsberg multibeam vendor format
0044_20130824_053445_Amundsen.all.mb58.gz 35.20MB Kongsberg multibeam vendor format
0044_20130826_163344_Amundsen.all.mb58.gz 50.52MB Kongsberg multibeam vendor format
0044_20130909_071657_Amundsen.all.mb58.gz 60.34MB Kongsberg multibeam vendor format
0044_20130915_015551_Amundsen.all.mb58.gz 29.23MB Kongsberg multibeam vendor format
0044_20130922_185226_Amundsen.all.mb58.gz 42.70MB Kongsberg multibeam vendor format
0044_20130929_105736_Amundsen.all.mb58.gz 45.95MB Kongsberg multibeam vendor format
0045_20130728_025328_Amundsen.all.mb58.gz 77.29MB Kongsberg multibeam vendor format
0045_20130730_184631_Amundsen.all.mb58.gz 115.34MB Kongsberg multibeam vendor format
0045_20130805_010557_Amundsen.all.mb58.gz 7.25MB Kongsberg multibeam vendor format
0045_20130815_015537_Amundsen.all.mb58.gz 35.64MB Kongsberg multibeam vendor format
0045_20130824_060445_Amundsen.all.mb58.gz 4.85MB Kongsberg multibeam vendor format
0045_20130826_170346_Amundsen.all.mb58.gz 52.82MB Kongsberg multibeam vendor format
0045_20130909_074657_Amundsen.all.mb58.gz 60.77MB Kongsberg multibeam vendor format
0045_20130915_020310_Amundsen.all.mb58.gz 138.80MB Kongsberg multibeam vendor format
0045_20130922_192225_Amundsen.all.mb58.gz 43.16MB Kongsberg multibeam vendor format
0045_20130929_112736_Amundsen.all.mb58.gz 51.03MB Kongsberg multibeam vendor format
0046_20130728_032327_Amundsen.all.mb58.gz 120.63MB Kongsberg multibeam vendor format
0046_20130730_191632_Amundsen.all.mb58.gz 108.42MB Kongsberg multibeam vendor format
0046_20130805_011643_Amundsen.all.mb58.gz 37.55MB Kongsberg multibeam vendor format
0046_20130815_022535_Amundsen.all.mb58.gz 36.70MB Kongsberg multibeam vendor format
0046_20130824_065110_Amundsen.all.mb58.gz 35.82MB Kongsberg multibeam vendor format
0046_20130826_173344_Amundsen.all.mb58.gz 54.89MB Kongsberg multibeam vendor format
0046_20130909_081658_Amundsen.all.mb58.gz 60.42MB Kongsberg multibeam vendor format
0046_20130915_023310_Amundsen.all.mb58.gz 139.81MB Kongsberg multibeam vendor format
0046_20130922_195226_Amundsen.all.mb58.gz 14.40MB Kongsberg multibeam vendor format
0046_20130929_115736_Amundsen.all.mb58.gz 47.61MB Kongsberg multibeam vendor format
0047_20130728_035328_Amundsen.all.mb58.gz 121.13MB Kongsberg multibeam vendor format
0047_20130730_194636_Amundsen.all.mb58.gz 14.33MB Kongsberg multibeam vendor format
0047_20130805_014644_Amundsen.all.mb58.gz 24.91MB Kongsberg multibeam vendor format
0047_20130815_025535_Amundsen.all.mb58.gz 39.20MB Kongsberg multibeam vendor format
0047_20130824_072111_Amundsen.all.mb58.gz 35.58MB Kongsberg multibeam vendor format
0047_20130826_180342_Amundsen.all.mb58.gz 64.55MB Kongsberg multibeam vendor format
0047_20130909_084657_Amundsen.all.mb58.gz 58.14MB Kongsberg multibeam vendor format
0047_20130915_030058_Amundsen.all.mb58.gz 16.40MB Kongsberg multibeam vendor format
0047_20130922_204840_Amundsen.all.mb58.gz 39.41MB Kongsberg multibeam vendor format
0047_20130929_122736_Amundsen.all.mb58.gz 37.63MB Kongsberg multibeam vendor format
0048_20130728_042328_Amundsen.all.mb58.gz 81.55MB Kongsberg multibeam vendor format
0048_20130731_041430_Amundsen.all.mb58.gz 47.11MB Kongsberg multibeam vendor format
0048_20130805_021644_Amundsen.all.mb58.gz 36.46MB Kongsberg multibeam vendor format
0048_20130815_032536_Amundsen.all.mb58.gz 40.80MB Kongsberg multibeam vendor format
0048_20130824_075110_Amundsen.all.mb58.gz 35.73MB Kongsberg multibeam vendor format
0048_20130826_183343_Amundsen.all.mb58.gz 82.62MB Kongsberg multibeam vendor format
0048_20130909_091657_Amundsen.all.mb58.gz 58.78MB Kongsberg multibeam vendor format
0048_20130915_030548_Amundsen.all.mb58.gz 142.73MB Kongsberg multibeam vendor format
0048_20130922_211841_Amundsen.all.mb58.gz 40.94MB Kongsberg multibeam vendor format
0048_20130929_125742_Amundsen.all.mb58.gz 34.43MB Kongsberg multibeam vendor format
0049_20130728_045328_Amundsen.all.mb58.gz 71.90MB Kongsberg multibeam vendor format
0049_20130731_044430_Amundsen.all.mb58.gz 18.09MB Kongsberg multibeam vendor format
0049_20130805_024644_Amundsen.all.mb58.gz 26.16MB Kongsberg multibeam vendor format
0049_20130815_035536_Amundsen.all.mb58.gz 40.77MB Kongsberg multibeam vendor format
0049_20130824_082110_Amundsen.all.mb58.gz 32.77MB Kongsberg multibeam vendor format
0049_20130826_190342_Amundsen.all.mb58.gz 65.58MB Kongsberg multibeam vendor format
0049_20130909_094657_Amundsen.all.mb58.gz 61.34MB Kongsberg multibeam vendor format
0049_20130915_033548_Amundsen.all.mb58.gz 132.68MB Kongsberg multibeam vendor format
0049_20130922_214841_Amundsen.all.mb58.gz 40.85MB Kongsberg multibeam vendor format
0049_20130929_132737_Amundsen.all.mb58.gz 36.85MB Kongsberg multibeam vendor format
0050_20130728_052327_Amundsen.all.mb58.gz 71.13MB Kongsberg multibeam vendor format
0050_20130731_052639_Amundsen.all.mb58.gz 102.76MB Kongsberg multibeam vendor format
0050_20130805_030803_Amundsen.all.mb58.gz 19.62MB Kongsberg multibeam vendor format
0050_20130815_042535_Amundsen.all.mb58.gz 38.74MB Kongsberg multibeam vendor format
0050_20130824_085110_Amundsen.all.mb58.gz 33.82MB Kongsberg multibeam vendor format
0050_20130826_193347_Amundsen.all.mb58.gz 56.91MB Kongsberg multibeam vendor format
0050_20130909_101657_Amundsen.all.mb58.gz 61.78MB Kongsberg multibeam vendor format
0050_20130915_040548_Amundsen.all.mb58.gz 7.69MB Kongsberg multibeam vendor format
0050_20130922_221840_Amundsen.all.mb58.gz 42.61MB Kongsberg multibeam vendor format
0050_20130929_135736_Amundsen.all.mb58.gz 75.02MB Kongsberg multibeam vendor format
0051_20130728_055328_Amundsen.all.mb58.gz 70.56MB Kongsberg multibeam vendor format
0051_20130731_055639_Amundsen.all.mb58.gz 53.84MB Kongsberg multibeam vendor format
0051_20130805_031943_Amundsen.all.mb58.gz 40.67MB Kongsberg multibeam vendor format
0051_20130815_045536_Amundsen.all.mb58.gz 37.22MB Kongsberg multibeam vendor format
0051_20130824_092110_Amundsen.all.mb58.gz 33.48MB Kongsberg multibeam vendor format
0051_20130826_200344_Amundsen.all.mb58.gz 54.34MB Kongsberg multibeam vendor format
0051_20130909_104657_Amundsen.all.mb58.gz 59.84MB Kongsberg multibeam vendor format
0051_20130915_040734_Amundsen.all.mb58.gz 21.36MB Kongsberg multibeam vendor format
0051_20130922_224841_Amundsen.all.mb58.gz 40.81MB Kongsberg multibeam vendor format
0051_20130929_142736_Amundsen.all.mb58.gz 67.40MB Kongsberg multibeam vendor format
0052_20130728_062328_Amundsen.all.mb58.gz 87.11MB Kongsberg multibeam vendor format
0052_20130731_064947_Amundsen.all.mb58.gz 77.84MB Kongsberg multibeam vendor format
0052_20130805_034949_Amundsen.all.mb58.gz 30.91MB Kongsberg multibeam vendor format
0052_20130815_052536_Amundsen.all.mb58.gz 34.96MB Kongsberg multibeam vendor format
0052_20130824_095110_Amundsen.all.mb58.gz 35.02MB Kongsberg multibeam vendor format
0052_20130826_203344_Amundsen.all.mb58.gz 52.63MB Kongsberg multibeam vendor format
0052_20130909_111657_Amundsen.all.mb58.gz 61.01MB Kongsberg multibeam vendor format
0052_20130915_041223_Amundsen.all.mb58.gz 136.26MB Kongsberg multibeam vendor format
0052_20130922_231840_Amundsen.all.mb58.gz 40.55MB Kongsberg multibeam vendor format
0052_20130929_145736_Amundsen.all.mb58.gz 19.76MB Kongsberg multibeam vendor format
0053_20130728_065328_Amundsen.all.mb58.gz 82.29MB Kongsberg multibeam vendor format
0053_20130731_071947_Amundsen.all.mb58.gz 108.52MB Kongsberg multibeam vendor format
0053_20130805_041950_Amundsen.all.mb58.gz 27.41MB Kongsberg multibeam vendor format
0053_20130815_055536_Amundsen.all.mb58.gz 21.43MB Kongsberg multibeam vendor format
0053_20130824_102115_Amundsen.all.mb58.gz 33.03MB Kongsberg multibeam vendor format
0053_20130826_210345_Amundsen.all.mb58.gz 52.78MB Kongsberg multibeam vendor format
0053_20130909_114658_Amundsen.all.mb58.gz 58.08MB Kongsberg multibeam vendor format
0053_20130915_044223_Amundsen.all.mb58.gz 118.35MB Kongsberg multibeam vendor format
0053_20130922_234840_Amundsen.all.mb58.gz 42.09MB Kongsberg multibeam vendor format
0053_20130929_152736_Amundsen.all.mb58.gz 30.38MB Kongsberg multibeam vendor format
0054_20130728_072328_Amundsen.all.mb58.gz 80.19MB Kongsberg multibeam vendor format
0054_20130731_074948_Amundsen.all.mb58.gz 75.94MB Kongsberg multibeam vendor format
0054_20130805_044951_Amundsen.all.mb58.gz 42.72MB Kongsberg multibeam vendor format
0054_20130815_062536_Amundsen.all.mb58.gz 35.43MB Kongsberg multibeam vendor format
0054_20130824_105110_Amundsen.all.mb58.gz 28.32MB Kongsberg multibeam vendor format
0054_20130826_213345_Amundsen.all.mb58.gz 52.59MB Kongsberg multibeam vendor format
0054_20130909_121657_Amundsen.all.mb58.gz 60.24MB Kongsberg multibeam vendor format
0054_20130915_050609_Amundsen.all.mb58.gz 33.68MB Kongsberg multibeam vendor format
0054_20130923_001840_Amundsen.all.mb58.gz 41.90MB Kongsberg multibeam vendor format
0054_20130929_155737_Amundsen.all.mb58.gz 49.91MB Kongsberg multibeam vendor format
0055_20130728_075328_Amundsen.all.mb58.gz 78.79MB Kongsberg multibeam vendor format
0055_20130731_113015_Amundsen.all.mb58.gz 104.27MB Kongsberg multibeam vendor format
0055_20130805_051304_Amundsen.all.mb58.gz 12.19MB Kongsberg multibeam vendor format
0055_20130815_065537_Amundsen.all.mb58.gz 35.89MB Kongsberg multibeam vendor format
0055_20130824_112110_Amundsen.all.mb58.gz 35.47MB Kongsberg multibeam vendor format
0055_20130826_220342_Amundsen.all.mb58.gz 52.96MB Kongsberg multibeam vendor format
0055_20130909_124658_Amundsen.all.mb58.gz 61.10MB Kongsberg multibeam vendor format
0055_20130915_051338_Amundsen.all.mb58.gz 142.58MB Kongsberg multibeam vendor format
0055_20130923_004840_Amundsen.all.mb58.gz 41.86MB Kongsberg multibeam vendor format
0055_20130929_162742_Amundsen.all.mb58.gz 46.59MB Kongsberg multibeam vendor format
0056_20130728_082333_Amundsen.all.mb58.gz 85.88MB Kongsberg multibeam vendor format
0056_20130731_120015_Amundsen.all.mb58.gz 84.63MB Kongsberg multibeam vendor format
0056_20130805_051732_Amundsen.all.mb58.gz 39.56MB Kongsberg multibeam vendor format
0056_20130815_072536_Amundsen.all.mb58.gz 29.12MB Kongsberg multibeam vendor format
0056_20130824_115110_Amundsen.all.mb58.gz 27.42MB Kongsberg multibeam vendor format
0056_20130826_223343_Amundsen.all.mb58.gz 41.24MB Kongsberg multibeam vendor format
0056_20130909_131657_Amundsen.all.mb58.gz 57.31MB Kongsberg multibeam vendor format
0056_20130915_054338_Amundsen.all.mb58.gz 132.54MB Kongsberg multibeam vendor format
0056_20130923_011841_Amundsen.all.mb58.gz 41.59MB Kongsberg multibeam vendor format
0056_20130929_165738_Amundsen.all.mb58.gz 42.06MB Kongsberg multibeam vendor format
0057_20130728_085328_Amundsen.all.mb58.gz 91.64MB Kongsberg multibeam vendor format
0057_20130731_123015_Amundsen.all.mb58.gz 89.84MB Kongsberg multibeam vendor format
0057_20130805_053354_Amundsen.all.mb58.gz 4.22MB Kongsberg multibeam vendor format
0057_20130815_075536_Amundsen.all.mb58.gz 8.26MB Kongsberg multibeam vendor format
0057_20130824_122110_Amundsen.all.mb58.gz 39.26MB Kongsberg multibeam vendor format
0057_20130826_225705_Amundsen.all.mb58.gz 30.61MB Kongsberg multibeam vendor format
0057_20130909_134658_Amundsen.all.mb58.gz 46.86MB Kongsberg multibeam vendor format
0057_20130915_061338_Amundsen.all.mb58.gz 13.54MB Kongsberg multibeam vendor format
0057_20130923_014840_Amundsen.all.mb58.gz 43.48MB Kongsberg multibeam vendor format
0057_20130929_172738_Amundsen.all.mb58.gz 45.71MB Kongsberg multibeam vendor format
0058_20130728_092328_Amundsen.all.mb58.gz 77.07MB Kongsberg multibeam vendor format
0058_20130731_130015_Amundsen.all.mb58.gz 42.70MB Kongsberg multibeam vendor format
0058_20130805_053655_Amundsen.all.mb58.gz 27.88MB Kongsberg multibeam vendor format
0058_20130815_185414_Amundsen.all.mb58.gz 7.93MB Kongsberg multibeam vendor format
0058_20130824_125110_Amundsen.all.mb58.gz 39.85MB Kongsberg multibeam vendor format
0058_20130826_231448_Amundsen.all.mb58.gz 50.65MB Kongsberg multibeam vendor format
0058_20130909_141721_Amundsen.all.mb58.gz 15.94MB Kongsberg multibeam vendor format
0058_20130915_061632_Amundsen.all.mb58.gz 112.64MB Kongsberg multibeam vendor format
0058_20130923_021841_Amundsen.all.mb58.gz 43.44MB Kongsberg multibeam vendor format
0058_20130929_175736_Amundsen.all.mb58.gz 45.18MB Kongsberg multibeam vendor format
0059_20130728_095328_Amundsen.all.mb58.gz 84.33MB Kongsberg multibeam vendor format
0059_20130731_133015_Amundsen.all.mb58.gz 82.03MB Kongsberg multibeam vendor format
0059_20130805_055455_Amundsen.all.mb58.gz 21.19MB Kongsberg multibeam vendor format
0059_20130815_203427_Amundsen.all.mb58.gz 24.21MB Kongsberg multibeam vendor format
0059_20130824_132110_Amundsen.all.mb58.gz 40.35MB Kongsberg multibeam vendor format
0059_20130826_234449_Amundsen.all.mb58.gz 51.89MB Kongsberg multibeam vendor format
0059_20130909_143628_Amundsen.all.mb58.gz 24.02MB Kongsberg multibeam vendor format
0059_20130915_064632_Amundsen.all.mb58.gz 104.01MB Kongsberg multibeam vendor format
0059_20130923_024840_Amundsen.all.mb58.gz 40.52MB Kongsberg multibeam vendor format
0059_20130929_182739_Amundsen.all.mb58.gz 44.08MB Kongsberg multibeam vendor format
0060_20130728_102333_Amundsen.all.mb58.gz 92.32MB Kongsberg multibeam vendor format
0060_20130731_140015_Amundsen.all.mb58.gz 48.36MB Kongsberg multibeam vendor format
0060_20130805_060245_Amundsen.all.mb58.gz 41.35MB Kongsberg multibeam vendor format
0060_20130805_062149_Amundsen.all.mb58.gz 3.61MB Kongsberg multibeam vendor format
0060_20130816_010634_Amundsen.all.mb58.gz 9.70MB Kongsberg multibeam vendor format
0060_20130824_135111_Amundsen.all.mb58.gz 29.53MB Kongsberg multibeam vendor format
0060_20130827_001448_Amundsen.all.mb58.gz 58.77MB Kongsberg multibeam vendor format
0060_20130909_163306_Amundsen.all.mb58.gz 57.45MB Kongsberg multibeam vendor format
0060_20130915_071632_Amundsen.all.mb58.gz 105.18MB Kongsberg multibeam vendor format
0060_20130923_031840_Amundsen.all.mb58.gz 39.50MB Kongsberg multibeam vendor format
0060_20130929_185736_Amundsen.all.mb58.gz 49.24MB Kongsberg multibeam vendor format
0061_20130728_105328_Amundsen.all.mb58.gz 76.79MB Kongsberg multibeam vendor format
0061_20130731_143015_Amundsen.all.mb58.gz 38.38MB Kongsberg multibeam vendor format
0061_20130805_062357_Amundsen.all.mb58.gz 38.07MB Kongsberg multibeam vendor format
0061_20130816_090844_Amundsen.all.mb58.gz 35.22MB Kongsberg multibeam vendor format
0061_20130824_142110_Amundsen.all.mb58.gz 29.14MB Kongsberg multibeam vendor format
0061_20130827_004448_Amundsen.all.mb58.gz 65.12MB Kongsberg multibeam vendor format
0061_20130909_170306_Amundsen.all.mb58.gz 59.44MB Kongsberg multibeam vendor format
0061_20130915_074632_Amundsen.all.mb58.gz 106.15MB Kongsberg multibeam vendor format
0061_20130923_034840_Amundsen.all.mb58.gz 40.70MB Kongsberg multibeam vendor format
0061_20130929_192738_Amundsen.all.mb58.gz 48.48MB Kongsberg multibeam vendor format
0062_20130728_112328_Amundsen.all.mb58.gz 78.25MB Kongsberg multibeam vendor format
0062_20130731_150015_Amundsen.all.mb58.gz 54.13MB Kongsberg multibeam vendor format
0062_20130805_065356_Amundsen.all.mb58.gz 7.42MB Kongsberg multibeam vendor format
0062_20130816_093844_Amundsen.all.mb58.gz 37.25MB Kongsberg multibeam vendor format
0062_20130824_145110_Amundsen.all.mb58.gz 29.47MB Kongsberg multibeam vendor format
0062_20130827_011448_Amundsen.all.mb58.gz 64.21MB Kongsberg multibeam vendor format
0062_20130909_173306_Amundsen.all.mb58.gz 21.80MB Kongsberg multibeam vendor format
0062_20130915_081632_Amundsen.all.mb58.gz 98.82MB Kongsberg multibeam vendor format
0062_20130923_041841_Amundsen.all.mb58.gz 40.48MB Kongsberg multibeam vendor format
0062_20130929_195737_Amundsen.all.mb58.gz 46.51MB Kongsberg multibeam vendor format
0063_20130728_115328_Amundsen.all.mb58.gz 78.76MB Kongsberg multibeam vendor format
0063_20130731_153015_Amundsen.all.mb58.gz 48.83MB Kongsberg multibeam vendor format
0063_20130805_070037_Amundsen.all.mb58.gz 3.08MB Kongsberg multibeam vendor format
0063_20130816_100845_Amundsen.all.mb58.gz 32.27MB Kongsberg multibeam vendor format
0063_20130824_152110_Amundsen.all.mb58.gz 28.80MB Kongsberg multibeam vendor format
0063_20130827_014448_Amundsen.all.mb58.gz 64.47MB Kongsberg multibeam vendor format
0063_20130909_184737_Amundsen.all.mb58.gz 1.41MB Kongsberg multibeam vendor format
0063_20130915_084632_Amundsen.all.mb58.gz 99.00MB Kongsberg multibeam vendor format
0063_20130923_044841_Amundsen.all.mb58.gz 38.92MB Kongsberg multibeam vendor format
0063_20130929_202737_Amundsen.all.mb58.gz 57.49MB Kongsberg multibeam vendor format
0064_20130728_122328_Amundsen.all.mb58.gz 70.01MB Kongsberg multibeam vendor format
0064_20130731_160015_Amundsen.all.mb58.gz 44.48MB Kongsberg multibeam vendor format
0064_20130805_072615_Amundsen.all.mb58.gz 23.18MB Kongsberg multibeam vendor format
0064_20130816_105511_Amundsen.all.mb58.gz 39.84MB Kongsberg multibeam vendor format
0064_20130824_155110_Amundsen.all.mb58.gz 27.90MB Kongsberg multibeam vendor format
0064_20130827_021448_Amundsen.all.mb58.gz 62.93MB Kongsberg multibeam vendor format
0064_20130909_184902_Amundsen.all.mb58.gz 4.30MB Kongsberg multibeam vendor format
0064_20130915_091632_Amundsen.all.mb58.gz 104.72MB Kongsberg multibeam vendor format
0064_20130923_051841_Amundsen.all.mb58.gz 38.70MB Kongsberg multibeam vendor format
0064_20130929_205736_Amundsen.all.mb58.gz 68.71MB Kongsberg multibeam vendor format
0065_20130728_125328_Amundsen.all.mb58.gz 88.94MB Kongsberg multibeam vendor format
0065_20130731_163015_Amundsen.all.mb58.gz 53.20MB Kongsberg multibeam vendor format
0065_20130805_100652_Amundsen.all.mb58.gz 19.33MB Kongsberg multibeam vendor format
0065_20130816_121734_Amundsen.all.mb58.gz 39.64MB Kongsberg multibeam vendor format
0065_20130824_162110_Amundsen.all.mb58.gz 29.06MB Kongsberg multibeam vendor format
0065_20130827_024448_Amundsen.all.mb58.gz 58.29MB Kongsberg multibeam vendor format
0065_20130909_221533_Amundsen.all.mb58.gz 23.11MB Kongsberg multibeam vendor format
0065_20130915_094632_Amundsen.all.mb58.gz 106.06MB Kongsberg multibeam vendor format
0065_20130923_054841_Amundsen.all.mb58.gz 38.90MB Kongsberg multibeam vendor format
0065_20130929_212736_Amundsen.all.mb58.gz 77.84MB Kongsberg multibeam vendor format
0066_20130728_132328_Amundsen.all.mb58.gz 54.34MB Kongsberg multibeam vendor format
0066_20130731_170015_Amundsen.all.mb58.gz 37.34MB Kongsberg multibeam vendor format
0066_20130805_103649_Amundsen.all.mb58.gz 20.00MB Kongsberg multibeam vendor format
0066_20130816_124735_Amundsen.all.mb58.gz 2.44MB Kongsberg multibeam vendor format
0066_20130824_165110_Amundsen.all.mb58.gz 29.56MB Kongsberg multibeam vendor format
0066_20130827_101316_Amundsen.all.mb58.gz 38.98MB Kongsberg multibeam vendor format
0066_20130909_223254_Amundsen.all.mb58.gz 18.96MB Kongsberg multibeam vendor format
0066_20130915_101632_Amundsen.all.mb58.gz 104.91MB Kongsberg multibeam vendor format
0066_20130923_061840_Amundsen.all.mb58.gz 39.01MB Kongsberg multibeam vendor format
0066_20130929_215736_Amundsen.all.mb58.gz 73.82MB Kongsberg multibeam vendor format
0067_20130728_135328_Amundsen.all.mb58.gz 51.45MB Kongsberg multibeam vendor format
0067_20130731_173016_Amundsen.all.mb58.gz 37.53MB Kongsberg multibeam vendor format
0067_20130805_110650_Amundsen.all.mb58.gz 15.64MB Kongsberg multibeam vendor format
0067_20130816_132019_Amundsen.all.mb58.gz 38.58MB Kongsberg multibeam vendor format
0067_20130824_172110_Amundsen.all.mb58.gz 29.44MB Kongsberg multibeam vendor format
0067_20130827_110056_Amundsen.all.mb58.gz 62.58MB Kongsberg multibeam vendor format
0067_20130909_224757_Amundsen.all.mb58.gz 55.48MB Kongsberg multibeam vendor format
0067_20130915_104632_Amundsen.all.mb58.gz 93.94MB Kongsberg multibeam vendor format
0067_20130923_064840_Amundsen.all.mb58.gz 39.08MB Kongsberg multibeam vendor format
0067_20130929_222736_Amundsen.all.mb58.gz 78.47MB Kongsberg multibeam vendor format
0068_20130728_144713_Amundsen.all.mb58.gz 52.73MB Kongsberg multibeam vendor format
0068_20130731_180015_Amundsen.all.mb58.gz 34.51MB Kongsberg multibeam vendor format
0068_20130805_114003_Amundsen.all.mb58.gz 1.1KB Kongsberg multibeam vendor format
0068_20130816_210131_Amundsen.all.mb58.gz 37.39MB Kongsberg multibeam vendor format
0068_20130824_175109_Amundsen.all.mb58.gz 26.67MB Kongsberg multibeam vendor format
0068_20130827_113056_Amundsen.all.mb58.gz 62.17MB Kongsberg multibeam vendor format
0068_20130909_231757_Amundsen.all.mb58.gz 5.74MB Kongsberg multibeam vendor format
0068_20130915_111632_Amundsen.all.mb58.gz 87.52MB Kongsberg multibeam vendor format
0068_20130923_071841_Amundsen.all.mb58.gz 37.43MB Kongsberg multibeam vendor format
0068_20130929_225736_Amundsen.all.mb58.gz 73.14MB Kongsberg multibeam vendor format
0069_20130728_151712_Amundsen.all.mb58.gz 55.48MB Kongsberg multibeam vendor format
0069_20130731_183043_Amundsen.all.mb58.gz 35.26MB Kongsberg multibeam vendor format
0069_20130805_123358_Amundsen.all.mb58.gz 37.34MB Kongsberg multibeam vendor format
0069_20130816_213131_Amundsen.all.mb58.gz 15.50MB Kongsberg multibeam vendor format
0069_20130824_182109_Amundsen.all.mb58.gz 23.19MB Kongsberg multibeam vendor format
0069_20130827_120056_Amundsen.all.mb58.gz 17.27MB Kongsberg multibeam vendor format
0069_20130910_003736_Amundsen.all.mb58.gz 12.14MB Kongsberg multibeam vendor format
0069_20130915_114633_Amundsen.all.mb58.gz 93.66MB Kongsberg multibeam vendor format
0069_20130923_074840_Amundsen.all.mb58.gz 36.80MB Kongsberg multibeam vendor format
0069_20130929_232736_Amundsen.all.mb58.gz 78.95MB Kongsberg multibeam vendor format
0070_20130728_154713_Amundsen.all.mb58.gz 75.67MB Kongsberg multibeam vendor format
0070_20130731_190042_Amundsen.all.mb58.gz 36.51MB Kongsberg multibeam vendor format
0070_20130805_130359_Amundsen.all.mb58.gz 36.97MB Kongsberg multibeam vendor format
0070_20130816_222421_Amundsen.all.mb58.gz 34.78MB Kongsberg multibeam vendor format
0070_20130824_185110_Amundsen.all.mb58.gz 21.54MB Kongsberg multibeam vendor format
0070_20130827_122508_Amundsen.all.mb58.gz 1.82MB Kongsberg multibeam vendor format
0070_20130910_005007_Amundsen.all.mb58.gz 57.40MB Kongsberg multibeam vendor format
0070_20130915_121632_Amundsen.all.mb58.gz 141.58MB Kongsberg multibeam vendor format
0070_20130923_081840_Amundsen.all.mb58.gz 39.88MB Kongsberg multibeam vendor format
0070_20130929_235736_Amundsen.all.mb58.gz 63.32MB Kongsberg multibeam vendor format
0071_20130728_161712_Amundsen.all.mb58.gz 90.01MB Kongsberg multibeam vendor format
0071_20130731_193042_Amundsen.all.mb58.gz 34.67MB Kongsberg multibeam vendor format
0071_20130805_133358_Amundsen.all.mb58.gz 28.41MB Kongsberg multibeam vendor format
0071_20130816_225421_Amundsen.all.mb58.gz 34.85MB Kongsberg multibeam vendor format
0071_20130824_192110_Amundsen.all.mb58.gz 16.50MB Kongsberg multibeam vendor format
0071_20130827_124102_Amundsen.all.mb58.gz 61.82MB Kongsberg multibeam vendor format
0071_20130910_012007_Amundsen.all.mb58.gz 56.61MB Kongsberg multibeam vendor format
0071_20130915_124632_Amundsen.all.mb58.gz 136.69MB Kongsberg multibeam vendor format
0071_20130923_084840_Amundsen.all.mb58.gz 33.65MB Kongsberg multibeam vendor format
0071_20130930_002736_Amundsen.all.mb58.gz 44.82MB Kongsberg multibeam vendor format
0072_20130728_164713_Amundsen.all.mb58.gz 85.13MB Kongsberg multibeam vendor format
0072_20130731_200042_Amundsen.all.mb58.gz 0.51MB Kongsberg multibeam vendor format
0072_20130805_140358_Amundsen.all.mb58.gz 26.25MB Kongsberg multibeam vendor format
0072_20130816_232421_Amundsen.all.mb58.gz 12.34MB Kongsberg multibeam vendor format
0072_20130824_195110_Amundsen.all.mb58.gz 17.70MB Kongsberg multibeam vendor format
0072_20130827_131104_Amundsen.all.mb58.gz 0.58MB Kongsberg multibeam vendor format
0072_20130910_015007_Amundsen.all.mb58.gz 61.15MB Kongsberg multibeam vendor format
0072_20130915_133236_Amundsen.all.mb58.gz 167.31MB Kongsberg multibeam vendor format
0072_20130923_091839_Amundsen.all.mb58.gz 33.53MB Kongsberg multibeam vendor format
0072_20130930_005736_Amundsen.all.mb58.gz 53.08MB Kongsberg multibeam vendor format
0073_20130728_171713_Amundsen.all.mb58.gz 85.66MB Kongsberg multibeam vendor format
0073_20130731_200106_Amundsen.all.mb58.gz 40.43MB Kongsberg multibeam vendor format
0073_20130805_143359_Amundsen.all.mb58.gz 28.47MB Kongsberg multibeam vendor format
0073_20130817_000626_Amundsen.all.mb58.gz 31.40MB Kongsberg multibeam vendor format
0073_20130824_202109_Amundsen.all.mb58.gz 23.04MB Kongsberg multibeam vendor format
0073_20130827_133451_Amundsen.all.mb58.gz 56.30MB Kongsberg multibeam vendor format
0073_20130910_022007_Amundsen.all.mb58.gz 56.81MB Kongsberg multibeam vendor format
0073_20130915_140236_Amundsen.all.mb58.gz 171.18MB Kongsberg multibeam vendor format
0073_20130923_094841_Amundsen.all.mb58.gz 31.53MB Kongsberg multibeam vendor format
0073_20130930_012736_Amundsen.all.mb58.gz 81.82MB Kongsberg multibeam vendor format
0074_20130728_174713_Amundsen.all.mb58.gz 77.98MB Kongsberg multibeam vendor format
0074_20130731_203106_Amundsen.all.mb58.gz 31.81MB Kongsberg multibeam vendor format
0074_20130805_150357_Amundsen.all.mb58.gz 29.96MB Kongsberg multibeam vendor format
0074_20130817_132312_Amundsen.all.mb58.gz 29.97MB Kongsberg multibeam vendor format
0074_20130824_205109_Amundsen.all.mb58.gz 18.38MB Kongsberg multibeam vendor format
0074_20130827_140454_Amundsen.all.mb58.gz 2.51MB Kongsberg multibeam vendor format
0074_20130910_025007_Amundsen.all.mb58.gz 58.43MB Kongsberg multibeam vendor format
0074_20130915_143236_Amundsen.all.mb58.gz 175.68MB Kongsberg multibeam vendor format
0074_20130923_101840_Amundsen.all.mb58.gz 34.98MB Kongsberg multibeam vendor format
0074_20130930_015737_Amundsen.all.mb58.gz 81.93MB Kongsberg multibeam vendor format
0075_20130728_181713_Amundsen.all.mb58.gz 56.73MB Kongsberg multibeam vendor format
0075_20130731_210107_Amundsen.all.mb58.gz 72.63MB Kongsberg multibeam vendor format
0075_20130805_153358_Amundsen.all.mb58.gz 31.27MB Kongsberg multibeam vendor format
0075_20130817_143234_Amundsen.all.mb58.gz 26.85MB Kongsberg multibeam vendor format
0075_20130824_212109_Amundsen.all.mb58.gz 13.31MB Kongsberg multibeam vendor format
0075_20130827_160040_Amundsen.all.mb58.gz 9.79MB Kongsberg multibeam vendor format
0075_20130910_032008_Amundsen.all.mb58.gz 59.86MB Kongsberg multibeam vendor format
0075_20130915_150236_Amundsen.all.mb58.gz 173.81MB Kongsberg multibeam vendor format
0075_20130923_104841_Amundsen.all.mb58.gz 35.23MB Kongsberg multibeam vendor format
0075_20130930_022737_Amundsen.all.mb58.gz 85.97MB Kongsberg multibeam vendor format
0076_20130728_184713_Amundsen.all.mb58.gz 60.12MB Kongsberg multibeam vendor format
0076_20130731_214533_Amundsen.all.mb58.gz 0.67MB Kongsberg multibeam vendor format
0076_20130805_160357_Amundsen.all.mb58.gz 31.72MB Kongsberg multibeam vendor format
0076_20130817_153147_Amundsen.all.mb58.gz 33.36MB Kongsberg multibeam vendor format
0076_20130824_215109_Amundsen.all.mb58.gz 14.12MB Kongsberg multibeam vendor format
0076_20130827_181536_Amundsen.all.mb58.gz 54.80MB Kongsberg multibeam vendor format
0076_20130910_035007_Amundsen.all.mb58.gz 59.48MB Kongsberg multibeam vendor format
0076_20130915_153236_Amundsen.all.mb58.gz 167.46MB Kongsberg multibeam vendor format
0076_20130923_111841_Amundsen.all.mb58.gz 38.67MB Kongsberg multibeam vendor format
0076_20130930_025742_Amundsen.all.mb58.gz 77.97MB Kongsberg multibeam vendor format
0077_20130728_191713_Amundsen.all.mb58.gz 65.19MB Kongsberg multibeam vendor format
0077_20130731_215604_Amundsen.all.mb58.gz 65.00MB Kongsberg multibeam vendor format
0077_20130805_163357_Amundsen.all.mb58.gz 31.96MB Kongsberg multibeam vendor format
0077_20130817_160146_Amundsen.all.mb58.gz 32.08MB Kongsberg multibeam vendor format
0077_20130824_222109_Amundsen.all.mb58.gz 17.07MB Kongsberg multibeam vendor format
0077_20130827_184536_Amundsen.all.mb58.gz 54.56MB Kongsberg multibeam vendor format
0077_20130910_042007_Amundsen.all.mb58.gz 59.82MB Kongsberg multibeam vendor format
0077_20130915_160236_Amundsen.all.mb58.gz 104.32MB Kongsberg multibeam vendor format
0077_20130923_114840_Amundsen.all.mb58.gz 31.72MB Kongsberg multibeam vendor format
0077_20130930_032736_Amundsen.all.mb58.gz 84.33MB Kongsberg multibeam vendor format
0078_20130728_194713_Amundsen.all.mb58.gz 71.00MB Kongsberg multibeam vendor format
0078_20130731_222604_Amundsen.all.mb58.gz 43.52MB Kongsberg multibeam vendor format
0078_20130805_170357_Amundsen.all.mb58.gz 32.38MB Kongsberg multibeam vendor format
0078_20130817_163145_Amundsen.all.mb58.gz 1.43MB Kongsberg multibeam vendor format
0078_20130824_225109_Amundsen.all.mb58.gz 24.48MB Kongsberg multibeam vendor format
0078_20130827_191538_Amundsen.all.mb58.gz 41.31MB Kongsberg multibeam vendor format
0078_20130910_045007_Amundsen.all.mb58.gz 59.74MB Kongsberg multibeam vendor format
0078_20130915_163236_Amundsen.all.mb58.gz 60.04MB Kongsberg multibeam vendor format
0078_20130923_121840_Amundsen.all.mb58.gz 30.99MB Kongsberg multibeam vendor format
0078_20130930_035736_Amundsen.all.mb58.gz 70.45MB Kongsberg multibeam vendor format
0079_20130728_201713_Amundsen.all.mb58.gz 71.35MB Kongsberg multibeam vendor format
0079_20130731_225603_Amundsen.all.mb58.gz 32.79MB Kongsberg multibeam vendor format
0079_20130805_173357_Amundsen.all.mb58.gz 32.23MB Kongsberg multibeam vendor format
0079_20130817_225556_Amundsen.all.mb58.gz 29.72MB Kongsberg multibeam vendor format
0079_20130824_232109_Amundsen.all.mb58.gz 21.44MB Kongsberg multibeam vendor format
0079_20130827_200929_Amundsen.all.mb58.gz 50.15MB Kongsberg multibeam vendor format
0079_20130910_052007_Amundsen.all.mb58.gz 59.86MB Kongsberg multibeam vendor format
0079_20130915_170236_Amundsen.all.mb58.gz 31.64MB Kongsberg multibeam vendor format
0079_20130923_124840_Amundsen.all.mb58.gz 4.94MB Kongsberg multibeam vendor format
0079_20130930_042738_Amundsen.all.mb58.gz 48.80MB Kongsberg multibeam vendor format
0080_20130728_204713_Amundsen.all.mb58.gz 71.45MB Kongsberg multibeam vendor format
0080_20130731_232603_Amundsen.all.mb58.gz 33.34MB Kongsberg multibeam vendor format
0080_20130805_180357_Amundsen.all.mb58.gz 31.08MB Kongsberg multibeam vendor format
0080_20130817_232555_Amundsen.all.mb58.gz 32.69MB Kongsberg multibeam vendor format
0080_20130824_235109_Amundsen.all.mb58.gz 23.62MB Kongsberg multibeam vendor format
0080_20130828_012218_Amundsen.all.mb58.gz 53.45MB Kongsberg multibeam vendor format
0080_20130910_055007_Amundsen.all.mb58.gz 59.98MB Kongsberg multibeam vendor format
0080_20130915_173236_Amundsen.all.mb58.gz 17.83MB Kongsberg multibeam vendor format
0080_20130923_140053_Amundsen.all.mb58.gz 1.12MB Kongsberg multibeam vendor format
0080_20130930_045738_Amundsen.all.mb58.gz 82.65MB Kongsberg multibeam vendor format
0081_20130728_211713_Amundsen.all.mb58.gz 75.85MB Kongsberg multibeam vendor format
0081_20130731_235604_Amundsen.all.mb58.gz 32.57MB Kongsberg multibeam vendor format
0081_20130805_183357_Amundsen.all.mb58.gz 30.56MB Kongsberg multibeam vendor format
0081_20130817_235555_Amundsen.all.mb58.gz 9.82MB Kongsberg multibeam vendor format
0081_20130825_002110_Amundsen.all.mb58.gz 27.35MB Kongsberg multibeam vendor format
0081_20130828_015217_Amundsen.all.mb58.gz 57.60MB Kongsberg multibeam vendor format
0081_20130910_062007_Amundsen.all.mb58.gz 60.51MB Kongsberg multibeam vendor format
0081_20130915_202256_Amundsen.all.mb58.gz 7.07MB Kongsberg multibeam vendor format
0081_20130923_230423_Amundsen.all.mb58.gz 38.10MB Kongsberg multibeam vendor format
0081_20130930_052736_Amundsen.all.mb58.gz 84.06MB Kongsberg multibeam vendor format
0082_20130728_214713_Amundsen.all.mb58.gz 74.23MB Kongsberg multibeam vendor format
0082_20130801_002603_Amundsen.all.mb58.gz 32.98MB Kongsberg multibeam vendor format
0082_20130805_190358_Amundsen.all.mb58.gz 30.43MB Kongsberg multibeam vendor format
0082_20130818_023451_Amundsen.all.mb58.gz 30.36MB Kongsberg multibeam vendor format
0082_20130825_005109_Amundsen.all.mb58.gz 25.74MB Kongsberg multibeam vendor format
0082_20130828_022216_Amundsen.all.mb58.gz 56.65MB Kongsberg multibeam vendor format
0082_20130910_065007_Amundsen.all.mb58.gz 60.95MB Kongsberg multibeam vendor format
0082_20130915_204433_Amundsen.all.mb58.gz 82.84MB Kongsberg multibeam vendor format
0082_20130923_233421_Amundsen.all.mb58.gz 27.40MB Kongsberg multibeam vendor format
0082_20130930_055737_Amundsen.all.mb58.gz 84.64MB Kongsberg multibeam vendor format
0083_20130728_221713_Amundsen.all.mb58.gz 70.96MB Kongsberg multibeam vendor format
0083_20130801_005603_Amundsen.all.mb58.gz 43.61MB Kongsberg multibeam vendor format
0083_20130805_193357_Amundsen.all.mb58.gz 35.70MB Kongsberg multibeam vendor format
0083_20130818_034830_Amundsen.all.mb58.gz 29.77MB Kongsberg multibeam vendor format
0083_20130825_012109_Amundsen.all.mb58.gz 25.12MB Kongsberg multibeam vendor format
0083_20130828_025217_Amundsen.all.mb58.gz 55.72MB Kongsberg multibeam vendor format
0083_20130910_072007_Amundsen.all.mb58.gz 60.69MB Kongsberg multibeam vendor format
0083_20130915_211433_Amundsen.all.mb58.gz 82.75MB Kongsberg multibeam vendor format
0083_20130924_000422_Amundsen.all.mb58.gz 29.66MB Kongsberg multibeam vendor format
0083_20130930_062736_Amundsen.all.mb58.gz 84.71MB Kongsberg multibeam vendor format
0084_20130728_224718_Amundsen.all.mb58.gz 71.04MB Kongsberg multibeam vendor format
0084_20130801_012603_Amundsen.all.mb58.gz 73.05MB Kongsberg multibeam vendor format
0084_20130805_200357_Amundsen.all.mb58.gz 36.75MB Kongsberg multibeam vendor format
0084_20130818_052358_Amundsen.all.mb58.gz 31.76MB Kongsberg multibeam vendor format
0084_20130825_015109_Amundsen.all.mb58.gz 29.19MB Kongsberg multibeam vendor format
0084_20130828_032218_Amundsen.all.mb58.gz 55.28MB Kongsberg multibeam vendor format
0084_20130910_075007_Amundsen.all.mb58.gz 60.75MB Kongsberg multibeam vendor format
0084_20130915_214433_Amundsen.all.mb58.gz 95.25MB Kongsberg multibeam vendor format
0084_20130924_003422_Amundsen.all.mb58.gz 41.51MB Kongsberg multibeam vendor format
0084_20130930_065737_Amundsen.all.mb58.gz 82.95MB Kongsberg multibeam vendor format
0085_20130728_231713_Amundsen.all.mb58.gz 68.92MB Kongsberg multibeam vendor format
0085_20130801_015605_Amundsen.all.mb58.gz 35.83MB Kongsberg multibeam vendor format
0085_20130805_203358_Amundsen.all.mb58.gz 36.74MB Kongsberg multibeam vendor format
0085_20130818_062659_Amundsen.all.mb58.gz 8.79MB Kongsberg multibeam vendor format
0085_20130825_022109_Amundsen.all.mb58.gz 15.64MB Kongsberg multibeam vendor format
0085_20130828_035218_Amundsen.all.mb58.gz 53.77MB Kongsberg multibeam vendor format
0085_20130910_082007_Amundsen.all.mb58.gz 59.84MB Kongsberg multibeam vendor format
0085_20130915_221432_Amundsen.all.mb58.gz 96.95MB Kongsberg multibeam vendor format
0085_20130924_010421_Amundsen.all.mb58.gz 46.76MB Kongsberg multibeam vendor format
0085_20130930_072736_Amundsen.all.mb58.gz 85.68MB Kongsberg multibeam vendor format
0086_20130728_234713_Amundsen.all.mb58.gz 63.61MB Kongsberg multibeam vendor format
0086_20130801_022603_Amundsen.all.mb58.gz 1.32MB Kongsberg multibeam vendor format
0086_20130805_210357_Amundsen.all.mb58.gz 36.73MB Kongsberg multibeam vendor format
0086_20130818_072435_Amundsen.all.mb58.gz 2.64MB Kongsberg multibeam vendor format
0086_20130825_025109_Amundsen.all.mb58.gz 27.00MB Kongsberg multibeam vendor format
0086_20130828_042216_Amundsen.all.mb58.gz 55.92MB Kongsberg multibeam vendor format
0086_20130910_085007_Amundsen.all.mb58.gz 59.41MB Kongsberg multibeam vendor format
0086_20130915_224432_Amundsen.all.mb58.gz 95.33MB Kongsberg multibeam vendor format
0086_20130924_013421_Amundsen.all.mb58.gz 47.34MB Kongsberg multibeam vendor format
0086_20130930_075736_Amundsen.all.mb58.gz 83.88MB Kongsberg multibeam vendor format
0087_20130729_001713_Amundsen.all.mb58.gz 91.83MB Kongsberg multibeam vendor format
0087_20130801_022814_Amundsen.all.mb58.gz 146.9KB Kongsberg multibeam vendor format
0087_20130805_213357_Amundsen.all.mb58.gz 37.78MB Kongsberg multibeam vendor format
0087_20130818_075123_Amundsen.all.mb58.gz 21.50MB Kongsberg multibeam vendor format
0087_20130825_032109_Amundsen.all.mb58.gz 26.12MB Kongsberg multibeam vendor format
0087_20130828_045217_Amundsen.all.mb58.gz 56.37MB Kongsberg multibeam vendor format
0087_20130910_092007_Amundsen.all.mb58.gz 59.32MB Kongsberg multibeam vendor format
0087_20130915_231432_Amundsen.all.mb58.gz 94.15MB Kongsberg multibeam vendor format
0087_20130924_020422_Amundsen.all.mb58.gz 45.36MB Kongsberg multibeam vendor format
0087_20130930_082736_Amundsen.all.mb58.gz 83.17MB Kongsberg multibeam vendor format
0088_20130729_004715_Amundsen.all.mb58.gz 109.25MB Kongsberg multibeam vendor format
0088_20130801_023026_Amundsen.all.mb58.gz 12.32MB Kongsberg multibeam vendor format
0088_20130805_220357_Amundsen.all.mb58.gz 38.15MB Kongsberg multibeam vendor format
0088_20130818_083340_Amundsen.all.mb58.gz 29.93MB Kongsberg multibeam vendor format
0088_20130825_035109_Amundsen.all.mb58.gz 24.68MB Kongsberg multibeam vendor format
0088_20130828_052217_Amundsen.all.mb58.gz 56.89MB Kongsberg multibeam vendor format
0088_20130910_095007_Amundsen.all.mb58.gz 59.07MB Kongsberg multibeam vendor format
0088_20130915_234432_Amundsen.all.mb58.gz 100.12MB Kongsberg multibeam vendor format
0088_20130924_023423_Amundsen.all.mb58.gz 45.79MB Kongsberg multibeam vendor format
0088_20130930_085737_Amundsen.all.mb58.gz 84.57MB Kongsberg multibeam vendor format
0089_20130729_011713_Amundsen.all.mb58.gz 118.78MB Kongsberg multibeam vendor format
0089_20130801_025537_Amundsen.all.mb58.gz 27.43MB Kongsberg multibeam vendor format
0089_20130805_223358_Amundsen.all.mb58.gz 38.23MB Kongsberg multibeam vendor format
0089_20130818_090342_Amundsen.all.mb58.gz 9.76MB Kongsberg multibeam vendor format
0089_20130825_042109_Amundsen.all.mb58.gz 2.72MB Kongsberg multibeam vendor format
0089_20130828_055216_Amundsen.all.mb58.gz 57.15MB Kongsberg multibeam vendor format
0089_20130910_102008_Amundsen.all.mb58.gz 58.58MB Kongsberg multibeam vendor format
0089_20130916_001432_Amundsen.all.mb58.gz 103.45MB Kongsberg multibeam vendor format
0089_20130924_030421_Amundsen.all.mb58.gz 47.53MB Kongsberg multibeam vendor format
0089_20130930_092736_Amundsen.all.mb58.gz 92.91MB Kongsberg multibeam vendor format
0090_20130729_014713_Amundsen.all.mb58.gz 108.71MB Kongsberg multibeam vendor format
0090_20130801_032535_Amundsen.all.mb58.gz 28.17MB Kongsberg multibeam vendor format
0090_20130805_230358_Amundsen.all.mb58.gz 35.76MB Kongsberg multibeam vendor format
0090_20130818_200843_Amundsen.all.mb58.gz 20.39MB Kongsberg multibeam vendor format
0090_20130825_055309_Amundsen.all.mb58.gz 27.59MB Kongsberg multibeam vendor format
0090_20130828_062216_Amundsen.all.mb58.gz 57.52MB Kongsberg multibeam vendor format
0090_20130910_105009_Amundsen.all.mb58.gz 58.14MB Kongsberg multibeam vendor format
0090_20130916_004432_Amundsen.all.mb58.gz 105.56MB Kongsberg multibeam vendor format
0090_20130924_033423_Amundsen.all.mb58.gz 44.75MB Kongsberg multibeam vendor format
0090_20130930_095736_Amundsen.all.mb58.gz 84.48MB Kongsberg multibeam vendor format
0091_20130729_021713_Amundsen.all.mb58.gz 102.86MB Kongsberg multibeam vendor format
0091_20130801_035538_Amundsen.all.mb58.gz 2.48MB Kongsberg multibeam vendor format
0091_20130805_233357_Amundsen.all.mb58.gz 36.35MB Kongsberg multibeam vendor format
0091_20130818_235925_Amundsen.all.mb58.gz 14.51MB Kongsberg multibeam vendor format
0091_20130825_062309_Amundsen.all.mb58.gz 0.94MB Kongsberg multibeam vendor format
0091_20130828_065218_Amundsen.all.mb58.gz 58.47MB Kongsberg multibeam vendor format
0091_20130910_112007_Amundsen.all.mb58.gz 58.22MB Kongsberg multibeam vendor format
0091_20130916_011432_Amundsen.all.mb58.gz 103.82MB Kongsberg multibeam vendor format
0091_20130924_040423_Amundsen.all.mb58.gz 46.46MB Kongsberg multibeam vendor format
0091_20130930_102736_Amundsen.all.mb58.gz 84.43MB Kongsberg multibeam vendor format
0092_20130729_024713_Amundsen.all.mb58.gz 106.76MB Kongsberg multibeam vendor format
0092_20130801_040956_Amundsen.all.mb58.gz 26.49MB Kongsberg multibeam vendor format
0092_20130806_000357_Amundsen.all.mb58.gz 36.61MB Kongsberg multibeam vendor format
0092_20130819_004021_Amundsen.all.mb58.gz 29.83MB Kongsberg multibeam vendor format
0092_20130825_130125_Amundsen.all.mb58.gz 37.99MB Kongsberg multibeam vendor format
0092_20130828_072219_Amundsen.all.mb58.gz 58.05MB Kongsberg multibeam vendor format
0092_20130910_115007_Amundsen.all.mb58.gz 58.24MB Kongsberg multibeam vendor format
0092_20130916_014432_Amundsen.all.mb58.gz 147.07MB Kongsberg multibeam vendor format
0092_20130924_043421_Amundsen.all.mb58.gz 45.48MB Kongsberg multibeam vendor format
0092_20130930_105736_Amundsen.all.mb58.gz 82.18MB Kongsberg multibeam vendor format
0093_20130729_031713_Amundsen.all.mb58.gz 110.32MB Kongsberg multibeam vendor format
0093_20130801_043955_Amundsen.all.mb58.gz 49.29MB Kongsberg multibeam vendor format
0093_20130806_003357_Amundsen.all.mb58.gz 38.13MB Kongsberg multibeam vendor format
0093_20130819_011021_Amundsen.all.mb58.gz 11.01MB Kongsberg multibeam vendor format
0093_20130825_133125_Amundsen.all.mb58.gz 3.10MB Kongsberg multibeam vendor format
0093_20130828_075219_Amundsen.all.mb58.gz 20.69MB Kongsberg multibeam vendor format
0093_20130910_122008_Amundsen.all.mb58.gz 58.21MB Kongsberg multibeam vendor format
0093_20130916_021432_Amundsen.all.mb58.gz 146.39MB Kongsberg multibeam vendor format
0093_20130924_050421_Amundsen.all.mb58.gz 45.62MB Kongsberg multibeam vendor format
0093_20130930_112736_Amundsen.all.mb58.gz 81.87MB Kongsberg multibeam vendor format
0094_20130729_034718_Amundsen.all.mb58.gz 113.58MB Kongsberg multibeam vendor format
0094_20130801_050956_Amundsen.all.mb58.gz 2.02MB Kongsberg multibeam vendor format
0094_20130806_010357_Amundsen.all.mb58.gz 38.27MB Kongsberg multibeam vendor format
0094_20130819_021912_Amundsen.all.mb58.gz 31.24MB Kongsberg multibeam vendor format
0094_20130828_120437_Amundsen.all.mb58.gz 58.81MB Kongsberg multibeam vendor format
0094_20130910_125007_Amundsen.all.mb58.gz 57.84MB Kongsberg multibeam vendor format
0094_20130916_024432_Amundsen.all.mb58.gz 101.52MB Kongsberg multibeam vendor format
0094_20130924_053422_Amundsen.all.mb58.gz 44.36MB Kongsberg multibeam vendor format
0094_20130930_115736_Amundsen.all.mb58.gz 81.80MB Kongsberg multibeam vendor format
0095_20130729_041718_Amundsen.all.mb58.gz 89.31MB Kongsberg multibeam vendor format
0095_20130801_052011_Amundsen.all.mb58.gz 22.47MB Kongsberg multibeam vendor format
0095_20130806_013357_Amundsen.all.mb58.gz 39.29MB Kongsberg multibeam vendor format
0095_20130819_035037_Amundsen.all.mb58.gz 30.76MB Kongsberg multibeam vendor format
0095_20130828_123437_Amundsen.all.mb58.gz 22.04MB Kongsberg multibeam vendor format
0095_20130910_132008_Amundsen.all.mb58.gz 58.27MB Kongsberg multibeam vendor format
0095_20130916_031432_Amundsen.all.mb58.gz 102.02MB Kongsberg multibeam vendor format
0095_20130924_060422_Amundsen.all.mb58.gz 45.79MB Kongsberg multibeam vendor format
0095_20130930_122736_Amundsen.all.mb58.gz 82.59MB Kongsberg multibeam vendor format
0096_20130729_044713_Amundsen.all.mb58.gz 88.97MB Kongsberg multibeam vendor format
0096_20130801_061035_Amundsen.all.mb58.gz 36.74MB Kongsberg multibeam vendor format
0096_20130806_020357_Amundsen.all.mb58.gz 40.36MB Kongsberg multibeam vendor format
0096_20130819_042035_Amundsen.all.mb58.gz 25.45MB Kongsberg multibeam vendor format
0096_20130828_141744_Amundsen.all.mb58.gz 59.02MB Kongsberg multibeam vendor format
0096_20130910_135008_Amundsen.all.mb58.gz 58.48MB Kongsberg multibeam vendor format
0096_20130916_034432_Amundsen.all.mb58.gz 101.97MB Kongsberg multibeam vendor format
0096_20130924_063422_Amundsen.all.mb58.gz 45.74MB Kongsberg multibeam vendor format
0096_20130930_125737_Amundsen.all.mb58.gz 84.50MB Kongsberg multibeam vendor format
0097_20130729_051714_Amundsen.all.mb58.gz 94.66MB Kongsberg multibeam vendor format
0097_20130801_064035_Amundsen.all.mb58.gz 2.99MB Kongsberg multibeam vendor format
0097_20130806_023357_Amundsen.all.mb58.gz 41.39MB Kongsberg multibeam vendor format
0097_20130819_045036_Amundsen.all.mb58.gz 23.73MB Kongsberg multibeam vendor format
0097_20130828_144745_Amundsen.all.mb58.gz 60.49MB Kongsberg multibeam vendor format
0097_20130910_142007_Amundsen.all.mb58.gz 57.69MB Kongsberg multibeam vendor format
0097_20130916_041432_Amundsen.all.mb58.gz 142.52MB Kongsberg multibeam vendor format
0097_20130924_070421_Amundsen.all.mb58.gz 44.91MB Kongsberg multibeam vendor format
0097_20130930_132737_Amundsen.all.mb58.gz 82.80MB Kongsberg multibeam vendor format
0098_20130729_054713_Amundsen.all.mb58.gz 102.95MB Kongsberg multibeam vendor format
0098_20130801_065923_Amundsen.all.mb58.gz 41.85MB Kongsberg multibeam vendor format
0098_20130806_030358_Amundsen.all.mb58.gz 41.14MB Kongsberg multibeam vendor format
0098_20130819_055404_Amundsen.all.mb58.gz 10.23MB Kongsberg multibeam vendor format
0098_20130828_151744_Amundsen.all.mb58.gz 56.98MB Kongsberg multibeam vendor format
0098_20130910_145007_Amundsen.all.mb58.gz 57.23MB Kongsberg multibeam vendor format
0098_20130916_044432_Amundsen.all.mb58.gz 141.86MB Kongsberg multibeam vendor format
0098_20130924_073423_Amundsen.all.mb58.gz 45.47MB Kongsberg multibeam vendor format
0098_20130930_135736_Amundsen.all.mb58.gz 84.30MB Kongsberg multibeam vendor format
0099_20130729_061713_Amundsen.all.mb58.gz 219.29MB Kongsberg multibeam vendor format
0099_20130801_072923_Amundsen.all.mb58.gz 34.10MB Kongsberg multibeam vendor format
0099_20130806_033358_Amundsen.all.mb58.gz 39.87MB Kongsberg multibeam vendor format
0099_20130819_062712_Amundsen.all.mb58.gz 30.94MB Kongsberg multibeam vendor format
0099_20130828_154744_Amundsen.all.mb58.gz 51.92MB Kongsberg multibeam vendor format
0099_20130910_152007_Amundsen.all.mb58.gz 57.61MB Kongsberg multibeam vendor format
0099_20130916_051432_Amundsen.all.mb58.gz 117.64MB Kongsberg multibeam vendor format
0099_20130924_080422_Amundsen.all.mb58.gz 45.02MB Kongsberg multibeam vendor format
0099_20130930_142736_Amundsen.all.mb58.gz 78.58MB Kongsberg multibeam vendor format
0100_20130801_114718_Amundsen.all.mb58.gz 10.47MB Kongsberg multibeam vendor format
0100_20130806_040357_Amundsen.all.mb58.gz 37.42MB Kongsberg multibeam vendor format
0100_20130819_065711_Amundsen.all.mb58.gz 34.16MB Kongsberg multibeam vendor format
0100_20130828_161746_Amundsen.all.mb58.gz 40.70MB Kongsberg multibeam vendor format
0100_20130910_155007_Amundsen.all.mb58.gz 57.73MB Kongsberg multibeam vendor format
0100_20130916_054432_Amundsen.all.mb58.gz 102.04MB Kongsberg multibeam vendor format
0100_20130924_083422_Amundsen.all.mb58.gz 45.11MB Kongsberg multibeam vendor format
0100_20130930_145737_Amundsen.all.mb58.gz 49.27MB Kongsberg multibeam vendor format
0101_20130729_071718_Amundsen.all.mb58.gz 93.32MB Kongsberg multibeam vendor format
0101_20130801_142132_Amundsen.all.mb58.gz 42.62MB Kongsberg multibeam vendor format
0101_20130806_043357_Amundsen.all.mb58.gz 36.53MB Kongsberg multibeam vendor format
0101_20130819_072712_Amundsen.all.mb58.gz 26.54MB Kongsberg multibeam vendor format
0101_20130828_165937_Amundsen.all.mb58.gz 59.23MB Kongsberg multibeam vendor format
0101_20130910_162007_Amundsen.all.mb58.gz 57.73MB Kongsberg multibeam vendor format
0101_20130916_061432_Amundsen.all.mb58.gz 101.37MB Kongsberg multibeam vendor format
0101_20130924_090422_Amundsen.all.mb58.gz 44.80MB Kongsberg multibeam vendor format
0101_20130930_152739_Amundsen.all.mb58.gz 38.39MB Kongsberg multibeam vendor format
0102_20130729_074718_Amundsen.all.mb58.gz 110.44MB Kongsberg multibeam vendor format
0102_20130801_145132_Amundsen.all.mb58.gz 11.19MB Kongsberg multibeam vendor format
0102_20130806_050358_Amundsen.all.mb58.gz 35.63MB Kongsberg multibeam vendor format
0102_20130819_084859_Amundsen.all.mb58.gz 4.89MB Kongsberg multibeam vendor format
0102_20130828_172938_Amundsen.all.mb58.gz 14.39MB Kongsberg multibeam vendor format
0102_20130910_165008_Amundsen.all.mb58.gz 56.61MB Kongsberg multibeam vendor format
0102_20130916_064432_Amundsen.all.mb58.gz 101.44MB Kongsberg multibeam vendor format
0102_20130924_093422_Amundsen.all.mb58.gz 45.40MB Kongsberg multibeam vendor format
0102_20130930_155736_Amundsen.all.mb58.gz 50.89MB Kongsberg multibeam vendor format
0103_20130729_081713_Amundsen.all.mb58.gz 103.32MB Kongsberg multibeam vendor format
0103_20130801_153137_Amundsen.all.mb58.gz 41.30MB Kongsberg multibeam vendor format
0103_20130806_053358_Amundsen.all.mb58.gz 34.72MB Kongsberg multibeam vendor format
0103_20130819_091628_Amundsen.all.mb58.gz 1.74MB Kongsberg multibeam vendor format
0103_20130828_224004_Amundsen.all.mb58.gz 59.44MB Kongsberg multibeam vendor format
0103_20130910_172007_Amundsen.all.mb58.gz 55.21MB Kongsberg multibeam vendor format
0103_20130916_071432_Amundsen.all.mb58.gz 101.58MB Kongsberg multibeam vendor format
0103_20130924_100427_Amundsen.all.mb58.gz 45.41MB Kongsberg multibeam vendor format
0103_20130930_162739_Amundsen.all.mb58.gz 53.38MB Kongsberg multibeam vendor format
0104_20130729_084718_Amundsen.all.mb58.gz 96.19MB Kongsberg multibeam vendor format
0104_20130801_160137_Amundsen.all.mb58.gz 49.24MB Kongsberg multibeam vendor format
0104_20130806_060357_Amundsen.all.mb58.gz 34.56MB Kongsberg multibeam vendor format
0104_20130819_092200_Amundsen.all.mb58.gz 15.17MB Kongsberg multibeam vendor format
0104_20130828_231005_Amundsen.all.mb58.gz 59.49MB Kongsberg multibeam vendor format
0104_20130910_175007_Amundsen.all.mb58.gz 55.24MB Kongsberg multibeam vendor format
0104_20130916_074432_Amundsen.all.mb58.gz 159.24MB Kongsberg multibeam vendor format
0104_20130924_103423_Amundsen.all.mb58.gz 46.21MB Kongsberg multibeam vendor format
0104_20130930_165737_Amundsen.all.mb58.gz 58.16MB Kongsberg multibeam vendor format
0105_20130729_091721_Amundsen.all.mb58.gz 98.75MB Kongsberg multibeam vendor format
0105_20130801_163138_Amundsen.all.mb58.gz 20.96MB Kongsberg multibeam vendor format
0105_20130806_063357_Amundsen.all.mb58.gz 26.64MB Kongsberg multibeam vendor format
0105_20130819_095201_Amundsen.all.mb58.gz 31.36MB Kongsberg multibeam vendor format
0105_20130828_234005_Amundsen.all.mb58.gz 2.36MB Kongsberg multibeam vendor format
0105_20130910_182007_Amundsen.all.mb58.gz 53.99MB Kongsberg multibeam vendor format
0105_20130916_081432_Amundsen.all.mb58.gz 208.77MB Kongsberg multibeam vendor format
0105_20130924_110422_Amundsen.all.mb58.gz 45.87MB Kongsberg multibeam vendor format
0105_20130930_172737_Amundsen.all.mb58.gz 42.85MB Kongsberg multibeam vendor format
0106_20130729_094713_Amundsen.all.mb58.gz 117.13MB Kongsberg multibeam vendor format
0106_20130801_171802_Amundsen.all.mb58.gz 38.01MB Kongsberg multibeam vendor format
0106_20130806_065632_Amundsen.all.mb58.gz 36.43MB Kongsberg multibeam vendor format
0106_20130819_102200_Amundsen.all.mb58.gz 21.84MB Kongsberg multibeam vendor format
0106_20130829_011546_Amundsen.all.mb58.gz 60.02MB Kongsberg multibeam vendor format
0106_20130910_185007_Amundsen.all.mb58.gz 56.99MB Kongsberg multibeam vendor format
0106_20130916_084432_Amundsen.all.mb58.gz 176.81MB Kongsberg multibeam vendor format
0106_20130924_113422_Amundsen.all.mb58.gz 44.88MB Kongsberg multibeam vendor format
0106_20130930_175738_Amundsen.all.mb58.gz 26.98MB Kongsberg multibeam vendor format
0107_20130729_101713_Amundsen.all.mb58.gz 96.27MB Kongsberg multibeam vendor format
0107_20130802_010611_Amundsen.all.mb58.gz 39.01MB Kongsberg multibeam vendor format
0107_20130806_072633_Amundsen.all.mb58.gz 22.12MB Kongsberg multibeam vendor format
0107_20130819_105159_Amundsen.all.mb58.gz 32.17MB Kongsberg multibeam vendor format
0107_20130829_014545_Amundsen.all.mb58.gz 44.24MB Kongsberg multibeam vendor format
0107_20130910_192007_Amundsen.all.mb58.gz 57.16MB Kongsberg multibeam vendor format
0107_20130916_091432_Amundsen.all.mb58.gz 125.53MB Kongsberg multibeam vendor format
0107_20130924_120422_Amundsen.all.mb58.gz 45.17MB Kongsberg multibeam vendor format
0107_20130930_182740_Amundsen.all.mb58.gz 25.31MB Kongsberg multibeam vendor format
0108_20130729_104713_Amundsen.all.mb58.gz 81.00MB Kongsberg multibeam vendor format
0108_20130802_013611_Amundsen.all.mb58.gz 45.40MB Kongsberg multibeam vendor format
0108_20130806_074502_Amundsen.all.mb58.gz 8.20MB Kongsberg multibeam vendor format
0108_20130819_112159_Amundsen.all.mb58.gz 19.32MB Kongsberg multibeam vendor format
0108_20130829_051121_Amundsen.all.mb58.gz 59.42MB Kongsberg multibeam vendor format
0108_20130910_195007_Amundsen.all.mb58.gz 59.06MB Kongsberg multibeam vendor format
0108_20130916_094432_Amundsen.all.mb58.gz 101.83MB Kongsberg multibeam vendor format
0108_20130924_123421_Amundsen.all.mb58.gz 44.21MB Kongsberg multibeam vendor format
0108_20130930_185741_Amundsen.all.mb58.gz 25.45MB Kongsberg multibeam vendor format
0109_20130729_111713_Amundsen.all.mb58.gz 68.90MB Kongsberg multibeam vendor format
0109_20130802_020611_Amundsen.all.mb58.gz 33.42MB Kongsberg multibeam vendor format
0109_20130806_075205_Amundsen.all.mb58.gz 33.74MB Kongsberg multibeam vendor format
0109_20130819_115159_Amundsen.all.mb58.gz 19.88MB Kongsberg multibeam vendor format
0109_20130829_054121_Amundsen.all.mb58.gz 59.78MB Kongsberg multibeam vendor format
0109_20130910_202007_Amundsen.all.mb58.gz 56.66MB Kongsberg multibeam vendor format
0109_20130916_101432_Amundsen.all.mb58.gz 181.16MB Kongsberg multibeam vendor format
0109_20130924_130422_Amundsen.all.mb58.gz 44.54MB Kongsberg multibeam vendor format
0109_20130930_192740_Amundsen.all.mb58.gz 23.70MB Kongsberg multibeam vendor format
0110_20130729_114714_Amundsen.all.mb58.gz 64.67MB Kongsberg multibeam vendor format
0110_20130802_023611_Amundsen.all.mb58.gz 33.44MB Kongsberg multibeam vendor format
0110_20130806_082206_Amundsen.all.mb58.gz 19.84MB Kongsberg multibeam vendor format
0110_20130819_122200_Amundsen.all.mb58.gz 26.28MB Kongsberg multibeam vendor format
0110_20130829_061120_Amundsen.all.mb58.gz 62.00MB Kongsberg multibeam vendor format
0110_20130910_205008_Amundsen.all.mb58.gz 58.12MB Kongsberg multibeam vendor format
0110_20130916_104432_Amundsen.all.mb58.gz 52.51MB Kongsberg multibeam vendor format
0110_20130924_133422_Amundsen.all.mb58.gz 43.69MB Kongsberg multibeam vendor format
0110_20130930_195740_Amundsen.all.mb58.gz 23.25MB Kongsberg multibeam vendor format
0111_20130729_121714_Amundsen.all.mb58.gz 63.27MB Kongsberg multibeam vendor format
0111_20130802_030611_Amundsen.all.mb58.gz 34.08MB Kongsberg multibeam vendor format
0111_20130806_083905_Amundsen.all.mb58.gz 9.24MB Kongsberg multibeam vendor format
0111_20130819_125159_Amundsen.all.mb58.gz 22.54MB Kongsberg multibeam vendor format
0111_20130829_064121_Amundsen.all.mb58.gz 63.72MB Kongsberg multibeam vendor format
0111_20130910_212007_Amundsen.all.mb58.gz 60.67MB Kongsberg multibeam vendor format
0111_20130919_230856_Amundsen.all.mb58.gz 168.08MB Kongsberg multibeam vendor format
0111_20130924_140422_Amundsen.all.mb58.gz 42.47MB Kongsberg multibeam vendor format
0111_20130930_202736_Amundsen.all.mb58.gz 19.40MB Kongsberg multibeam vendor format
0112_20130729_124714_Amundsen.all.mb58.gz 63.64MB Kongsberg multibeam vendor format
0112_20130802_033611_Amundsen.all.mb58.gz 36.95MB Kongsberg multibeam vendor format
0112_20130806_084634_Amundsen.all.mb58.gz 37.77MB Kongsberg multibeam vendor format
0112_20130819_132159_Amundsen.all.mb58.gz 24.60MB Kongsberg multibeam vendor format
0112_20130829_071120_Amundsen.all.mb58.gz 65.71MB Kongsberg multibeam vendor format
0112_20130910_215007_Amundsen.all.mb58.gz 63.69MB Kongsberg multibeam vendor format
0112_20130919_233856_Amundsen.all.mb58.gz 109.02MB Kongsberg multibeam vendor format
0112_20130924_143421_Amundsen.all.mb58.gz 43.86MB Kongsberg multibeam vendor format
0112_20130930_205739_Amundsen.all.mb58.gz 17.94MB Kongsberg multibeam vendor format
0113_20130729_131714_Amundsen.all.mb58.gz 63.54MB Kongsberg multibeam vendor format
0113_20130802_040619_Amundsen.all.mb58.gz 33.68MB Kongsberg multibeam vendor format
0113_20130806_091634_Amundsen.all.mb58.gz 25.17MB Kongsberg multibeam vendor format
0113_20130819_135159_Amundsen.all.mb58.gz 24.01MB Kongsberg multibeam vendor format
0113_20130829_074119_Amundsen.all.mb58.gz 66.37MB Kongsberg multibeam vendor format
0113_20130910_222007_Amundsen.all.mb58.gz 58.98MB Kongsberg multibeam vendor format
0113_20130920_000857_Amundsen.all.mb58.gz 111.62MB Kongsberg multibeam vendor format
0113_20130924_150427_Amundsen.all.mb58.gz 305.07MB Kongsberg multibeam vendor format
0113_20130930_212737_Amundsen.all.mb58.gz 17.47MB Kongsberg multibeam vendor format
0114_20130729_134718_Amundsen.all.mb58.gz 59.59MB Kongsberg multibeam vendor format
0114_20130802_043611_Amundsen.all.mb58.gz 34.16MB Kongsberg multibeam vendor format
0114_20130806_093653_Amundsen.all.mb58.gz 10.96MB Kongsberg multibeam vendor format
0114_20130819_142159_Amundsen.all.mb58.gz 13.55MB Kongsberg multibeam vendor format
0114_20130829_081120_Amundsen.all.mb58.gz 65.66MB Kongsberg multibeam vendor format
0114_20130910_225007_Amundsen.all.mb58.gz 52.18MB Kongsberg multibeam vendor format
0114_20130920_003856_Amundsen.all.mb58.gz 103.67MB Kongsberg multibeam vendor format
0114_20130924_183646_Amundsen.all.mb58.gz 55.80MB Kongsberg multibeam vendor format
0114_20130930_215739_Amundsen.all.mb58.gz 20.38MB Kongsberg multibeam vendor format
0115_20130729_141713_Amundsen.all.mb58.gz 60.00MB Kongsberg multibeam vendor format
0115_20130802_050612_Amundsen.all.mb58.gz 32.86MB Kongsberg multibeam vendor format
0115_20130806_094547_Amundsen.all.mb58.gz 35.23MB Kongsberg multibeam vendor format
0115_20130819_145159_Amundsen.all.mb58.gz 12.63MB Kongsberg multibeam vendor format
0115_20130829_084119_Amundsen.all.mb58.gz 64.75MB Kongsberg multibeam vendor format
0115_20130910_232007_Amundsen.all.mb58.gz 52.24MB Kongsberg multibeam vendor format
0115_20130920_010856_Amundsen.all.mb58.gz 94.60MB Kongsberg multibeam vendor format
0115_20130924_190647_Amundsen.all.mb58.gz 55.60MB Kongsberg multibeam vendor format
0115_20130930_222737_Amundsen.all.mb58.gz 19.12MB Kongsberg multibeam vendor format
0116_20130729_144713_Amundsen.all.mb58.gz 58.84MB Kongsberg multibeam vendor format
0116_20130802_053616_Amundsen.all.mb58.gz 33.65MB Kongsberg multibeam vendor format
0116_20130806_101547_Amundsen.all.mb58.gz 23.52MB Kongsberg multibeam vendor format
0116_20130819_152200_Amundsen.all.mb58.gz 22.85MB Kongsberg multibeam vendor format
0116_20130829_091119_Amundsen.all.mb58.gz 65.03MB Kongsberg multibeam vendor format
0116_20130910_235007_Amundsen.all.mb58.gz 48.37MB Kongsberg multibeam vendor format
0116_20130920_013857_Amundsen.all.mb58.gz 97.09MB Kongsberg multibeam vendor format
0116_20130924_193644_Amundsen.all.mb58.gz 55.67MB Kongsberg multibeam vendor format
0116_20130930_225736_Amundsen.all.mb58.gz 21.42MB Kongsberg multibeam vendor format
0117_20130729_151713_Amundsen.all.mb58.gz 62.47MB Kongsberg multibeam vendor format
0117_20130802_060611_Amundsen.all.mb58.gz 34.54MB Kongsberg multibeam vendor format
0117_20130806_103550_Amundsen.all.mb58.gz 18.08MB Kongsberg multibeam vendor format
0117_20130819_155159_Amundsen.all.mb58.gz 25.24MB Kongsberg multibeam vendor format
0117_20130829_094119_Amundsen.all.mb58.gz 65.87MB Kongsberg multibeam vendor format
0117_20130911_002008_Amundsen.all.mb58.gz 53.76MB Kongsberg multibeam vendor format
0117_20130920_020857_Amundsen.all.mb58.gz 92.65MB Kongsberg multibeam vendor format
0117_20130924_200646_Amundsen.all.mb58.gz 55.48MB Kongsberg multibeam vendor format
0117_20130930_232738_Amundsen.all.mb58.gz 21.63MB Kongsberg multibeam vendor format
0118_20130729_154714_Amundsen.all.mb58.gz 64.47MB Kongsberg multibeam vendor format
0118_20130802_063611_Amundsen.all.mb58.gz 36.27MB Kongsberg multibeam vendor format
0118_20130806_105108_Amundsen.all.mb58.gz 35.56MB Kongsberg multibeam vendor format
0118_20130819_162200_Amundsen.all.mb58.gz 29.62MB Kongsberg multibeam vendor format
0118_20130829_101120_Amundsen.all.mb58.gz 66.16MB Kongsberg multibeam vendor format
0118_20130911_005007_Amundsen.all.mb58.gz 58.07MB Kongsberg multibeam vendor format
0118_20130920_023856_Amundsen.all.mb58.gz 169.66MB Kongsberg multibeam vendor format
0118_20130924_203645_Amundsen.all.mb58.gz 55.49MB Kongsberg multibeam vendor format
0118_20130930_235740_Amundsen.all.mb58.gz 21.88MB Kongsberg multibeam vendor format
0119_20130729_161713_Amundsen.all.mb58.gz 65.37MB Kongsberg multibeam vendor format
0119_20130802_070611_Amundsen.all.mb58.gz 37.09MB Kongsberg multibeam vendor format
0119_20130806_112106_Amundsen.all.mb58.gz 25.18MB Kongsberg multibeam vendor format
0119_20130819_165200_Amundsen.all.mb58.gz 26.80MB Kongsberg multibeam vendor format
0119_20130829_104121_Amundsen.all.mb58.gz 64.90MB Kongsberg multibeam vendor format
0119_20130911_012007_Amundsen.all.mb58.gz 61.74MB Kongsberg multibeam vendor format
0119_20130920_030856_Amundsen.all.mb58.gz 129.89MB Kongsberg multibeam vendor format
0119_20130924_210647_Amundsen.all.mb58.gz 55.92MB Kongsberg multibeam vendor format
0119_20131001_002736_Amundsen.all.mb58.gz 21.14MB Kongsberg multibeam vendor format
0120_20130729_164713_Amundsen.all.mb58.gz 69.68MB Kongsberg multibeam vendor format
0120_20130802_073612_Amundsen.all.mb58.gz 38.40MB Kongsberg multibeam vendor format
0120_20130806_114235_Amundsen.all.mb58.gz 6.39MB Kongsberg multibeam vendor format
0120_20130819_172200_Amundsen.all.mb58.gz 29.22MB Kongsberg multibeam vendor format
0120_20130829_111119_Amundsen.all.mb58.gz 64.62MB Kongsberg multibeam vendor format
0120_20130911_015007_Amundsen.all.mb58.gz 43.87MB Kongsberg multibeam vendor format
0120_20130920_033856_Amundsen.all.mb58.gz 140.96MB Kongsberg multibeam vendor format
0120_20130924_213645_Amundsen.all.mb58.gz 55.86MB Kongsberg multibeam vendor format
0120_20131001_005736_Amundsen.all.mb58.gz 33.48MB Kongsberg multibeam vendor format
0121_20130729_171713_Amundsen.all.mb58.gz 62.66MB Kongsberg multibeam vendor format
0121_20130802_080612_Amundsen.all.mb58.gz 38.86MB Kongsberg multibeam vendor format
0121_20130806_114849_Amundsen.all.mb58.gz 31.85MB Kongsberg multibeam vendor format
0121_20130819_175200_Amundsen.all.mb58.gz 30.19MB Kongsberg multibeam vendor format
0121_20130829_114120_Amundsen.all.mb58.gz 64.57MB Kongsberg multibeam vendor format
0121_20130911_022008_Amundsen.all.mb58.gz 51.14MB Kongsberg multibeam vendor format
0121_20130920_040856_Amundsen.all.mb58.gz 86.34MB Kongsberg multibeam vendor format
0121_20130924_220645_Amundsen.all.mb58.gz 55.63MB Kongsberg multibeam vendor format
0121_20131001_012737_Amundsen.all.mb58.gz 29.23MB Kongsberg multibeam vendor format
0122_20130729_174713_Amundsen.all.mb58.gz 67.00MB Kongsberg multibeam vendor format
0122_20130802_083612_Amundsen.all.mb58.gz 37.85MB Kongsberg multibeam vendor format
0122_20130806_121851_Amundsen.all.mb58.gz 27.12MB Kongsberg multibeam vendor format
0122_20130819_182730_Amundsen.all.mb58.gz 22.80MB Kongsberg multibeam vendor format
0122_20130829_121119_Amundsen.all.mb58.gz 66.59MB Kongsberg multibeam vendor format
0122_20130911_025008_Amundsen.all.mb58.gz 46.22MB Kongsberg multibeam vendor format
0122_20130920_043856_Amundsen.all.mb58.gz 28.60MB Kongsberg multibeam vendor format
0122_20130924_223646_Amundsen.all.mb58.gz 56.08MB Kongsberg multibeam vendor format
0122_20131001_015739_Amundsen.all.mb58.gz 38.50MB Kongsberg multibeam vendor format
0123_20130729_181713_Amundsen.all.mb58.gz 74.00MB Kongsberg multibeam vendor format
0123_20130802_090612_Amundsen.all.mb58.gz 36.27MB Kongsberg multibeam vendor format
0123_20130806_124335_Amundsen.all.mb58.gz 34.49MB Kongsberg multibeam vendor format
0123_20130819_185200_Amundsen.all.mb58.gz 27.15MB Kongsberg multibeam vendor format
0123_20130829_124119_Amundsen.all.mb58.gz 66.97MB Kongsberg multibeam vendor format
0123_20130911_032008_Amundsen.all.mb58.gz 61.48MB Kongsberg multibeam vendor format
0123_20130920_050856_Amundsen.all.mb58.gz 28.60MB Kongsberg multibeam vendor format
0123_20130924_230647_Amundsen.all.mb58.gz 55.63MB Kongsberg multibeam vendor format
0123_20131001_022736_Amundsen.all.mb58.gz 27.67MB Kongsberg multibeam vendor format
0124_20130729_184714_Amundsen.all.mb58.gz 73.82MB Kongsberg multibeam vendor format
0124_20130802_093611_Amundsen.all.mb58.gz 36.36MB Kongsberg multibeam vendor format
0124_20130806_131334_Amundsen.all.mb58.gz 9.62MB Kongsberg multibeam vendor format
0124_20130819_192159_Amundsen.all.mb58.gz 29.58MB Kongsberg multibeam vendor format
0124_20130829_131119_Amundsen.all.mb58.gz 65.61MB Kongsberg multibeam vendor format
0124_20130911_035007_Amundsen.all.mb58.gz 60.70MB Kongsberg multibeam vendor format
0124_20130920_053856_Amundsen.all.mb58.gz 28.59MB Kongsberg multibeam vendor format
0124_20130924_233645_Amundsen.all.mb58.gz 55.49MB Kongsberg multibeam vendor format
0124_20131001_025736_Amundsen.all.mb58.gz 32.99MB Kongsberg multibeam vendor format
0125_20130729_191714_Amundsen.all.mb58.gz 40.16MB Kongsberg multibeam vendor format
0125_20130802_100611_Amundsen.all.mb58.gz 36.26MB Kongsberg multibeam vendor format
0125_20130806_132154_Amundsen.all.mb58.gz 7.52MB Kongsberg multibeam vendor format
0125_20130819_195159_Amundsen.all.mb58.gz 31.97MB Kongsberg multibeam vendor format
0125_20130829_134119_Amundsen.all.mb58.gz 60.34MB Kongsberg multibeam vendor format
0125_20130911_042007_Amundsen.all.mb58.gz 53.47MB Kongsberg multibeam vendor format
0125_20130920_060856_Amundsen.all.mb58.gz 47.98MB Kongsberg multibeam vendor format
0125_20130925_000645_Amundsen.all.mb58.gz 55.91MB Kongsberg multibeam vendor format
0125_20131001_032736_Amundsen.all.mb58.gz 31.27MB Kongsberg multibeam vendor format
0126_20130802_103611_Amundsen.all.mb58.gz 36.56MB Kongsberg multibeam vendor format
0126_20130806_132742_Amundsen.all.mb58.gz 16.68MB Kongsberg multibeam vendor format
0126_20130819_202159_Amundsen.all.mb58.gz 31.96MB Kongsberg multibeam vendor format
0126_20130829_141120_Amundsen.all.mb58.gz 57.82MB Kongsberg multibeam vendor format
0126_20130911_045007_Amundsen.all.mb58.gz 43.44MB Kongsberg multibeam vendor format
0126_20130920_063856_Amundsen.all.mb58.gz 28.60MB Kongsberg multibeam vendor format
0126_20130925_003646_Amundsen.all.mb58.gz 56.01MB Kongsberg multibeam vendor format
0126_20131001_035737_Amundsen.all.mb58.gz 31.69MB Kongsberg multibeam vendor format
0127_20130802_110612_Amundsen.all.mb58.gz 35.18MB Kongsberg multibeam vendor format
0127_20130806_134055_Amundsen.all.mb58.gz 19.90MB Kongsberg multibeam vendor format
0127_20130819_205159_Amundsen.all.mb58.gz 32.55MB Kongsberg multibeam vendor format
0127_20130829_144119_Amundsen.all.mb58.gz 56.12MB Kongsberg multibeam vendor format
0127_20130911_052007_Amundsen.all.mb58.gz 61.25MB Kongsberg multibeam vendor format
0127_20130920_070856_Amundsen.all.mb58.gz 28.59MB Kongsberg multibeam vendor format
0127_20130925_010645_Amundsen.all.mb58.gz 55.94MB Kongsberg multibeam vendor format
0127_20131001_042736_Amundsen.all.mb58.gz 33.04MB Kongsberg multibeam vendor format
0128_20130802_113611_Amundsen.all.mb58.gz 28.16MB Kongsberg multibeam vendor format
0128_20130806_135957_Amundsen.all.mb58.gz 19.15MB Kongsberg multibeam vendor format
0128_20130819_212200_Amundsen.all.mb58.gz 28.04MB Kongsberg multibeam vendor format
0128_20130829_151119_Amundsen.all.mb58.gz 55.45MB Kongsberg multibeam vendor format
0128_20130911_055009_Amundsen.all.mb58.gz 11.40MB Kongsberg multibeam vendor format
0128_20130920_073856_Amundsen.all.mb58.gz 28.60MB Kongsberg multibeam vendor format
0128_20130925_013644_Amundsen.all.mb58.gz 55.90MB Kongsberg multibeam vendor format
0128_20131001_045736_Amundsen.all.mb58.gz 27.85MB Kongsberg multibeam vendor format
0129_20130802_132203_Amundsen.all.mb58.gz 31.12MB Kongsberg multibeam vendor format
0129_20130806_142955_Amundsen.all.mb58.gz 16.94MB Kongsberg multibeam vendor format
0129_20130819_215159_Amundsen.all.mb58.gz 34.14MB Kongsberg multibeam vendor format
0129_20130829_154119_Amundsen.all.mb58.gz 51.82MB Kongsberg multibeam vendor format
0129_20130920_080856_Amundsen.all.mb58.gz 69.15MB Kongsberg multibeam vendor format
0129_20130925_020646_Amundsen.all.mb58.gz 55.95MB Kongsberg multibeam vendor format
0129_20131001_052736_Amundsen.all.mb58.gz 32.97MB Kongsberg multibeam vendor format
0130_20130802_135204_Amundsen.all.mb58.gz 13.06MB Kongsberg multibeam vendor format
0130_20130806_145956_Amundsen.all.mb58.gz 6.51MB Kongsberg multibeam vendor format
0130_20130819_222200_Amundsen.all.mb58.gz 28.54MB Kongsberg multibeam vendor format
0130_20130829_161120_Amundsen.all.mb58.gz 60.68MB Kongsberg multibeam vendor format
0130_20130920_083857_Amundsen.all.mb58.gz 90.97MB Kongsberg multibeam vendor format
0130_20130925_023646_Amundsen.all.mb58.gz 56.23MB Kongsberg multibeam vendor format
0130_20131001_055737_Amundsen.all.mb58.gz 30.31MB Kongsberg multibeam vendor format
0131_20130802_152434_Amundsen.all.mb58.gz 34.95MB Kongsberg multibeam vendor format
0131_20130806_151211_Amundsen.all.mb58.gz 20.37MB Kongsberg multibeam vendor format
0131_20130819_225159_Amundsen.all.mb58.gz 32.07MB Kongsberg multibeam vendor format
0131_20130829_164120_Amundsen.all.mb58.gz 61.64MB Kongsberg multibeam vendor format
0131_20130920_090856_Amundsen.all.mb58.gz 99.15MB Kongsberg multibeam vendor format
0131_20130925_030645_Amundsen.all.mb58.gz 56.47MB Kongsberg multibeam vendor format
0131_20131001_062736_Amundsen.all.mb58.gz 34.84MB Kongsberg multibeam vendor format
0132_20130802_155433_Amundsen.all.mb58.gz 22.78MB Kongsberg multibeam vendor format
0132_20130806_154211_Amundsen.all.mb58.gz 35.75MB Kongsberg multibeam vendor format
0132_20130819_232200_Amundsen.all.mb58.gz 34.02MB Kongsberg multibeam vendor format
0132_20130829_171121_Amundsen.all.mb58.gz 60.78MB Kongsberg multibeam vendor format
0132_20130920_093856_Amundsen.all.mb58.gz 121.70MB Kongsberg multibeam vendor format
0132_20130925_033645_Amundsen.all.mb58.gz 55.90MB Kongsberg multibeam vendor format
0132_20131001_065738_Amundsen.all.mb58.gz 32.17MB Kongsberg multibeam vendor format
0133_20130802_172007_Amundsen.all.mb58.gz 35.91MB Kongsberg multibeam vendor format
0133_20130806_161212_Amundsen.all.mb58.gz 29.58MB Kongsberg multibeam vendor format
0133_20130819_235201_Amundsen.all.mb58.gz 34.06MB Kongsberg multibeam vendor format
0133_20130829_174120_Amundsen.all.mb58.gz 61.23MB Kongsberg multibeam vendor format
0133_20130920_100857_Amundsen.all.mb58.gz 58.73MB Kongsberg multibeam vendor format
0133_20130925_040646_Amundsen.all.mb58.gz 56.37MB Kongsberg multibeam vendor format
0133_20131001_072737_Amundsen.all.mb58.gz 32.79MB Kongsberg multibeam vendor format
0134_20130802_175007_Amundsen.all.mb58.gz 36.02MB Kongsberg multibeam vendor format
0134_20130806_163655_Amundsen.all.mb58.gz 35.73MB Kongsberg multibeam vendor format
0134_20130820_002159_Amundsen.all.mb58.gz 33.87MB Kongsberg multibeam vendor format
0134_20130829_181121_Amundsen.all.mb58.gz 59.26MB Kongsberg multibeam vendor format
0134_20130920_103856_Amundsen.all.mb58.gz 28.59MB Kongsberg multibeam vendor format
0134_20130925_043646_Amundsen.all.mb58.gz 56.50MB Kongsberg multibeam vendor format
0134_20131001_075738_Amundsen.all.mb58.gz 38.11MB Kongsberg multibeam vendor format
0135_20130802_182008_Amundsen.all.mb58.gz 37.43MB Kongsberg multibeam vendor format
0135_20130806_170656_Amundsen.all.mb58.gz 3.38MB Kongsberg multibeam vendor format
0135_20130820_005159_Amundsen.all.mb58.gz 34.42MB Kongsberg multibeam vendor format
0135_20130829_184122_Amundsen.all.mb58.gz 57.76MB Kongsberg multibeam vendor format
0135_20130920_110856_Amundsen.all.mb58.gz 33.21MB Kongsberg multibeam vendor format
0135_20130925_050645_Amundsen.all.mb58.gz 56.76MB Kongsberg multibeam vendor format
0135_20131001_082736_Amundsen.all.mb58.gz 40.19MB Kongsberg multibeam vendor format
0136_20130802_185008_Amundsen.all.mb58.gz 37.93MB Kongsberg multibeam vendor format
0136_20130806_200845_Amundsen.all.mb58.gz 36.53MB Kongsberg multibeam vendor format
0136_20130820_012159_Amundsen.all.mb58.gz 35.26MB Kongsberg multibeam vendor format
0136_20130829_191121_Amundsen.all.mb58.gz 56.49MB Kongsberg multibeam vendor format
0136_20130920_113857_Amundsen.all.mb58.gz 90.99MB Kongsberg multibeam vendor format
0136_20130925_053646_Amundsen.all.mb58.gz 56.74MB Kongsberg multibeam vendor format
0136_20131001_085737_Amundsen.all.mb58.gz 38.52MB Kongsberg multibeam vendor format
0137_20130802_192008_Amundsen.all.mb58.gz 36.43MB Kongsberg multibeam vendor format
0137_20130806_203845_Amundsen.all.mb58.gz 36.61MB Kongsberg multibeam vendor format
0137_20130820_015159_Amundsen.all.mb58.gz 35.27MB Kongsberg multibeam vendor format
0137_20130829_194121_Amundsen.all.mb58.gz 55.45MB Kongsberg multibeam vendor format
0137_20130920_120857_Amundsen.all.mb58.gz 93.19MB Kongsberg multibeam vendor format
0137_20130925_060646_Amundsen.all.mb58.gz 56.53MB Kongsberg multibeam vendor format
0137_20131001_092736_Amundsen.all.mb58.gz 41.00MB Kongsberg multibeam vendor format
0138_20130802_195007_Amundsen.all.mb58.gz 37.57MB Kongsberg multibeam vendor format
0138_20130806_210845_Amundsen.all.mb58.gz 36.67MB Kongsberg multibeam vendor format
0138_20130820_022200_Amundsen.all.mb58.gz 33.39MB Kongsberg multibeam vendor format
0138_20130829_201120_Amundsen.all.mb58.gz 55.57MB Kongsberg multibeam vendor format
0138_20130920_123857_Amundsen.all.mb58.gz 98.74MB Kongsberg multibeam vendor format
0138_20130925_063645_Amundsen.all.mb58.gz 56.88MB Kongsberg multibeam vendor format
0138_20131001_095736_Amundsen.all.mb58.gz 34.33MB Kongsberg multibeam vendor format
0139_20130802_202007_Amundsen.all.mb58.gz 37.87MB Kongsberg multibeam vendor format
0139_20130806_213845_Amundsen.all.mb58.gz 36.86MB Kongsberg multibeam vendor format
0139_20130820_025159_Amundsen.all.mb58.gz 38.80MB Kongsberg multibeam vendor format
0139_20130829_204122_Amundsen.all.mb58.gz 54.87MB Kongsberg multibeam vendor format
0139_20130920_130857_Amundsen.all.mb58.gz 84.86MB Kongsberg multibeam vendor format
0139_20130925_070645_Amundsen.all.mb58.gz 56.84MB Kongsberg multibeam vendor format
0139_20131001_102736_Amundsen.all.mb58.gz 33.35MB Kongsberg multibeam vendor format
0140_20130802_205007_Amundsen.all.mb58.gz 35.61MB Kongsberg multibeam vendor format
0140_20130806_220847_Amundsen.all.mb58.gz 3.71MB Kongsberg multibeam vendor format
0140_20130820_032159_Amundsen.all.mb58.gz 40.20MB Kongsberg multibeam vendor format
0140_20130829_211122_Amundsen.all.mb58.gz 54.89MB Kongsberg multibeam vendor format
0140_20130920_133856_Amundsen.all.mb58.gz 64.44MB Kongsberg multibeam vendor format
0140_20130925_073645_Amundsen.all.mb58.gz 56.79MB Kongsberg multibeam vendor format
0140_20131001_105736_Amundsen.all.mb58.gz 31.43MB Kongsberg multibeam vendor format
0141_20130802_212007_Amundsen.all.mb58.gz 32.67MB Kongsberg multibeam vendor format
0141_20130807_011125_Amundsen.all.mb58.gz 16.60MB Kongsberg multibeam vendor format
0141_20130820_035159_Amundsen.all.mb58.gz 17.02MB Kongsberg multibeam vendor format
0141_20130829_214120_Amundsen.all.mb58.gz 54.32MB Kongsberg multibeam vendor format
0141_20130920_140857_Amundsen.all.mb58.gz 67.30MB Kongsberg multibeam vendor format
0141_20130925_080646_Amundsen.all.mb58.gz 56.49MB Kongsberg multibeam vendor format
0141_20131001_112736_Amundsen.all.mb58.gz 33.84MB Kongsberg multibeam vendor format
0142_20130802_215008_Amundsen.all.mb58.gz 32.43MB Kongsberg multibeam vendor format
0142_20130807_012555_Amundsen.all.mb58.gz 30.71MB Kongsberg multibeam vendor format
0142_20130820_064404_Amundsen.all.mb58.gz 40.16MB Kongsberg multibeam vendor format
0142_20130829_221122_Amundsen.all.mb58.gz 53.43MB Kongsberg multibeam vendor format
0142_20130920_143856_Amundsen.all.mb58.gz 77.98MB Kongsberg multibeam vendor format
0142_20130925_083645_Amundsen.all.mb58.gz 56.56MB Kongsberg multibeam vendor format
0142_20131001_115736_Amundsen.all.mb58.gz 38.88MB Kongsberg multibeam vendor format
0143_20130802_222009_Amundsen.all.mb58.gz 32.93MB Kongsberg multibeam vendor format
0143_20130807_054022_Amundsen.all.mb58.gz 33.04MB Kongsberg multibeam vendor format
0143_20130820_071404_Amundsen.all.mb58.gz 37.56MB Kongsberg multibeam vendor format
0143_20130829_224121_Amundsen.all.mb58.gz 53.42MB Kongsberg multibeam vendor format
0143_20130920_150856_Amundsen.all.mb58.gz 96.47MB Kongsberg multibeam vendor format
0143_20130925_090645_Amundsen.all.mb58.gz 53.74MB Kongsberg multibeam vendor format
0143_20131001_122738_Amundsen.all.mb58.gz 39.45MB Kongsberg multibeam vendor format
0144_20130802_225007_Amundsen.all.mb58.gz 34.80MB Kongsberg multibeam vendor format
0144_20130807_061023_Amundsen.all.mb58.gz 28.11MB Kongsberg multibeam vendor format
0144_20130820_074404_Amundsen.all.mb58.gz 41.87MB Kongsberg multibeam vendor format
0144_20130829_231122_Amundsen.all.mb58.gz 52.98MB Kongsberg multibeam vendor format
0144_20130920_153856_Amundsen.all.mb58.gz 78.46MB Kongsberg multibeam vendor format
0144_20130925_093646_Amundsen.all.mb58.gz 55.71MB Kongsberg multibeam vendor format
0144_20131001_125736_Amundsen.all.mb58.gz 39.35MB Kongsberg multibeam vendor format
0145_20130802_232007_Amundsen.all.mb58.gz 36.20MB Kongsberg multibeam vendor format
0145_20130807_063356_Amundsen.all.mb58.gz 20.11MB Kongsberg multibeam vendor format
0145_20130820_081405_Amundsen.all.mb58.gz 41.53MB Kongsberg multibeam vendor format
0145_20130829_234120_Amundsen.all.mb58.gz 52.85MB Kongsberg multibeam vendor format
0145_20130920_160856_Amundsen.all.mb58.gz 74.87MB Kongsberg multibeam vendor format
0145_20130925_100645_Amundsen.all.mb58.gz 55.06MB Kongsberg multibeam vendor format
0145_20131001_132738_Amundsen.all.mb58.gz 35.76MB Kongsberg multibeam vendor format
0146_20130802_235007_Amundsen.all.mb58.gz 37.50MB Kongsberg multibeam vendor format
0146_20130807_065001_Amundsen.all.mb58.gz 14.09MB Kongsberg multibeam vendor format
0146_20130820_092039_Amundsen.all.mb58.gz 42.00MB Kongsberg multibeam vendor format
0146_20130830_001120_Amundsen.all.mb58.gz 52.99MB Kongsberg multibeam vendor format
0146_20130920_163857_Amundsen.all.mb58.gz 72.79MB Kongsberg multibeam vendor format
0146_20130925_103645_Amundsen.all.mb58.gz 57.46MB Kongsberg multibeam vendor format
0146_20131001_135737_Amundsen.all.mb58.gz 43.48MB Kongsberg multibeam vendor format
0147_20130803_002007_Amundsen.all.mb58.gz 38.02MB Kongsberg multibeam vendor format
0147_20130807_092723_Amundsen.all.mb58.gz 37.27MB Kongsberg multibeam vendor format
0147_20130820_095040_Amundsen.all.mb58.gz 16.70MB Kongsberg multibeam vendor format
0147_20130830_004120_Amundsen.all.mb58.gz 53.43MB Kongsberg multibeam vendor format
0147_20130920_170856_Amundsen.all.mb58.gz 79.52MB Kongsberg multibeam vendor format
0147_20130925_110647_Amundsen.all.mb58.gz 57.17MB Kongsberg multibeam vendor format
0147_20131001_142736_Amundsen.all.mb58.gz 43.64MB Kongsberg multibeam vendor format
0148_20130803_005013_Amundsen.all.mb58.gz 37.98MB Kongsberg multibeam vendor format
0148_20130807_095722_Amundsen.all.mb58.gz 37.17MB Kongsberg multibeam vendor format
0148_20130820_100230_Amundsen.all.mb58.gz 2.1KB Kongsberg multibeam vendor format
0148_20130830_011124_Amundsen.all.mb58.gz 52.51MB Kongsberg multibeam vendor format
0148_20130920_173856_Amundsen.all.mb58.gz 68.98MB Kongsberg multibeam vendor format
0148_20130925_113647_Amundsen.all.mb58.gz 54.87MB Kongsberg multibeam vendor format
0148_20131001_145736_Amundsen.all.mb58.gz 43.56MB Kongsberg multibeam vendor format
0149_20130803_012007_Amundsen.all.mb58.gz 39.29MB Kongsberg multibeam vendor format
0149_20130807_102721_Amundsen.all.mb58.gz 1.24MB Kongsberg multibeam vendor format
0149_20130820_100233_Amundsen.all.mb58.gz 42.29MB Kongsberg multibeam vendor format
0149_20130830_014120_Amundsen.all.mb58.gz 53.50MB Kongsberg multibeam vendor format
0149_20130920_180856_Amundsen.all.mb58.gz 85.60MB Kongsberg multibeam vendor format
0149_20130925_120646_Amundsen.all.mb58.gz 35.79MB Kongsberg multibeam vendor format
0149_20131001_152736_Amundsen.all.mb58.gz 42.96MB Kongsberg multibeam vendor format
0150_20130803_015008_Amundsen.all.mb58.gz 39.75MB Kongsberg multibeam vendor format
0150_20130807_111208_Amundsen.all.mb58.gz 34.41MB Kongsberg multibeam vendor format
0150_20130820_103234_Amundsen.all.mb58.gz 5.35MB Kongsberg multibeam vendor format
0150_20130830_021121_Amundsen.all.mb58.gz 56.36MB Kongsberg multibeam vendor format
0150_20130920_183857_Amundsen.all.mb58.gz 84.78MB Kongsberg multibeam vendor format
0150_20130925_191206_Amundsen.all.mb58.gz 8.70MB Kongsberg multibeam vendor format
0150_20131001_155737_Amundsen.all.mb58.gz 44.51MB Kongsberg multibeam vendor format
0151_20130803_022007_Amundsen.all.mb58.gz 38.54MB Kongsberg multibeam vendor format
0151_20130807_114208_Amundsen.all.mb58.gz 32.90MB Kongsberg multibeam vendor format
0151_20130820_112525_Amundsen.all.mb58.gz 40.84MB Kongsberg multibeam vendor format
0151_20130830_024120_Amundsen.all.mb58.gz 55.58MB Kongsberg multibeam vendor format
0151_20130920_190857_Amundsen.all.mb58.gz 88.86MB Kongsberg multibeam vendor format
0151_20130925_192850_Amundsen.all.mb58.gz 55.90MB Kongsberg multibeam vendor format
0151_20131001_162736_Amundsen.all.mb58.gz 45.58MB Kongsberg multibeam vendor format
0152_20130803_025007_Amundsen.all.mb58.gz 38.76MB Kongsberg multibeam vendor format
0152_20130807_121209_Amundsen.all.mb58.gz 35.82MB Kongsberg multibeam vendor format
0152_20130820_115526_Amundsen.all.mb58.gz 5.74MB Kongsberg multibeam vendor format
0152_20130830_031123_Amundsen.all.mb58.gz 54.00MB Kongsberg multibeam vendor format
0152_20130920_193857_Amundsen.all.mb58.gz 59.78MB Kongsberg multibeam vendor format
0152_20130925_195849_Amundsen.all.mb58.gz 55.83MB Kongsberg multibeam vendor format
0152_20131001_165736_Amundsen.all.mb58.gz 46.38MB Kongsberg multibeam vendor format
0153_20130803_032008_Amundsen.all.mb58.gz 37.12MB Kongsberg multibeam vendor format
0153_20130807_124208_Amundsen.all.mb58.gz 34.11MB Kongsberg multibeam vendor format
0153_20130820_134423_Amundsen.all.mb58.gz 41.80MB Kongsberg multibeam vendor format
0153_20130830_034121_Amundsen.all.mb58.gz 55.48MB Kongsberg multibeam vendor format
0153_20130920_195940_Amundsen.all.mb58.gz 78.48MB Kongsberg multibeam vendor format
0153_20130925_202851_Amundsen.all.mb58.gz 55.35MB Kongsberg multibeam vendor format
0153_20131001_172737_Amundsen.all.mb58.gz 47.06MB Kongsberg multibeam vendor format
0154_20130803_035007_Amundsen.all.mb58.gz 37.26MB Kongsberg multibeam vendor format
0154_20130807_131208_Amundsen.all.mb58.gz 35.33MB Kongsberg multibeam vendor format
0154_20130820_141422_Amundsen.all.mb58.gz 30.17MB Kongsberg multibeam vendor format
0154_20130830_041120_Amundsen.all.mb58.gz 55.31MB Kongsberg multibeam vendor format
0154_20130920_202936_Amundsen.all.mb58.gz 80.90MB Kongsberg multibeam vendor format
0154_20130925_205849_Amundsen.all.mb58.gz 55.51MB Kongsberg multibeam vendor format
0154_20131001_175737_Amundsen.all.mb58.gz 47.49MB Kongsberg multibeam vendor format
0155_20130803_042012_Amundsen.all.mb58.gz 37.69MB Kongsberg multibeam vendor format
0155_20130807_134209_Amundsen.all.mb58.gz 34.86MB Kongsberg multibeam vendor format
0155_20130820_152640_Amundsen.all.mb58.gz 41.41MB Kongsberg multibeam vendor format
0155_20130830_044120_Amundsen.all.mb58.gz 55.07MB Kongsberg multibeam vendor format
0155_20130920_205937_Amundsen.all.mb58.gz 86.87MB Kongsberg multibeam vendor format
0155_20130925_212849_Amundsen.all.mb58.gz 56.33MB Kongsberg multibeam vendor format
0155_20131001_182737_Amundsen.all.mb58.gz 46.95MB Kongsberg multibeam vendor format
0156_20130803_045008_Amundsen.all.mb58.gz 39.01MB Kongsberg multibeam vendor format
0156_20130807_141209_Amundsen.all.mb58.gz 9.12MB Kongsberg multibeam vendor format
0156_20130820_155641_Amundsen.all.mb58.gz 40.36MB Kongsberg multibeam vendor format
0156_20130830_051120_Amundsen.all.mb58.gz 55.46MB Kongsberg multibeam vendor format
0156_20130920_212937_Amundsen.all.mb58.gz 86.54MB Kongsberg multibeam vendor format
0156_20130925_215851_Amundsen.all.mb58.gz 55.73MB Kongsberg multibeam vendor format
0156_20131001_185737_Amundsen.all.mb58.gz 46.19MB Kongsberg multibeam vendor format
0157_20130803_052007_Amundsen.all.mb58.gz 38.77MB Kongsberg multibeam vendor format
0157_20130807_142001_Amundsen.all.mb58.gz 34.55MB Kongsberg multibeam vendor format
0157_20130820_162640_Amundsen.all.mb58.gz 39.87MB Kongsberg multibeam vendor format
0157_20130830_054122_Amundsen.all.mb58.gz 55.53MB Kongsberg multibeam vendor format
0157_20130920_215936_Amundsen.all.mb58.gz 81.10MB Kongsberg multibeam vendor format
0157_20130925_222849_Amundsen.all.mb58.gz 56.15MB Kongsberg multibeam vendor format
0157_20131001_192737_Amundsen.all.mb58.gz 44.48MB Kongsberg multibeam vendor format
0158_20130803_055007_Amundsen.all.mb58.gz 40.02MB Kongsberg multibeam vendor format
0158_20130807_145002_Amundsen.all.mb58.gz 28.83MB Kongsberg multibeam vendor format
0158_20130820_165640_Amundsen.all.mb58.gz 39.80MB Kongsberg multibeam vendor format
0158_20130830_061120_Amundsen.all.mb58.gz 4.10MB Kongsberg multibeam vendor format
0158_20130920_222936_Amundsen.all.mb58.gz 89.83MB Kongsberg multibeam vendor format
0158_20130925_225851_Amundsen.all.mb58.gz 56.67MB Kongsberg multibeam vendor format
0158_20131001_195737_Amundsen.all.mb58.gz 44.33MB Kongsberg multibeam vendor format
0159_20130803_062008_Amundsen.all.mb58.gz 39.67MB Kongsberg multibeam vendor format
0159_20130807_152002_Amundsen.all.mb58.gz 20.82MB Kongsberg multibeam vendor format
0159_20130820_172640_Amundsen.all.mb58.gz 37.03MB Kongsberg multibeam vendor format
0159_20130830_132312_Amundsen.all.mb58.gz 4.66MB Kongsberg multibeam vendor format
0159_20130920_225937_Amundsen.all.mb58.gz 87.66MB Kongsberg multibeam vendor format
0159_20130925_232849_Amundsen.all.mb58.gz 56.46MB Kongsberg multibeam vendor format
0159_20131001_202737_Amundsen.all.mb58.gz 44.72MB Kongsberg multibeam vendor format
0160_20130803_065007_Amundsen.all.mb58.gz 39.58MB Kongsberg multibeam vendor format
0160_20130807_155001_Amundsen.all.mb58.gz 15.05MB Kongsberg multibeam vendor format
0160_20130820_175352_Amundsen.all.mb58.gz 9.47MB Kongsberg multibeam vendor format
0160_20130830_142918_Amundsen.all.mb58.gz 38.79MB Kongsberg multibeam vendor format
0160_20130920_232936_Amundsen.all.mb58.gz 81.49MB Kongsberg multibeam vendor format
0160_20130925_235849_Amundsen.all.mb58.gz 55.49MB Kongsberg multibeam vendor format
0160_20131001_205737_Amundsen.all.mb58.gz 44.57MB Kongsberg multibeam vendor format
0161_20130803_072008_Amundsen.all.mb58.gz 37.57MB Kongsberg multibeam vendor format
0161_20130807_162004_Amundsen.all.mb58.gz 14.39MB Kongsberg multibeam vendor format
0161_20130820_180105_Amundsen.all.mb58.gz 17.48MB Kongsberg multibeam vendor format
0161_20130830_145935_Amundsen.all.mb58.gz 55.40MB Kongsberg multibeam vendor format
0161_20130920_235937_Amundsen.all.mb58.gz 80.02MB Kongsberg multibeam vendor format
0161_20130926_002849_Amundsen.all.mb58.gz 54.25MB Kongsberg multibeam vendor format
0161_20131001_212737_Amundsen.all.mb58.gz 43.21MB Kongsberg multibeam vendor format
0162_20130803_075007_Amundsen.all.mb58.gz 37.42MB Kongsberg multibeam vendor format
0162_20130807_165001_Amundsen.all.mb58.gz 13.88MB Kongsberg multibeam vendor format
0162_20130820_181406_Amundsen.all.mb58.gz 23.59MB Kongsberg multibeam vendor format
0162_20130830_152937_Amundsen.all.mb58.gz 55.75MB Kongsberg multibeam vendor format
0162_20130921_002936_Amundsen.all.mb58.gz 81.39MB Kongsberg multibeam vendor format
0162_20130926_005851_Amundsen.all.mb58.gz 54.07MB Kongsberg multibeam vendor format
0162_20131001_215737_Amundsen.all.mb58.gz 42.12MB Kongsberg multibeam vendor format
0163_20130803_082007_Amundsen.all.mb58.gz 37.21MB Kongsberg multibeam vendor format
0163_20130807_172005_Amundsen.all.mb58.gz 12.98MB Kongsberg multibeam vendor format
0163_20130820_183141_Amundsen.all.mb58.gz 39.80MB Kongsberg multibeam vendor format
0163_20130830_155936_Amundsen.all.mb58.gz 57.41MB Kongsberg multibeam vendor format
0163_20130921_005936_Amundsen.all.mb58.gz 77.80MB Kongsberg multibeam vendor format
0163_20130926_012849_Amundsen.all.mb58.gz 53.88MB Kongsberg multibeam vendor format
0163_20131001_222737_Amundsen.all.mb58.gz 40.44MB Kongsberg multibeam vendor format
0164_20130803_085008_Amundsen.all.mb58.gz 37.03MB Kongsberg multibeam vendor format
0164_20130807_175006_Amundsen.all.mb58.gz 13.02MB Kongsberg multibeam vendor format
0164_20130820_190141_Amundsen.all.mb58.gz 15.65MB Kongsberg multibeam vendor format
0164_20130830_162938_Amundsen.all.mb58.gz 58.44MB Kongsberg multibeam vendor format
0164_20130921_012937_Amundsen.all.mb58.gz 80.83MB Kongsberg multibeam vendor format
0164_20130926_015849_Amundsen.all.mb58.gz 54.60MB Kongsberg multibeam vendor format
0164_20131001_225737_Amundsen.all.mb58.gz 42.32MB Kongsberg multibeam vendor format
0165_20130803_092008_Amundsen.all.mb58.gz 34.98MB Kongsberg multibeam vendor format
0165_20130807_182005_Amundsen.all.mb58.gz 6.61MB Kongsberg multibeam vendor format
0165_20130820_191309_Amundsen.all.mb58.gz 40.14MB Kongsberg multibeam vendor format
0165_20130830_165937_Amundsen.all.mb58.gz 58.38MB Kongsberg multibeam vendor format
0165_20130921_015938_Amundsen.all.mb58.gz 77.94MB Kongsberg multibeam vendor format
0165_20130926_022849_Amundsen.all.mb58.gz 55.13MB Kongsberg multibeam vendor format
0165_20131001_232738_Amundsen.all.mb58.gz 42.13MB Kongsberg multibeam vendor format
0166_20130803_095007_Amundsen.all.mb58.gz 36.59MB Kongsberg multibeam vendor format
0166_20130807_192202_Amundsen.all.mb58.gz 18.35MB Kongsberg multibeam vendor format
0166_20130820_194310_Amundsen.all.mb58.gz 2.71MB Kongsberg multibeam vendor format
0166_20130830_172936_Amundsen.all.mb58.gz 58.98MB Kongsberg multibeam vendor format
0166_20130921_022937_Amundsen.all.mb58.gz 81.76MB Kongsberg multibeam vendor format
0166_20130926_025849_Amundsen.all.mb58.gz 55.67MB Kongsberg multibeam vendor format
0166_20131001_235737_Amundsen.all.mb58.gz 41.43MB Kongsberg multibeam vendor format
0167_20130803_102007_Amundsen.all.mb58.gz 37.94MB Kongsberg multibeam vendor format
0167_20130807_195206_Amundsen.all.mb58.gz 18.02MB Kongsberg multibeam vendor format
0167_20130820_194508_Amundsen.all.mb58.gz 20.87MB Kongsberg multibeam vendor format
0167_20130830_175936_Amundsen.all.mb58.gz 58.86MB Kongsberg multibeam vendor format
0167_20130921_025937_Amundsen.all.mb58.gz 82.61MB Kongsberg multibeam vendor format
0167_20130926_032851_Amundsen.all.mb58.gz 55.28MB Kongsberg multibeam vendor format
0167_20131002_002737_Amundsen.all.mb58.gz 41.19MB Kongsberg multibeam vendor format
0168_20130803_105007_Amundsen.all.mb58.gz 37.54MB Kongsberg multibeam vendor format
0168_20130807_202202_Amundsen.all.mb58.gz 4.24MB Kongsberg multibeam vendor format
0168_20130820_200018_Amundsen.all.mb58.gz 35.56MB Kongsberg multibeam vendor format
0168_20130830_182938_Amundsen.all.mb58.gz 1.91MB Kongsberg multibeam vendor format
0168_20130921_032937_Amundsen.all.mb58.gz 81.32MB Kongsberg multibeam vendor format
0168_20130926_035850_Amundsen.all.mb58.gz 55.96MB Kongsberg multibeam vendor format
0168_20131002_005737_Amundsen.all.mb58.gz 41.02MB Kongsberg multibeam vendor format
0169_20130803_112008_Amundsen.all.mb58.gz 39.21MB Kongsberg multibeam vendor format
0169_20130807_202900_Amundsen.all.mb58.gz 6.06MB Kongsberg multibeam vendor format
0169_20130820_202640_Amundsen.all.mb58.gz 14.51MB Kongsberg multibeam vendor format
0169_20130830_193604_Amundsen.all.mb58.gz 58.95MB Kongsberg multibeam vendor format
0169_20130921_035937_Amundsen.all.mb58.gz 75.22MB Kongsberg multibeam vendor format
0169_20130926_042850_Amundsen.all.mb58.gz 55.65MB Kongsberg multibeam vendor format
0169_20131002_012738_Amundsen.all.mb58.gz 40.43MB Kongsberg multibeam vendor format
0170_20130803_115007_Amundsen.all.mb58.gz 38.77MB Kongsberg multibeam vendor format
0170_20130807_203840_Amundsen.all.mb58.gz 19.45MB Kongsberg multibeam vendor format
0170_20130820_203718_Amundsen.all.mb58.gz 29.34MB Kongsberg multibeam vendor format
0170_20130830_200606_Amundsen.all.mb58.gz 59.52MB Kongsberg multibeam vendor format
0170_20130921_042937_Amundsen.all.mb58.gz 70.85MB Kongsberg multibeam vendor format
0170_20130926_045849_Amundsen.all.mb58.gz 56.23MB Kongsberg multibeam vendor format
0170_20131002_015738_Amundsen.all.mb58.gz 39.90MB Kongsberg multibeam vendor format
0171_20130803_122008_Amundsen.all.mb58.gz 35.91MB Kongsberg multibeam vendor format
0171_20130807_210842_Amundsen.all.mb58.gz 10.29MB Kongsberg multibeam vendor format
0171_20130820_205956_Amundsen.all.mb58.gz 40.46MB Kongsberg multibeam vendor format
0171_20130830_203604_Amundsen.all.mb58.gz 60.70MB Kongsberg multibeam vendor format
0171_20130921_045937_Amundsen.all.mb58.gz 76.52MB Kongsberg multibeam vendor format
0171_20130926_052851_Amundsen.all.mb58.gz 57.32MB Kongsberg multibeam vendor format
0171_20131002_022737_Amundsen.all.mb58.gz 39.73MB Kongsberg multibeam vendor format
0172_20130803_125009_Amundsen.all.mb58.gz 33.28MB Kongsberg multibeam vendor format
0172_20130807_212445_Amundsen.all.mb58.gz 9.09MB Kongsberg multibeam vendor format
0172_20130820_212956_Amundsen.all.mb58.gz 40.54MB Kongsberg multibeam vendor format
0172_20130830_210604_Amundsen.all.mb58.gz 60.90MB Kongsberg multibeam vendor format
0172_20130921_052938_Amundsen.all.mb58.gz 80.91MB Kongsberg multibeam vendor format
0172_20130926_055849_Amundsen.all.mb58.gz 57.23MB Kongsberg multibeam vendor format
0172_20131002_025739_Amundsen.all.mb58.gz 39.52MB Kongsberg multibeam vendor format
0173_20130803_132008_Amundsen.all.mb58.gz 29.87MB Kongsberg multibeam vendor format
0173_20130807_213805_Amundsen.all.mb58.gz 32.87MB Kongsberg multibeam vendor format
0173_20130820_215956_Amundsen.all.mb58.gz 33.36MB Kongsberg multibeam vendor format
0173_20130830_213605_Amundsen.all.mb58.gz 60.95MB Kongsberg multibeam vendor format
0173_20130921_055937_Amundsen.all.mb58.gz 71.68MB Kongsberg multibeam vendor format
0173_20130926_062850_Amundsen.all.mb58.gz 57.45MB Kongsberg multibeam vendor format
0173_20131002_032738_Amundsen.all.mb58.gz 39.23MB Kongsberg multibeam vendor format
0174_20130803_135008_Amundsen.all.mb58.gz 27.44MB Kongsberg multibeam vendor format
0174_20130807_220807_Amundsen.all.mb58.gz 22.83MB Kongsberg multibeam vendor format
0174_20130820_222956_Amundsen.all.mb58.gz 40.97MB Kongsberg multibeam vendor format
0174_20130830_220606_Amundsen.all.mb58.gz 61.75MB Kongsberg multibeam vendor format
0174_20130921_062937_Amundsen.all.mb58.gz 80.19MB Kongsberg multibeam vendor format
0174_20130926_065850_Amundsen.all.mb58.gz 59.06MB Kongsberg multibeam vendor format
0174_20131002_035739_Amundsen.all.mb58.gz 39.04MB Kongsberg multibeam vendor format
0175_20130803_142011_Amundsen.all.mb58.gz 26.47MB Kongsberg multibeam vendor format
0175_20130807_222900_Amundsen.all.mb58.gz 11.49MB Kongsberg multibeam vendor format
0175_20130820_225956_Amundsen.all.mb58.gz 41.12MB Kongsberg multibeam vendor format
0175_20130830_223605_Amundsen.all.mb58.gz 63.15MB Kongsberg multibeam vendor format
0175_20130921_065936_Amundsen.all.mb58.gz 78.94MB Kongsberg multibeam vendor format
0175_20130926_072849_Amundsen.all.mb58.gz 61.38MB Kongsberg multibeam vendor format
0175_20131002_042738_Amundsen.all.mb58.gz 39.22MB Kongsberg multibeam vendor format
0176_20130803_145010_Amundsen.all.mb58.gz 26.08MB Kongsberg multibeam vendor format
0176_20130807_223828_Amundsen.all.mb58.gz 38.86MB Kongsberg multibeam vendor format
0176_20130820_232956_Amundsen.all.mb58.gz 39.07MB Kongsberg multibeam vendor format
0176_20130830_230604_Amundsen.all.mb58.gz 64.60MB Kongsberg multibeam vendor format
0176_20130921_072938_Amundsen.all.mb58.gz 80.19MB Kongsberg multibeam vendor format
0176_20130926_075850_Amundsen.all.mb58.gz 63.96MB Kongsberg multibeam vendor format
0176_20131002_045737_Amundsen.all.mb58.gz 39.23MB Kongsberg multibeam vendor format
0177_20130803_152011_Amundsen.all.mb58.gz 26.53MB Kongsberg multibeam vendor format
0177_20130807_230827_Amundsen.all.mb58.gz 25.90MB Kongsberg multibeam vendor format
0177_20130820_235956_Amundsen.all.mb58.gz 40.14MB Kongsberg multibeam vendor format
0177_20130830_233605_Amundsen.all.mb58.gz 65.77MB Kongsberg multibeam vendor format
0177_20130921_075937_Amundsen.all.mb58.gz 80.28MB Kongsberg multibeam vendor format
0177_20130926_082850_Amundsen.all.mb58.gz 67.65MB Kongsberg multibeam vendor format
0177_20131002_052739_Amundsen.all.mb58.gz 38.65MB Kongsberg multibeam vendor format
0178_20130803_155010_Amundsen.all.mb58.gz 25.84MB Kongsberg multibeam vendor format
0178_20130807_232836_Amundsen.all.mb58.gz 10.03MB Kongsberg multibeam vendor format
0178_20130821_002956_Amundsen.all.mb58.gz 38.42MB Kongsberg multibeam vendor format
0178_20130831_000604_Amundsen.all.mb58.gz 0.74MB Kongsberg multibeam vendor format
0178_20130921_082937_Amundsen.all.mb58.gz 82.50MB Kongsberg multibeam vendor format
0178_20130926_085849_Amundsen.all.mb58.gz 70.82MB Kongsberg multibeam vendor format
0178_20131002_055737_Amundsen.all.mb58.gz 39.29MB Kongsberg multibeam vendor format
0179_20130803_162009_Amundsen.all.mb58.gz 14.16MB Kongsberg multibeam vendor format
0179_20130807_233617_Amundsen.all.mb58.gz 38.09MB Kongsberg multibeam vendor format
0179_20130821_005956_Amundsen.all.mb58.gz 0.80MB Kongsberg multibeam vendor format
0179_20130831_005449_Amundsen.all.mb58.gz 67.17MB Kongsberg multibeam vendor format
0179_20130921_085937_Amundsen.all.mb58.gz 80.09MB Kongsberg multibeam vendor format
0179_20130926_092849_Amundsen.all.mb58.gz 73.16MB Kongsberg multibeam vendor format
0179_20131002_062737_Amundsen.all.mb58.gz 38.98MB Kongsberg multibeam vendor format
0180_20130803_165901_Amundsen.all.mb58.gz 1.46MB Kongsberg multibeam vendor format
0180_20130803_170816_Amundsen.all.mb58.gz 15.37MB Kongsberg multibeam vendor format
0180_20130808_000618_Amundsen.all.mb58.gz 25.66MB Kongsberg multibeam vendor format
0180_20130821_011034_Amundsen.all.mb58.gz 13.86MB Kongsberg multibeam vendor format
0180_20130831_012449_Amundsen.all.mb58.gz 66.44MB Kongsberg multibeam vendor format
0180_20130921_092938_Amundsen.all.mb58.gz 77.81MB Kongsberg multibeam vendor format
0180_20130926_095849_Amundsen.all.mb58.gz 77.17MB Kongsberg multibeam vendor format
0180_20131002_065739_Amundsen.all.mb58.gz 38.90MB Kongsberg multibeam vendor format
0181_20130803_173816_Amundsen.all.mb58.gz 22.79MB Kongsberg multibeam vendor format
0181_20130808_002604_Amundsen.all.mb58.gz 11.99MB Kongsberg multibeam vendor format
0181_20130821_014034_Amundsen.all.mb58.gz 13.69MB Kongsberg multibeam vendor format
0181_20130831_015449_Amundsen.all.mb58.gz 65.87MB Kongsberg multibeam vendor format
0181_20130921_095937_Amundsen.all.mb58.gz 75.27MB Kongsberg multibeam vendor format
0181_20130926_102850_Amundsen.all.mb58.gz 77.63MB Kongsberg multibeam vendor format
0181_20131002_072737_Amundsen.all.mb58.gz 39.14MB Kongsberg multibeam vendor format
0182_20130803_180819_Amundsen.all.mb58.gz 10.27MB Kongsberg multibeam vendor format
0182_20130808_003422_Amundsen.all.mb58.gz 47.85MB Kongsberg multibeam vendor format
0182_20130821_021034_Amundsen.all.mb58.gz 14.44MB Kongsberg multibeam vendor format
0182_20130831_022450_Amundsen.all.mb58.gz 63.47MB Kongsberg multibeam vendor format
0182_20130921_102937_Amundsen.all.mb58.gz 75.86MB Kongsberg multibeam vendor format
0182_20130926_105849_Amundsen.all.mb58.gz 76.40MB Kongsberg multibeam vendor format
0182_20131002_075737_Amundsen.all.mb58.gz 39.47MB Kongsberg multibeam vendor format
0183_20130803_181942_Amundsen.all.mb58.gz 29.19MB Kongsberg multibeam vendor format
0183_20130808_010421_Amundsen.all.mb58.gz 32.65MB Kongsberg multibeam vendor format
0183_20130821_024034_Amundsen.all.mb58.gz 12.97MB Kongsberg multibeam vendor format
0183_20130831_025449_Amundsen.all.mb58.gz 62.71MB Kongsberg multibeam vendor format
0183_20130921_105937_Amundsen.all.mb58.gz 77.62MB Kongsberg multibeam vendor format
0183_20130926_112849_Amundsen.all.mb58.gz 76.81MB Kongsberg multibeam vendor format
0183_20131002_082738_Amundsen.all.mb58.gz 40.67MB Kongsberg multibeam vendor format
0184_20130803_184943_Amundsen.all.mb58.gz 24.91MB Kongsberg multibeam vendor format
0184_20130808_012449_Amundsen.all.mb58.gz 18.96MB Kongsberg multibeam vendor format
0184_20130821_031034_Amundsen.all.mb58.gz 17.24MB Kongsberg multibeam vendor format
0184_20130831_032449_Amundsen.all.mb58.gz 62.75MB Kongsberg multibeam vendor format
0184_20130921_112938_Amundsen.all.mb58.gz 78.39MB Kongsberg multibeam vendor format
0184_20130926_115849_Amundsen.all.mb58.gz 77.56MB Kongsberg multibeam vendor format
0184_20131002_085739_Amundsen.all.mb58.gz 42.15MB Kongsberg multibeam vendor format
0185_20130808_013705_Amundsen.all.mb58.gz 48.76MB Kongsberg multibeam vendor format
0185_20130821_034034_Amundsen.all.mb58.gz 19.48MB Kongsberg multibeam vendor format
0185_20130831_035449_Amundsen.all.mb58.gz 6.51MB Kongsberg multibeam vendor format
0185_20130921_115938_Amundsen.all.mb58.gz 77.33MB Kongsberg multibeam vendor format
0185_20130926_122850_Amundsen.all.mb58.gz 77.91MB Kongsberg multibeam vendor format
0185_20131002_092737_Amundsen.all.mb58.gz 43.96MB Kongsberg multibeam vendor format
0186_20130808_020704_Amundsen.all.mb58.gz 39.43MB Kongsberg multibeam vendor format
0186_20130821_041034_Amundsen.all.mb58.gz 18.25MB Kongsberg multibeam vendor format
0186_20130831_113834_Amundsen.all.mb58.gz 36.32MB Kongsberg multibeam vendor format
0186_20130921_122937_Amundsen.all.mb58.gz 76.64MB Kongsberg multibeam vendor format
0186_20130926_125850_Amundsen.all.mb58.gz 78.32MB Kongsberg multibeam vendor format
0186_20131002_095737_Amundsen.all.mb58.gz 46.88MB Kongsberg multibeam vendor format
0187_20130808_023125_Amundsen.all.mb58.gz 28.51MB Kongsberg multibeam vendor format
0187_20130821_044035_Amundsen.all.mb58.gz 16.35MB Kongsberg multibeam vendor format
0187_20130831_123747_Amundsen.all.mb58.gz 62.91MB Kongsberg multibeam vendor format
0187_20130921_125936_Amundsen.all.mb58.gz 58.60MB Kongsberg multibeam vendor format
0187_20130926_132849_Amundsen.all.mb58.gz 80.27MB Kongsberg multibeam vendor format
0187_20131002_102737_Amundsen.all.mb58.gz 47.71MB Kongsberg multibeam vendor format
0188_20130808_112834_Amundsen.all.mb58.gz 23.64MB Kongsberg multibeam vendor format
0188_20130821_051035_Amundsen.all.mb58.gz 31.21MB Kongsberg multibeam vendor format
0188_20130831_130747_Amundsen.all.mb58.gz 63.01MB Kongsberg multibeam vendor format
0188_20130921_132937_Amundsen.all.mb58.gz 32.22MB Kongsberg multibeam vendor format
0188_20130926_135849_Amundsen.all.mb58.gz 81.82MB Kongsberg multibeam vendor format
0188_20131002_105737_Amundsen.all.mb58.gz 47.66MB Kongsberg multibeam vendor format
0189_20130808_115839_Amundsen.all.mb58.gz 16.59MB Kongsberg multibeam vendor format
0189_20130821_054034_Amundsen.all.mb58.gz 32.39MB Kongsberg multibeam vendor format
0189_20130831_133747_Amundsen.all.mb58.gz 62.89MB Kongsberg multibeam vendor format
0189_20130926_142849_Amundsen.all.mb58.gz 77.89MB Kongsberg multibeam vendor format
0189_20131002_112737_Amundsen.all.mb58.gz 47.37MB Kongsberg multibeam vendor format
0190_20130808_122836_Amundsen.all.mb58.gz 16.22MB Kongsberg multibeam vendor format
0190_20130821_061034_Amundsen.all.mb58.gz 24.00MB Kongsberg multibeam vendor format
0190_20130831_140747_Amundsen.all.mb58.gz 62.82MB Kongsberg multibeam vendor format
0190_20130926_145850_Amundsen.all.mb58.gz 79.51MB Kongsberg multibeam vendor format
0190_20131002_115738_Amundsen.all.mb58.gz 47.29MB Kongsberg multibeam vendor format
0191_20130808_125839_Amundsen.all.mb58.gz 15.80MB Kongsberg multibeam vendor format
0191_20130821_064034_Amundsen.all.mb58.gz 23.42MB Kongsberg multibeam vendor format
0191_20130831_143747_Amundsen.all.mb58.gz 63.05MB Kongsberg multibeam vendor format
0191_20130926_152849_Amundsen.all.mb58.gz 79.29MB Kongsberg multibeam vendor format
0191_20131002_122737_Amundsen.all.mb58.gz 47.22MB Kongsberg multibeam vendor format
0192_20130808_132838_Amundsen.all.mb58.gz 15.26MB Kongsberg multibeam vendor format
0192_20130821_071035_Amundsen.all.mb58.gz 22.44MB Kongsberg multibeam vendor format
0192_20130831_150747_Amundsen.all.mb58.gz 62.74MB Kongsberg multibeam vendor format
0192_20130926_155849_Amundsen.all.mb58.gz 78.97MB Kongsberg multibeam vendor format
0192_20131002_125737_Amundsen.all.mb58.gz 47.32MB Kongsberg multibeam vendor format
0193_20130808_135839_Amundsen.all.mb58.gz 14.98MB Kongsberg multibeam vendor format
0193_20130821_074034_Amundsen.all.mb58.gz 20.83MB Kongsberg multibeam vendor format
0193_20130831_153747_Amundsen.all.mb58.gz 62.89MB Kongsberg multibeam vendor format
0193_20130926_162849_Amundsen.all.mb58.gz 79.50MB Kongsberg multibeam vendor format
0193_20131002_132737_Amundsen.all.mb58.gz 47.16MB Kongsberg multibeam vendor format
0194_20130808_142837_Amundsen.all.mb58.gz 14.95MB Kongsberg multibeam vendor format
0194_20130821_081530_Amundsen.all.mb58.gz 22.57MB Kongsberg multibeam vendor format
0194_20130831_160747_Amundsen.all.mb58.gz 64.30MB Kongsberg multibeam vendor format
0194_20130926_165849_Amundsen.all.mb58.gz 94.14MB Kongsberg multibeam vendor format
0194_20131002_135737_Amundsen.all.mb58.gz 47.34MB Kongsberg multibeam vendor format
0195_20130808_145835_Amundsen.all.mb58.gz 14.85MB Kongsberg multibeam vendor format
0195_20130821_084530_Amundsen.all.mb58.gz 22.78MB Kongsberg multibeam vendor format
0195_20130831_163747_Amundsen.all.mb58.gz 65.91MB Kongsberg multibeam vendor format
0195_20130926_172849_Amundsen.all.mb58.gz 99.84MB Kongsberg multibeam vendor format
0195_20131002_142737_Amundsen.all.mb58.gz 47.22MB Kongsberg multibeam vendor format
0196_20130808_152838_Amundsen.all.mb58.gz 12.52MB Kongsberg multibeam vendor format
0196_20130821_091530_Amundsen.all.mb58.gz 5.67MB Kongsberg multibeam vendor format
0196_20130831_170747_Amundsen.all.mb58.gz 66.02MB Kongsberg multibeam vendor format
0196_20130926_175849_Amundsen.all.mb58.gz 113.70MB Kongsberg multibeam vendor format
0196_20131002_145738_Amundsen.all.mb58.gz 47.47MB Kongsberg multibeam vendor format
0197_20130808_155838_Amundsen.all.mb58.gz 12.02MB Kongsberg multibeam vendor format
0197_20130821_103138_Amundsen.all.mb58.gz 21.51MB Kongsberg multibeam vendor format
0197_20130831_173747_Amundsen.all.mb58.gz 64.99MB Kongsberg multibeam vendor format
0197_20130926_182849_Amundsen.all.mb58.gz 78.38MB Kongsberg multibeam vendor format
0197_20131002_152737_Amundsen.all.mb58.gz 47.54MB Kongsberg multibeam vendor format
0198_20130808_162841_Amundsen.all.mb58.gz 12.31MB Kongsberg multibeam vendor format
0198_20130821_110138_Amundsen.all.mb58.gz 20.59MB Kongsberg multibeam vendor format
0198_20130831_180747_Amundsen.all.mb58.gz 66.22MB Kongsberg multibeam vendor format
0198_20130926_185849_Amundsen.all.mb58.gz 78.36MB Kongsberg multibeam vendor format
0198_20131002_155737_Amundsen.all.mb58.gz 47.43MB Kongsberg multibeam vendor format
0199_20130808_165834_Amundsen.all.mb58.gz 11.96MB Kongsberg multibeam vendor format
0199_20130821_113136_Amundsen.all.mb58.gz 25.80MB Kongsberg multibeam vendor format
0199_20130831_183747_Amundsen.all.mb58.gz 66.26MB Kongsberg multibeam vendor format
0199_20130926_192850_Amundsen.all.mb58.gz 75.22MB Kongsberg multibeam vendor format
0199_20131002_162737_Amundsen.all.mb58.gz 47.36MB Kongsberg multibeam vendor format
0200_20130808_172835_Amundsen.all.mb58.gz 12.39MB Kongsberg multibeam vendor format
0200_20130821_120137_Amundsen.all.mb58.gz 20.52MB Kongsberg multibeam vendor format
0200_20130831_190747_Amundsen.all.mb58.gz 66.39MB Kongsberg multibeam vendor format
0200_20130926_195849_Amundsen.all.mb58.gz 64.85MB Kongsberg multibeam vendor format
0200_20131002_165737_Amundsen.all.mb58.gz 47.61MB Kongsberg multibeam vendor format
0201_20130808_175840_Amundsen.all.mb58.gz 12.40MB Kongsberg multibeam vendor format
0201_20130821_123136_Amundsen.all.mb58.gz 14.37MB Kongsberg multibeam vendor format
0201_20130831_193747_Amundsen.all.mb58.gz 66.19MB Kongsberg multibeam vendor format
0201_20130926_202850_Amundsen.all.mb58.gz 60.04MB Kongsberg multibeam vendor format
0201_20131002_172737_Amundsen.all.mb58.gz 47.49MB Kongsberg multibeam vendor format
0202_20130808_182839_Amundsen.all.mb58.gz 12.72MB Kongsberg multibeam vendor format
0202_20130821_130136_Amundsen.all.mb58.gz 19.41MB Kongsberg multibeam vendor format
0202_20130831_200747_Amundsen.all.mb58.gz 66.08MB Kongsberg multibeam vendor format
0202_20130926_205851_Amundsen.all.mb58.gz 55.19MB Kongsberg multibeam vendor format
0202_20131002_175737_Amundsen.all.mb58.gz 47.53MB Kongsberg multibeam vendor format
0203_20130808_185839_Amundsen.all.mb58.gz 12.62MB Kongsberg multibeam vendor format
0203_20130821_133137_Amundsen.all.mb58.gz 13.01MB Kongsberg multibeam vendor format
0203_20130831_203747_Amundsen.all.mb58.gz 66.03MB Kongsberg multibeam vendor format
0203_20130926_212849_Amundsen.all.mb58.gz 55.86MB Kongsberg multibeam vendor format
0203_20131002_182737_Amundsen.all.mb58.gz 47.71MB Kongsberg multibeam vendor format
0204_20130808_192838_Amundsen.all.mb58.gz 12.94MB Kongsberg multibeam vendor format
0204_20130821_140141_Amundsen.all.mb58.gz 14.59MB Kongsberg multibeam vendor format
0204_20130831_210747_Amundsen.all.mb58.gz 66.75MB Kongsberg multibeam vendor format
0204_20130926_215849_Amundsen.all.mb58.gz 57.08MB Kongsberg multibeam vendor format
0204_20131002_185737_Amundsen.all.mb58.gz 46.63MB Kongsberg multibeam vendor format
0205_20130808_195838_Amundsen.all.mb58.gz 8.35MB Kongsberg multibeam vendor format
0205_20130821_143136_Amundsen.all.mb58.gz 15.41MB Kongsberg multibeam vendor format
0205_20130831_213747_Amundsen.all.mb58.gz 28.63MB Kongsberg multibeam vendor format
0205_20130926_222849_Amundsen.all.mb58.gz 57.50MB Kongsberg multibeam vendor format
0205_20131002_192737_Amundsen.all.mb58.gz 42.00MB Kongsberg multibeam vendor format
0206_20130808_201844_Amundsen.all.mb58.gz 13.82MB Kongsberg multibeam vendor format
0206_20130821_150136_Amundsen.all.mb58.gz 17.16MB Kongsberg multibeam vendor format
0206_20130831_224329_Amundsen.all.mb58.gz 66.71MB Kongsberg multibeam vendor format
0206_20130926_225849_Amundsen.all.mb58.gz 51.53MB Kongsberg multibeam vendor format
0206_20131002_195737_Amundsen.all.mb58.gz 43.13MB Kongsberg multibeam vendor format
0207_20130808_204842_Amundsen.all.mb58.gz 15.75MB Kongsberg multibeam vendor format
0207_20130821_153136_Amundsen.all.mb58.gz 16.02MB Kongsberg multibeam vendor format
0207_20130831_231329_Amundsen.all.mb58.gz 63.98MB Kongsberg multibeam vendor format
0207_20130926_232850_Amundsen.all.mb58.gz 54.71MB Kongsberg multibeam vendor format
0207_20131002_202739_Amundsen.all.mb58.gz 35.69MB Kongsberg multibeam vendor format
0208_20130808_211841_Amundsen.all.mb58.gz 24.16MB Kongsberg multibeam vendor format
0208_20130821_160142_Amundsen.all.mb58.gz 16.98MB Kongsberg multibeam vendor format
0208_20130831_234329_Amundsen.all.mb58.gz 66.75MB Kongsberg multibeam vendor format
0208_20130926_235851_Amundsen.all.mb58.gz 57.30MB Kongsberg multibeam vendor format
0208_20131002_205741_Amundsen.all.mb58.gz 35.37MB Kongsberg multibeam vendor format
0209_20130808_214840_Amundsen.all.mb58.gz 23.31MB Kongsberg multibeam vendor format
0209_20130821_163137_Amundsen.all.mb58.gz 16.36MB Kongsberg multibeam vendor format
0209_20130901_001329_Amundsen.all.mb58.gz 66.50MB Kongsberg multibeam vendor format
0209_20130927_002849_Amundsen.all.mb58.gz 55.58MB Kongsberg multibeam vendor format
0209_20131002_212738_Amundsen.all.mb58.gz 34.77MB Kongsberg multibeam vendor format
0210_20130808_221840_Amundsen.all.mb58.gz 22.74MB Kongsberg multibeam vendor format
0210_20130821_170137_Amundsen.all.mb58.gz 18.12MB Kongsberg multibeam vendor format
0210_20130901_004329_Amundsen.all.mb58.gz 63.26MB Kongsberg multibeam vendor format
0210_20130927_005850_Amundsen.all.mb58.gz 61.58MB Kongsberg multibeam vendor format
0210_20131002_215740_Amundsen.all.mb58.gz 34.94MB Kongsberg multibeam vendor format
0211_20130808_224842_Amundsen.all.mb58.gz 20.48MB Kongsberg multibeam vendor format
0211_20130821_173136_Amundsen.all.mb58.gz 23.87MB Kongsberg multibeam vendor format
0211_20130901_011329_Amundsen.all.mb58.gz 66.08MB Kongsberg multibeam vendor format
0211_20130927_012850_Amundsen.all.mb58.gz 63.00MB Kongsberg multibeam vendor format
0211_20131002_222739_Amundsen.all.mb58.gz 29.72MB Kongsberg multibeam vendor format
0212_20130808_231840_Amundsen.all.mb58.gz 18.43MB Kongsberg multibeam vendor format
0212_20130821_180136_Amundsen.all.mb58.gz 18.97MB Kongsberg multibeam vendor format
0212_20130901_014329_Amundsen.all.mb58.gz 66.53MB Kongsberg multibeam vendor format
0212_20130927_015850_Amundsen.all.mb58.gz 68.04MB Kongsberg multibeam vendor format
0212_20131002_225741_Amundsen.all.mb58.gz 26.19MB Kongsberg multibeam vendor format
0213_20130808_234841_Amundsen.all.mb58.gz 19.20MB Kongsberg multibeam vendor format
0213_20130821_183136_Amundsen.all.mb58.gz 15.62MB Kongsberg multibeam vendor format
0213_20130901_021329_Amundsen.all.mb58.gz 58.17MB Kongsberg multibeam vendor format
0213_20130927_022850_Amundsen.all.mb58.gz 65.80MB Kongsberg multibeam vendor format
0213_20131002_232737_Amundsen.all.mb58.gz 29.68MB Kongsberg multibeam vendor format
0214_20130809_001840_Amundsen.all.mb58.gz 16.60MB Kongsberg multibeam vendor format
0214_20130821_190136_Amundsen.all.mb58.gz 13.39MB Kongsberg multibeam vendor format
0214_20130901_035607_Amundsen.all.mb58.gz 65.99MB Kongsberg multibeam vendor format
0214_20130927_025849_Amundsen.all.mb58.gz 66.46MB Kongsberg multibeam vendor format
0214_20131002_235738_Amundsen.all.mb58.gz 34.59MB Kongsberg multibeam vendor format
0215_20130809_004840_Amundsen.all.mb58.gz 16.71MB Kongsberg multibeam vendor format
0215_20130821_193136_Amundsen.all.mb58.gz 14.54MB Kongsberg multibeam vendor format
0215_20130901_042607_Amundsen.all.mb58.gz 66.32MB Kongsberg multibeam vendor format
0215_20130927_032850_Amundsen.all.mb58.gz 66.54MB Kongsberg multibeam vendor format
0215_20131003_002739_Amundsen.all.mb58.gz 33.92MB Kongsberg multibeam vendor format
0216_20130809_010809_Amundsen.all.mb58.gz 24.78MB Kongsberg multibeam vendor format
0216_20130821_200136_Amundsen.all.mb58.gz 21.30MB Kongsberg multibeam vendor format
0216_20130901_045608_Amundsen.all.mb58.gz 66.24MB Kongsberg multibeam vendor format
0216_20130927_035849_Amundsen.all.mb58.gz 69.57MB Kongsberg multibeam vendor format
0216_20131003_005739_Amundsen.all.mb58.gz 34.41MB Kongsberg multibeam vendor format
0217_20130809_012554_Amundsen.all.mb58.gz 29.33MB Kongsberg multibeam vendor format
0217_20130821_203137_Amundsen.all.mb58.gz 28.30MB Kongsberg multibeam vendor format
0217_20130901_052607_Amundsen.all.mb58.gz 66.62MB Kongsberg multibeam vendor format
0217_20130927_042849_Amundsen.all.mb58.gz 68.98MB Kongsberg multibeam vendor format
0217_20131003_012739_Amundsen.all.mb58.gz 38.38MB Kongsberg multibeam vendor format
0218_20130809_015007_Amundsen.all.mb58.gz 4.49MB Kongsberg multibeam vendor format
0218_20130821_210137_Amundsen.all.mb58.gz 11.99MB Kongsberg multibeam vendor format
0218_20130901_055607_Amundsen.all.mb58.gz 66.76MB Kongsberg multibeam vendor format
0218_20130927_045850_Amundsen.all.mb58.gz 66.81MB Kongsberg multibeam vendor format
0218_20131003_015739_Amundsen.all.mb58.gz 44.22MB Kongsberg multibeam vendor format
0219_20130809_015438_Amundsen.all.mb58.gz 28.91MB Kongsberg multibeam vendor format
0219_20130821_211323_Amundsen.all.mb58.gz 25.42MB Kongsberg multibeam vendor format
0219_20130901_062607_Amundsen.all.mb58.gz 67.04MB Kongsberg multibeam vendor format
0219_20130927_052850_Amundsen.all.mb58.gz 67.27MB Kongsberg multibeam vendor format
0219_20131003_022738_Amundsen.all.mb58.gz 43.91MB Kongsberg multibeam vendor format
0220_20130809_021550_Amundsen.all.mb58.gz 2.90MB Kongsberg multibeam vendor format
0220_20130821_214325_Amundsen.all.mb58.gz 28.20MB Kongsberg multibeam vendor format
0220_20130901_065607_Amundsen.all.mb58.gz 66.75MB Kongsberg multibeam vendor format
0220_20130927_055850_Amundsen.all.mb58.gz 64.32MB Kongsberg multibeam vendor format
0220_20131003_025738_Amundsen.all.mb58.gz 43.19MB Kongsberg multibeam vendor format
0221_20130809_021909_Amundsen.all.mb58.gz 25.78MB Kongsberg multibeam vendor format
0221_20130821_221324_Amundsen.all.mb58.gz 27.69MB Kongsberg multibeam vendor format
0221_20130901_072607_Amundsen.all.mb58.gz 66.84MB Kongsberg multibeam vendor format
0221_20130927_062850_Amundsen.all.mb58.gz 69.35MB Kongsberg multibeam vendor format
0221_20131003_032737_Amundsen.all.mb58.gz 43.53MB Kongsberg multibeam vendor format
0222_20130809_023859_Amundsen.all.mb58.gz 2.55MB Kongsberg multibeam vendor format
0222_20130821_224325_Amundsen.all.mb58.gz 22.76MB Kongsberg multibeam vendor format
0222_20130901_075607_Amundsen.all.mb58.gz 66.79MB Kongsberg multibeam vendor format
0222_20130927_065850_Amundsen.all.mb58.gz 73.19MB Kongsberg multibeam vendor format
0222_20131003_035739_Amundsen.all.mb58.gz 45.30MB Kongsberg multibeam vendor format
0223_20130809_024131_Amundsen.all.mb58.gz 28.98MB Kongsberg multibeam vendor format
0223_20130821_231324_Amundsen.all.mb58.gz 8.45MB Kongsberg multibeam vendor format
0223_20130901_082607_Amundsen.all.mb58.gz 67.02MB Kongsberg multibeam vendor format
0223_20130927_072850_Amundsen.all.mb58.gz 12.05MB Kongsberg multibeam vendor format
0223_20131003_042737_Amundsen.all.mb58.gz 46.28MB Kongsberg multibeam vendor format
0224_20130809_030318_Amundsen.all.mb58.gz 21.59MB Kongsberg multibeam vendor format
0224_20130822_044143_Amundsen.all.mb58.gz 27.06MB Kongsberg multibeam vendor format
0224_20130901_085607_Amundsen.all.mb58.gz 67.04MB Kongsberg multibeam vendor format
0224_20130927_075849_Amundsen.all.mb58.gz 9.51MB Kongsberg multibeam vendor format
0224_20131003_045737_Amundsen.all.mb58.gz 47.83MB Kongsberg multibeam vendor format
0225_20130809_032216_Amundsen.all.mb58.gz 19.92MB Kongsberg multibeam vendor format
0225_20130822_051143_Amundsen.all.mb58.gz 24.82MB Kongsberg multibeam vendor format
0225_20130901_092607_Amundsen.all.mb58.gz 67.25MB Kongsberg multibeam vendor format
0225_20130927_082849_Amundsen.all.mb58.gz 62.68MB Kongsberg multibeam vendor format
0225_20131003_052737_Amundsen.all.mb58.gz 47.46MB Kongsberg multibeam vendor format
0226_20130809_050136_Amundsen.all.mb58.gz 26.64MB Kongsberg multibeam vendor format
0226_20130822_054144_Amundsen.all.mb58.gz 23.39MB Kongsberg multibeam vendor format
0226_20130901_095608_Amundsen.all.mb58.gz 67.18MB Kongsberg multibeam vendor format
0226_20130927_085850_Amundsen.all.mb58.gz 76.21MB Kongsberg multibeam vendor format
0226_20131003_055737_Amundsen.all.mb58.gz 47.86MB Kongsberg multibeam vendor format
0227_20130809_053136_Amundsen.all.mb58.gz 24.38MB Kongsberg multibeam vendor format
0227_20130822_061144_Amundsen.all.mb58.gz 24.47MB Kongsberg multibeam vendor format
0227_20130901_102607_Amundsen.all.mb58.gz 66.72MB Kongsberg multibeam vendor format
0227_20130927_092849_Amundsen.all.mb58.gz 77.22MB Kongsberg multibeam vendor format
0227_20131003_062737_Amundsen.all.mb58.gz 47.66MB Kongsberg multibeam vendor format
0228_20130809_070631_Amundsen.all.mb58.gz 6.87MB Kongsberg multibeam vendor format
0228_20130822_064143_Amundsen.all.mb58.gz 22.35MB Kongsberg multibeam vendor format
0228_20130901_105608_Amundsen.all.mb58.gz 64.02MB Kongsberg multibeam vendor format
0228_20130927_095850_Amundsen.all.mb58.gz 77.30MB Kongsberg multibeam vendor format
0228_20131003_065737_Amundsen.all.mb58.gz 47.80MB Kongsberg multibeam vendor format
0229_20130809_124745_Amundsen.all.mb58.gz 79.22MB Kongsberg multibeam vendor format
0229_20130822_071143_Amundsen.all.mb58.gz 19.10MB Kongsberg multibeam vendor format
0229_20130901_112608_Amundsen.all.mb58.gz 61.53MB Kongsberg multibeam vendor format
0229_20130927_102849_Amundsen.all.mb58.gz 75.88MB Kongsberg multibeam vendor format
0229_20131003_072737_Amundsen.all.mb58.gz 47.04MB Kongsberg multibeam vendor format
0230_20130809_131435_Amundsen.all.mb58.gz 109.73MB Kongsberg multibeam vendor format
0230_20130822_074143_Amundsen.all.mb58.gz 18.18MB Kongsberg multibeam vendor format
0230_20130901_115607_Amundsen.all.mb58.gz 63.59MB Kongsberg multibeam vendor format
0230_20130927_105850_Amundsen.all.mb58.gz 75.89MB Kongsberg multibeam vendor format
0230_20131003_075737_Amundsen.all.mb58.gz 47.41MB Kongsberg multibeam vendor format
0231_20130809_134435_Amundsen.all.mb58.gz 53.64MB Kongsberg multibeam vendor format
0231_20130822_081143_Amundsen.all.mb58.gz 18.39MB Kongsberg multibeam vendor format
0231_20130901_122607_Amundsen.all.mb58.gz 13.22MB Kongsberg multibeam vendor format
0231_20130927_112850_Amundsen.all.mb58.gz 75.54MB Kongsberg multibeam vendor format
0231_20131003_082737_Amundsen.all.mb58.gz 46.67MB Kongsberg multibeam vendor format
0232_20130809_141433_Amundsen.all.mb58.gz 39.87MB Kongsberg multibeam vendor format
0232_20130822_084143_Amundsen.all.mb58.gz 27.20MB Kongsberg multibeam vendor format
0232_20130901_231136_Amundsen.all.mb58.gz 67.42MB Kongsberg multibeam vendor format
0232_20130927_115850_Amundsen.all.mb58.gz 74.79MB Kongsberg multibeam vendor format
0232_20131003_085737_Amundsen.all.mb58.gz 47.06MB Kongsberg multibeam vendor format
0233_20130809_144433_Amundsen.all.mb58.gz 40.23MB Kongsberg multibeam vendor format
0233_20130822_091143_Amundsen.all.mb58.gz 31.61MB Kongsberg multibeam vendor format
0233_20130901_234136_Amundsen.all.mb58.gz 52.55MB Kongsberg multibeam vendor format
0233_20130927_122849_Amundsen.all.mb58.gz 48.82MB Kongsberg multibeam vendor format
0233_20131003_092738_Amundsen.all.mb58.gz 46.30MB Kongsberg multibeam vendor format
0234_20130809_151433_Amundsen.all.mb58.gz 40.76MB Kongsberg multibeam vendor format
0234_20130822_094145_Amundsen.all.mb58.gz 28.30MB Kongsberg multibeam vendor format
0234_20130902_001137_Amundsen.all.mb58.gz 4.65MB Kongsberg multibeam vendor format
0234_20130927_125849_Amundsen.all.mb58.gz 52.81MB Kongsberg multibeam vendor format
0234_20131003_095737_Amundsen.all.mb58.gz 46.73MB Kongsberg multibeam vendor format
0235_20130809_154433_Amundsen.all.mb58.gz 36.95MB Kongsberg multibeam vendor format
0235_20130822_101144_Amundsen.all.mb58.gz 29.80MB Kongsberg multibeam vendor format
0235_20130902_021030_Amundsen.all.mb58.gz 66.06MB Kongsberg multibeam vendor format
0235_20130927_132850_Amundsen.all.mb58.gz 49.54MB Kongsberg multibeam vendor format
0235_20131003_102737_Amundsen.all.mb58.gz 47.54MB Kongsberg multibeam vendor format
0236_20130809_161433_Amundsen.all.mb58.gz 34.42MB Kongsberg multibeam vendor format
0236_20130822_104145_Amundsen.all.mb58.gz 25.14MB Kongsberg multibeam vendor format
0236_20130902_024029_Amundsen.all.mb58.gz 67.17MB Kongsberg multibeam vendor format
0236_20130927_135850_Amundsen.all.mb58.gz 34.26MB Kongsberg multibeam vendor format
0236_20131003_105738_Amundsen.all.mb58.gz 45.43MB Kongsberg multibeam vendor format
0237_20130809_164433_Amundsen.all.mb58.gz 35.02MB Kongsberg multibeam vendor format
0237_20130822_131532_Amundsen.all.mb58.gz 10.72MB Kongsberg multibeam vendor format
0237_20130902_031030_Amundsen.all.mb58.gz 65.72MB Kongsberg multibeam vendor format
0237_20130927_142850_Amundsen.all.mb58.gz 45.35MB Kongsberg multibeam vendor format
0237_20131003_112737_Amundsen.all.mb58.gz 39.38MB Kongsberg multibeam vendor format
0238_20130809_171433_Amundsen.all.mb58.gz 33.02MB Kongsberg multibeam vendor format
0238_20130822_141058_Amundsen.all.mb58.gz 26.74MB Kongsberg multibeam vendor format
0238_20130902_034029_Amundsen.all.mb58.gz 65.79MB Kongsberg multibeam vendor format
0238_20130927_145850_Amundsen.all.mb58.gz 64.71MB Kongsberg multibeam vendor format
0238_20131003_115737_Amundsen.all.mb58.gz 38.98MB Kongsberg multibeam vendor format
0239_20130809_174433_Amundsen.all.mb58.gz 29.77MB Kongsberg multibeam vendor format
0239_20130822_144539_Amundsen.all.mb58.gz 12.17MB Kongsberg multibeam vendor format
0239_20130902_041029_Amundsen.all.mb58.gz 64.28MB Kongsberg multibeam vendor format
0239_20130927_152849_Amundsen.all.mb58.gz 67.50MB Kongsberg multibeam vendor format
0239_20131003_122738_Amundsen.all.mb58.gz 40.14MB Kongsberg multibeam vendor format
0240_20130809_181435_Amundsen.all.mb58.gz 26.66MB Kongsberg multibeam vendor format
0240_20130822_145844_Amundsen.all.mb58.gz 27.38MB Kongsberg multibeam vendor format
0240_20130902_044029_Amundsen.all.mb58.gz 65.57MB Kongsberg multibeam vendor format
0240_20130927_155850_Amundsen.all.mb58.gz 84.97MB Kongsberg multibeam vendor format
0240_20131003_125738_Amundsen.all.mb58.gz 41.00MB Kongsberg multibeam vendor format
0241_20130809_184433_Amundsen.all.mb58.gz 18.59MB Kongsberg multibeam vendor format
0241_20130822_152844_Amundsen.all.mb58.gz 10.81MB Kongsberg multibeam vendor format
0241_20130902_051029_Amundsen.all.mb58.gz 65.79MB Kongsberg multibeam vendor format
0241_20130927_162850_Amundsen.all.mb58.gz 85.64MB Kongsberg multibeam vendor format
0241_20131003_132738_Amundsen.all.mb58.gz 43.03MB Kongsberg multibeam vendor format
0242_20130809_191434_Amundsen.all.mb58.gz 28.08MB Kongsberg multibeam vendor format
0242_20130822_154029_Amundsen.all.mb58.gz 27.10MB Kongsberg multibeam vendor format
0242_20130902_054029_Amundsen.all.mb58.gz 65.35MB Kongsberg multibeam vendor format
0242_20130927_165850_Amundsen.all.mb58.gz 82.97MB Kongsberg multibeam vendor format
0242_20131003_135737_Amundsen.all.mb58.gz 47.33MB Kongsberg multibeam vendor format
0243_20130809_194436_Amundsen.all.mb58.gz 28.19MB Kongsberg multibeam vendor format
0243_20130822_161022_Amundsen.all.mb58.gz 17.32MB Kongsberg multibeam vendor format
0243_20130902_061029_Amundsen.all.mb58.gz 65.58MB Kongsberg multibeam vendor format
0243_20130927_172849_Amundsen.all.mb58.gz 84.11MB Kongsberg multibeam vendor format
0243_20131003_142737_Amundsen.all.mb58.gz 47.00MB Kongsberg multibeam vendor format
0244_20130809_201434_Amundsen.all.mb58.gz 29.52MB Kongsberg multibeam vendor format
0244_20130822_163358_Amundsen.all.mb58.gz 443.0KB Kongsberg multibeam vendor format
0244_20130902_064030_Amundsen.all.mb58.gz 64.42MB Kongsberg multibeam vendor format
0244_20130927_175850_Amundsen.all.mb58.gz 83.20MB Kongsberg multibeam vendor format
0244_20131003_145738_Amundsen.all.mb58.gz 46.81MB Kongsberg multibeam vendor format
0245_20130809_204433_Amundsen.all.mb58.gz 28.97MB Kongsberg multibeam vendor format
0245_20130822_164238_Amundsen.all.mb58.gz 9.9KB Kongsberg multibeam vendor format
0245_20130902_071030_Amundsen.all.mb58.gz 58.49MB Kongsberg multibeam vendor format
0245_20130927_182850_Amundsen.all.mb58.gz 82.76MB Kongsberg multibeam vendor format
0245_20131003_152738_Amundsen.all.mb58.gz 47.03MB Kongsberg multibeam vendor format
0246_20130809_211434_Amundsen.all.mb58.gz 29.38MB Kongsberg multibeam vendor format
0246_20130822_164943_Amundsen.all.mb58.gz 13.86MB Kongsberg multibeam vendor format
0246_20130902_074029_Amundsen.all.mb58.gz 63.46MB Kongsberg multibeam vendor format
0246_20130927_185849_Amundsen.all.mb58.gz 82.48MB Kongsberg multibeam vendor format
0246_20131003_155738_Amundsen.all.mb58.gz 46.97MB Kongsberg multibeam vendor format
0247_20130809_214434_Amundsen.all.mb58.gz 30.31MB Kongsberg multibeam vendor format
0247_20130822_171942_Amundsen.all.mb58.gz 13.46MB Kongsberg multibeam vendor format
0247_20130902_081029_Amundsen.all.mb58.gz 60.55MB Kongsberg multibeam vendor format
0247_20130927_192850_Amundsen.all.mb58.gz 110.01MB Kongsberg multibeam vendor format
0247_20131003_162737_Amundsen.all.mb58.gz 47.24MB Kongsberg multibeam vendor format
0248_20130809_221433_Amundsen.all.mb58.gz 30.21MB Kongsberg multibeam vendor format
0248_20130822_174944_Amundsen.all.mb58.gz 16.81MB Kongsberg multibeam vendor format
0248_20130902_084029_Amundsen.all.mb58.gz 64.25MB Kongsberg multibeam vendor format
0248_20130927_195849_Amundsen.all.mb58.gz 155.10MB Kongsberg multibeam vendor format
0248_20131003_165735_Amundsen.all.mb58.gz 46.99MB Kongsberg multibeam vendor format
0249_20130809_224433_Amundsen.all.mb58.gz 29.32MB Kongsberg multibeam vendor format
0249_20130822_181942_Amundsen.all.mb58.gz 17.33MB Kongsberg multibeam vendor format
0249_20130902_091030_Amundsen.all.mb58.gz 51.24MB Kongsberg multibeam vendor format
0249_20130927_202849_Amundsen.all.mb58.gz 121.28MB Kongsberg multibeam vendor format
0249_20131003_172735_Amundsen.all.mb58.gz 46.75MB Kongsberg multibeam vendor format
0250_20130809_231435_Amundsen.all.mb58.gz 28.90MB Kongsberg multibeam vendor format
0250_20130822_183941_Amundsen.all.mb58.gz 22.55MB Kongsberg multibeam vendor format
0250_20130902_094029_Amundsen.all.mb58.gz 67.05MB Kongsberg multibeam vendor format
0250_20130927_205850_Amundsen.all.mb58.gz 82.68MB Kongsberg multibeam vendor format
0250_20131003_175736_Amundsen.all.mb58.gz 45.53MB Kongsberg multibeam vendor format
0251_20130809_234433_Amundsen.all.mb58.gz 28.60MB Kongsberg multibeam vendor format
0251_20130822_190939_Amundsen.all.mb58.gz 4.40MB Kongsberg multibeam vendor format
0251_20130902_101030_Amundsen.all.mb58.gz 44.75MB Kongsberg multibeam vendor format
0251_20130927_212849_Amundsen.all.mb58.gz 77.15MB Kongsberg multibeam vendor format
0251_20131003_182735_Amundsen.all.mb58.gz 45.76MB Kongsberg multibeam vendor format
0252_20130810_001434_Amundsen.all.mb58.gz 34.14MB Kongsberg multibeam vendor format
0252_20130822_194316_Amundsen.all.mb58.gz 93.5KB Kongsberg multibeam vendor format
0252_20130902_112954_Amundsen.all.mb58.gz 35.73MB Kongsberg multibeam vendor format
0252_20130927_215849_Amundsen.all.mb58.gz 78.66MB Kongsberg multibeam vendor format
0252_20131003_185735_Amundsen.all.mb58.gz 44.72MB Kongsberg multibeam vendor format
0253_20130810_004433_Amundsen.all.mb58.gz 35.49MB Kongsberg multibeam vendor format
0253_20130822_233042_Amundsen.all.mb58.gz 16.98MB Kongsberg multibeam vendor format
0253_20130902_145707_Amundsen.all.mb58.gz 50.75MB Kongsberg multibeam vendor format
0253_20130927_222849_Amundsen.all.mb58.gz 83.22MB Kongsberg multibeam vendor format
0253_20131003_192736_Amundsen.all.mb58.gz 44.18MB Kongsberg multibeam vendor format
0254_20130810_011433_Amundsen.all.mb58.gz 36.05MB Kongsberg multibeam vendor format
0254_20130823_000135_Amundsen.all.mb58.gz 8.33MB Kongsberg multibeam vendor format
0254_20130902_152707_Amundsen.all.mb58.gz 47.01MB Kongsberg multibeam vendor format
0254_20130927_225849_Amundsen.all.mb58.gz 95.00MB Kongsberg multibeam vendor format
0254_20131003_195735_Amundsen.all.mb58.gz 44.53MB Kongsberg multibeam vendor format
0255_20130810_014433_Amundsen.all.mb58.gz 36.06MB Kongsberg multibeam vendor format
0255_20130823_002536_Amundsen.all.mb58.gz 2.85MB Kongsberg multibeam vendor format
0255_20130902_161947_Amundsen.all.mb58.gz 15.48MB Kongsberg multibeam vendor format
0255_20130927_232849_Amundsen.all.mb58.gz 94.73MB Kongsberg multibeam vendor format
0255_20131003_202736_Amundsen.all.mb58.gz 46.07MB Kongsberg multibeam vendor format
0256_20130810_021434_Amundsen.all.mb58.gz 30.26MB Kongsberg multibeam vendor format
0256_20130902_175358_Amundsen.all.mb58.gz 40.91MB Kongsberg multibeam vendor format
0256_20130927_235850_Amundsen.all.mb58.gz 96.39MB Kongsberg multibeam vendor format
0256_20131003_205736_Amundsen.all.mb58.gz 45.45MB Kongsberg multibeam vendor format
0257_20130810_024433_Amundsen.all.mb58.gz 28.05MB Kongsberg multibeam vendor format
0257_20130902_182358_Amundsen.all.mb58.gz 52.75MB Kongsberg multibeam vendor format
0257_20130928_002850_Amundsen.all.mb58.gz 93.00MB Kongsberg multibeam vendor fo